GFSWCAN_sfc_thetae_000.txt.gz
Theta_e
307 307 307 307 307 307 307 307 307 307 307 307 307 307 307 307 308 313 316 317 313 300 307 306 307 305 303 303 299 301 300 297 293 288 287 289 286 293 290 293 292 289 286 285 286 284 283 299 293 290 297 303 302 302
305 305 305 305 305 306 306 307 307 306 306 306 306 307 307 307 307 309 310 316 314 304 305 312 312 313 310 309 305 303 302 301 301 295 291 291 286 286 288 285 295 286 292 293 292 292 302 302 299 302 304 302 302 301
304 304 305 304 305 305 306 306 306 306 306 306 306 307 307 307 307 309 311 312 309 291 301 303 306 312 313 313 315 302 296 304 299 303 296 289 287 290 286 289 291 294 298 291 292 296 299 300 304 305 305 303 303 303
303 304 304 304 304 304 304 305 305 305 305 305 306 306 306 307 307 308 307 312 310 296 287 298 312 310 314 314 312 312 309 310 308 306 289 287 288 294 290 292 291 294 294 291 293 297 300 301 302 303 303 304 303 301
303 303 303 304 304 304 304 304 304 304 305 305 306 306 306 307 307 308 309 310 312 305 290 294 303 308 312 312 310 310 309 307 302 289 287 289 293 292 294 294 291 295 293 290 291 300 300 300 302 303 302 301 301 299
302 303 303 303 303 303 303 303 303 304 304 304 305 305 306 305 306 304 297 304 308 306 291 286 298 299 306 309 308 306 307 305 302 294 289 293 296 292 286 288 297 299 300 301 298 302 302 302 303 304 301 301 302 302
302 302 303 303 302 302 302 302 302 302 303 303 304 304 305 304 305 300 295 301 304 307 287 286 288 294 296 300 304 304 306 303 299 293 289 294 294 295 287 287 297 300 300 300 302 301 299 301 298 302 302 300 299 299
302 302 302 302 301 301 300 301 301 302 302 302 302 302 303 303 302 298 303 304 305 298 290 285 288 292 297 293 292 297 298 297 295 296 296 294 298 291 287 295 298 298 299 300 300 301 300 301 300 296 296 295 294 294
301 301 300 300 300 300 300 300 301 301 302 302 302 302 302 299 294 296 302 303 304 297 286 285 285 286 296 294 294 294 294 287 298 288 293 296 293 287 293 295 296 297 298 298 300 298 297 293 292 293 293 293 292 293
300 300 299 299 299 299 300 300 300 301 302 302 300 295 290 295 300 302 299 294 292 289 288 285 291 288 295 291 289 290 289 287 286 291 296 287 289 296 298 298 299 300 299 296 292 290 291 290 290 291 292 292 291 289
299 299 298 299 299 299 299 299 300 299 299 299 292 291 299 299 298 292 288 286 289 286 289 290 292 290 295 288 288 291 287 286 283 289 288 287 287 292 296 295 295 293 293 292 292 292 292 292 291 291 289 289 288 288
298 298 298 298 298 299 299 299 298 299 299 297 297 297 296 293 290 286 285 287 285 285 290 288 289 290 292 293 290 289 286 287 282 287 283 281 290 290 290 290 291 291 292 291 292 291 292 291 293 291 289 287 288 286
298 298 298 298 298 299 299 299 297 298 299 298 292 287 288 286 281 280 278 284 285 289 286 286 287 287 288 287 285 285 283 283 285 282 282 287 289 289 289 290 291 292 290 287 290 291 291 291 290 288 287 287 285 284
296 296 297 297 297 297 298 299 298 297 297 288 285 280 282 281 282 284 285 286 287 287 286 288 287 287 288 285 286 283 286 284 280 278 282 287 287 288 290 291 290 290 288 286 286 288 287 286 286 284 284 283 284 283
296 296 296 295 296 296 297 298 297 298 291 286 285 279 281 286 286 286 285 286 288 288 288 287 286 285 285 282 285 283 280 278 280 282 286 289 288 288 289 289 289 288 286 285 287 286 285 285 283 284 282 283 283 282
295 295 294 295 295 296 296 296 296 295 288 284 284 282 284 282 284 282 282 284 289 286 286 286 282 279 280 283 280 280 279 278 284 287 290 289 288 288 289 289 288 288 287 287 287 286 285 284 284 285 284 283 282 282
294 292 294 295 296 296 295 293 292 286 284 281 280 286 285 283 282 284 285 287 290 285 282 282 277 278 284 278 278 283 281 286 290 290 290 290 289 288 289 289 287 287 287 287 286 285 284 284 283 283 284 283 282 281
293 294 295 296 296 294 292 291 287 283 279 282 279 284 283 284 284 284 285 286 284 284 284 281 284 279 278 276 279 286 288 290 290 290 290 290 290 289 289 290 290 290 289 287 285 284 283 282 282 284 284 282 282 283
294 294 296 296 295 291 285 285 287 280 280 283 283 285 285 286 287 288 288 288 289 289 286 283 279 279 280 284 285 287 288 289 288 289 290 290 289 289 288 289 288 288 287 286 284 283 284 283 285 285 285 283 285 286
295 294 295 295 294 288 282 283 287 282 279 282 284 283 284 285 286 286 286 286 286 284 281 280 280 284 285 287 288 288 289 290 289 287 288 289 290 290 290 288 287 288 287 285 284 284 284 283 284 284 285 285 286 285
294 294 294 295 291 289 286 283 282 283 283 282 285 284 283 283 282 283 284 288 284 282 280 284 285 287 288 289 289 290 288 289 288 288 287 287 290 287 287 287 286 287 286 285 285 286 283 284 285 283 283 284 284 284
291 294 287 289 285 285 284 287 284 285 281 283 281 283 282 281 281 282 285 282 282 285 286 286 287 287 287 286 287 289 289 289 289 289 287 287 285 285 286 286 286 285 285 286 287 285 284 284 283 283 284 283 281 283
292 289 285 285 283 283 281 286 280 282 278 280 281 279 278 278 282 283 280 282 283 287 287 287 287 288 287 288 287 288 288 287 287 288 288 286 286 286 287 287 287 285 285 285 285 285 283 282 282 283 283 282 283 283
291 285 283 282 282 279 281 279 282 280 280 277 276 275 278 279 280 279 277 281 284 287 286 285 286 285 286 286 285 286 287 287 286 285 286 285 285 286 287 287 287 286 287 286 283 285 282 283 283 282 282 282 282 282
281 281 282 278 283 278 276 276 277 276 274 276 276 276 279 279 277 277 277 281 284 285 286 286 285 284 282 284 286 286 288 287 285 283 286 287 288 285 283 283 284 285 285 284 283 283 283 283 284 282 282 282 282 282
276 281 279 279 279 277 277 274 274 275 276 275 276 280 278 277 275 274 278 284 287 286 286 285 286 285 284 285 285 284 285 284 285 285 288 287 286 286 285 283 283 283 285 286 284 283 283 284 283 282 282 282 281 281
276 277 281 284 281 280 277 276 278 278 274 274 277 274 275 272 274 279 284 285 285 287 288 288 287 286 285 285 284 284 284 283 283 285 285 286 286 287 288 286 285 287 286 284 285 285 284 284 283 282 282 283 282 281
281 282 276 279 277 279 277 276 275 275 277 280 277 273 274 275 277 284 285 287 287 288 286 286 286 287 286 286 283 282 283 282 282 283 284 285 285 285 283 284 283 281 285 284 284 285 285 284 283 282 282 281 281 280
280 282 281 275 276 277 278 278 279 281 282 279 278 277 279 283 287 285 285 284 283 283 282 283 285 286 285 285 283 282 283 282 281 280 282 283 283 283 284 284 283 282 283 283 281 283 283 282 281 280 279 279 279 278
280 281 279 278 275 276 281 282 282 284 283 283 283 284 284 283 283 280 280 281 280 281 281 281 281 281 283 283 284 284 283 283 283 283 283 284 285 285 283 283 283 282 282 281 280 279 278 278 277 277 277 276 277 276
281 279 278 278 278 281 284 280 279 280 280 280 282 280 282 283 279 276 277 276 276 276 279 280 281 283 282 282 282 282 281 283 282 282 283 284 284 284 283 283 283 282 282 281 280 280 279 278 277 275 274 273 273 273
277 277 277 275 277 278 277 278 279 277 279 277 279 280 278 279 279 276 274 275 277 277 276 276 279 281 281 282 282 283 282 282 282 280 280 282 283 283 283 283 283 283 282 281 280 279 278 277 276 275 275 273 273 272
278 278 278 277 277 277 278 277 277 277 276 276 277 277 278 279 278 273 275 274 273 273 272 274 277 280 279 279 279 279 279 278 279 279 279 280 281 282 282 282 282 281 280 280 279 278 276 276 275 275 274 272 271 270

GFSWCAN_sfc_thetae_006.txt.gz
Theta_e
308 307 307 307 307 307 307 308 308 308 308 308 307 307 307 307 308 313 321 327 319 308 310 313 313 308 308 308 304 306 303 306 298 289 287 290 287 293 292 294 291 289 287 286 285 284 283 302 301 291 297 302 301 301
307 306 306 305 305 306 306 306 307 307 307 307 307 307 307 307 307 309 315 326 325 313 311 318 317 319 315 313 309 308 303 303 303 297 291 291 287 289 287 285 296 287 293 290 291 291 300 303 301 303 303 301 301 301
305 305 305 305 305 305 305 305 306 306 306 306 306 306 307 307 307 310 314 320 314 295 307 309 309 316 319 318 320 306 310 309 306 310 302 290 287 295 286 288 291 295 299 292 292 296 298 301 303 304 304 301 302 302
304 304 305 304 304 304 304 304 304 305 305 305 305 306 306 307 307 308 311 318 313 298 286 299 314 311 317 317 317 316 313 313 311 309 293 288 286 296 290 293 291 295 296 292 292 297 299 300 303 303 303 303 301 302
304 304 304 304 304 304 304 304 304 304 304 305 305 305 306 306 307 308 312 316 316 305 291 293 303 310 313 315 313 314 312 309 306 294 288 289 296 293 296 294 290 296 294 291 289 298 298 299 303 304 301 300 300 298
303 303 303 303 303 303 304 303 303 303 304 304 305 306 306 306 306 307 299 307 310 310 294 287 301 302 308 311 310 309 310 309 307 301 292 297 301 292 286 289 296 300 301 302 298 302 302 303 302 302 300 299 298 296
302 303 303 302 302 302 302 303 303 303 303 304 304 305 305 305 307 301 297 303 307 310 288 289 292 297 302 304 306 306 308 306 304 299 292 292 292 295 286 288 297 300 301 301 302 302 297 299 298 300 299 297 297 296
302 303 303 302 301 301 301 302 302 303 303 304 304 304 304 304 303 299 302 304 305 297 291 287 287 290 299 297 294 301 297 295 293 293 291 289 294 290 287 295 298 300 300 300 300 301 299 298 297 296 296 296 294 293
301 302 302 301 301 301 301 301 302 303 303 303 303 303 302 299 294 297 303 303 303 296 286 285 285 286 298 294 292 291 292 286 293 288 291 292 291 288 293 296 297 298 298 297 298 296 295 294 294 294 294 294 293 291
301 301 301 300 300 300 300 301 302 302 302 302 304 297 288 294 302 302 297 290 288 287 286 285 292 290 297 291 288 289 288 286 285 290 296 290 289 297 298 299 299 297 296 295 293 291 292 292 292 293 293 294 293 289
301 301 300 300 300 300 301 301 302 302 300 302 296 290 299 301 299 293 287 285 286 285 287 289 291 291 297 288 286 288 285 286 284 289 290 288 287 293 297 297 296 295 295 295 294 294 293 293 292 292 291 292 290 288
302 301 300 300 300 300 300 301 301 299 301 300 300 302 299 295 291 286 285 287 286 286 291 289 290 292 291 296 289 287 285 286 280 291 285 283 289 294 294 294 294 294 294 293 294 292 292 292 293 291 291 291 288 288
300 300 300 300 300 300 299 299 299 300 300 302 295 290 289 288 282 281 280 284 285 289 288 288 287 290 291 290 286 285 283 282 288 284 283 287 293 294 293 293 292 293 292 290 291 291 292 292 292 287 287 287 287 285
299 299 299 299 299 299 298 299 299 299 299 292 286 282 284 281 283 286 287 285 286 287 289 290 288 289 288 285 285 280 286 287 281 280 282 290 291 291 292 292 292 291 287 287 289 290 289 288 287 286 285 284 283 283
298 298 299 299 299 299 299 298 298 300 294 287 286 281 283 288 289 286 289 289 289 290 291 289 289 288 286 283 285 284 280 278 281 282 289 291 292 292 291 292 291 288 285 286 289 288 287 287 286 285 286 285 285 284
298 297 296 298 299 299 298 297 298 297 288 287 284 283 287 286 285 285 285 286 291 291 290 289 285 281 280 282 280 279 279 278 284 290 291 291 291 291 289 288 289 290 289 289 289 289 289 287 286 286 286 285 285 284
296 293 297 297 298 298 298 295 294 286 286 282 284 289 288 287 285 286 286 288 294 287 284 285 279 279 285 280 279 283 281 286 289 290 290 291 289 290 289 289 287 288 289 289 290 290 289 289 287 285 284 285 284 284
293 296 297 297 297 296 294 295 288 285 281 285 283 286 286 288 287 286 287 291 289 286 285 282 285 280 278 277 279 285 287 289 289 289 289 289 290 289 290 289 289 289 290 289 288 288 288 287 286 285 285 285 284 284
295 296 296 296 296 293 287 288 291 282 284 286 286 287 288 290 291 290 290 290 291 291 287 285 281 279 281 284 284 286 287 288 287 288 289 290 290 288 288 288 288 289 289 289 289 288 287 287 286 287 286 286 285 286
296 296 296 296 295 289 285 286 291 285 282 285 286 286 287 286 290 287 287 287 288 286 282 280 281 284 285 287 288 288 288 289 288 286 286 288 289 289 289 289 289 289 289 289 288 286 285 285 286 286 287 287 287 287
294 295 295 295 293 291 288 285 283 284 285 284 286 286 285 289 287 286 284 288 284 282 280 284 285 287 289 289 290 290 289 289 288 288 286 286 289 289 289 289 289 289 289 288 285 286 285 285 286 286 286 285 286 286
294 294 291 291 286 286 285 288 285 287 284 284 284 285 284 283 284 285 288 284 283 285 286 286 287 288 288 288 289 290 290 290 289 288 287 288 287 287 288 289 288 287 287 286 286 285 285 286 287 286 285 285 285 284
293 292 288 287 282 282 282 289 283 284 280 281 283 281 281 282 285 288 282 284 285 288 289 289 289 290 289 290 289 289 289 288 288 288 288 289 289 289 288 288 287 286 285 286 286 286 286 287 285 285 285 285 284 283
292 286 283 281 282 280 284 281 284 282 283 281 280 278 280 283 286 282 279 283 285 288 288 288 289 287 288 288 287 288 289 290 289 289 290 288 287 287 287 287 287 287 286 287 287 287 286 285 285 284 284 284 283 283
281 281 282 279 283 280 278 279 279 280 277 279 278 278 280 284 279 278 278 282 285 286 288 289 288 288 286 287 288 289 289 289 288 287 288 288 286 285 285 286 286 286 287 285 285 285 285 285 284 284 283 283 282 282
277 281 279 280 281 279 279 276 278 278 279 278 279 282 285 280 276 276 279 286 289 289 286 286 287 287 287 288 287 287 289 291 288 285 285 286 285 284 284 284 285 286 289 286 285 284 285 284 284 283 283 283 282 282
278 279 283 286 284 283 282 284 283 281 278 277 279 280 279 274 274 279 285 288 289 293 293 293 291 289 288 288 289 291 291 289 286 285 286 285 285 286 286 285 284 287 289 286 286 285 285 285 284 284 283 284 283 283
281 284 278 282 282 284 280 280 279 278 279 282 281 277 276 277 278 285 288 292 293 292 292 292 292 291 290 290 289 287 286 285 285 285 285 285 285 286 287 286 286 283 287 286 286 285 285 285 284 284 283 283 284 284
281 285 285 278 281 281 281 280 280 282 284 283 280 279 280 284 287 288 289 291 291 289 286 286 287 286 288 287 286 286 286 285 283 280 280 280 283 286 286 286 285 285 286 285 284 285 285 286 285 284 285 284 283 282
281 286 281 280 278 278 282 285 284 286 286 286 285 284 284 286 288 290 290 289 286 285 285 285 285 284 282 282 283 284 286 286 285 283 280 280 282 284 285 285 285 285 285 285 284 282 282 283 282 282 281 281 280 280
286 285 282 281 280 283 285 286 286 286 286 285 286 284 283 285 288 290 288 287 285 284 282 282 282 284 283 282 282 281 282 284 284 283 283 284 284 284 285 285 285 285 284 284 282 282 281 281 282 281 279 278 278 277
283 281 280 278 280 285 285 284 284 284 284 284 283 285 284 283 281 283 279 279 280 279 281 280 279 281 282 282 284 284 282 281 279 279 279 282 284 284 285 285 285 284 284 283 282 282 281 280 280 279 278 277 277 276
282 282 281 280 279 280 283 281 281 280 282 281 282 283 283 282 280 277 279 279 277 277 276 277 279 280 281 280 281 282 280 279 277 276 276 276 275 276 279 282 284 283 282 282 281 280 279 278 278 278 278 277 275 274

GFSWCAN_sfc_thetae_012.txt.gz
Theta_e
308 307 307 306 306 307 307 307 307 307 307 307 307 307 307 308 308 310 310 313 307 296 302 305 307 302 301 296 288 295 294 290 289 286 284 281 284 283 282 286 283 282 279 281 279 279 278 294 294 286 290 292 295 295
308 307 305 306 306 306 307 307 306 307 306 306 307 306 307 307 308 309 305 313 312 303 302 309 310 312 309 306 301 297 296 295 292 287 287 283 284 285 283 284 290 285 287 282 284 282 291 295 295 295 297 295 294 296
306 307 306 305 305 306 307 306 306 306 306 306 306 306 306 307 308 308 306 308 305 292 299 300 302 307 313 311 310 295 290 302 297 297 289 287 286 287 286 286 288 291 294 285 287 291 293 295 298 298 297 296 298 296
304 305 306 305 305 304 305 305 305 305 305 305 305 305 306 306 307 307 305 307 303 296 287 295 305 305 311 310 309 308 305 306 304 299 288 287 286 294 288 292 290 293 294 290 290 293 295 296 296 298 299 297 296 296
303 303 303 304 305 305 304 304 304 304 304 305 305 305 305 306 307 305 306 309 309 303 289 290 300 305 308 309 308 309 307 304 296 290 287 287 289 289 287 287 288 295 292 289 288 295 295 296 298 299 295 295 295 293
303 303 302 303 303 303 304 304 304 304 304 304 305 305 306 305 306 306 299 305 309 311 293 287 298 297 302 303 304 303 304 302 300 292 288 292 297 292 286 286 293 297 299 300 296 299 298 298 296 296 293 293 294 293
302 302 302 302 302 302 303 303 303 303 304 304 305 305 305 305 307 302 298 302 308 310 289 288 288 293 295 297 298 298 299 298 298 293 289 292 292 295 286 288 296 297 298 300 299 299 294 294 292 294 293 293 293 293
302 302 301 301 301 301 302 302 303 303 303 304 304 304 304 304 303 299 301 304 306 298 291 287 287 288 295 286 287 293 288 290 292 292 288 288 290 287 287 295 295 297 298 297 296 296 295 292 292 292 293 292 290 289
302 302 301 301 301 301 301 302 303 304 303 304 303 303 301 298 294 296 302 301 300 297 288 286 285 285 295 291 288 287 287 286 289 286 287 290 286 286 290 292 294 294 294 292 292 291 291 290 290 289 289 289 288 288
301 301 301 300 300 300 301 302 302 303 303 303 301 294 287 292 302 301 295 289 288 287 286 285 288 286 293 287 285 286 285 285 284 286 291 286 288 293 295 296 295 290 291 290 287 285 286 285 286 285 286 287 286 285
301 301 300 300 300 300 301 302 301 301 301 297 290 287 296 302 297 289 285 285 285 284 285 286 287 286 292 286 285 286 285 284 280 279 284 279 281 286 290 289 290 291 291 291 290 289 288 286 285 285 284 285 284 283
301 301 300 300 300 300 301 302 301 298 297 297 296 298 295 290 286 285 283 283 283 280 285 284 286 289 287 291 285 284 283 283 276 279 278 279 280 286 287 288 288 289 290 289 289 288 287 287 287 284 284 284 283 282
301 300 300 300 300 301 301 300 300 299 300 294 289 286 285 285 278 274 278 280 280 284 286 286 285 286 286 287 284 278 277 274 282 280 278 278 285 288 289 290 289 288 285 284 288 289 288 286 285 282 282 282 280 279
300 300 300 300 300 300 298 299 299 297 292 284 279 277 277 276 278 278 279 284 285 285 285 286 285 282 282 277 282 278 278 280 275 275 273 278 284 286 287 287 286 285 280 281 283 284 282 281 281 280 277 279 275 283
300 300 300 299 299 298 298 298 298 295 287 278 278 274 278 282 282 284 285 285 285 286 284 280 279 279 276 273 280 277 271 275 276 271 275 280 283 284 284 285 285 281 281 281 283 281 280 279 279 281 282 278 281 283
299 298 297 299 298 298 298 298 295 291 286 278 279 277 278 280 281 283 284 284 285 280 280 279 274 271 270 271 269 270 269 269 272 273 278 282 283 284 283 283 284 283 282 283 284 283 283 280 281 282 280 283 286 285
296 293 298 298 298 298 298 293 287 281 275 275 273 280 281 279 277 283 281 283 286 282 273 272 269 272 274 267 268 275 270 273 276 278 280 282 282 282 283 283 280 282 283 283 283 283 283 283 279 281 279 285 284 285
292 297 298 298 296 295 293 287 280 277 275 276 274 273 274 275 280 276 283 285 285 280 276 274 277 270 268 266 268 272 274 277 278 279 279 280 282 282 283 283 284 284 283 284 283 282 282 279 279 282 284 284 284 283
295 295 297 297 295 287 280 284 282 274 275 275 276 276 276 274 276 278 277 281 285 282 276 272 267 267 269 272 268 271 271 273 278 282 283 282 282 283 284 284 283 283 283 283 283 283 284 283 283 286 284 285 284 281
296 296 296 296 294 282 280 277 284 278 275 278 276 275 275 275 275 272 282 284 284 282 280 277 272 273 274 277 278 277 278 279 277 278 281 283 282 283 283 283 283 283 283 283 282 278 282 284 282 284 284 284 282 281
293 294 294 293 288 283 279 276 275 277 278 277 278 278 275 273 272 274 281 280 281 279 277 279 279 281 281 280 280 281 281 281 281 281 282 282 284 280 281 282 282 282 281 282 282 284 284 283 285 286 285 284 285 285
290 293 287 289 282 278 276 278 277 277 276 275 274 275 270 268 267 276 275 281 280 279 279 280 281 281 281 281 282 282 283 283 284 283 281 280 280 281 281 281 277 281 283 284 284 284 285 285 286 285 284 284 283 281
291 288 283 283 275 273 272 279 273 277 271 269 271 270 267 267 272 278 270 276 278 280 283 283 283 283 283 284 283 283 284 283 282 282 281 280 280 278 278 278 275 283 282 283 285 285 285 286 285 285 284 283 281 277
289 281 278 277 272 266 272 279 275 273 268 269 266 265 269 269 272 268 268 270 279 279 280 282 282 282 281 282 281 282 283 281 281 279 279 277 278 278 277 282 284 284 284 285 285 285 285 285 283 281 279 280 279 281
273 276 277 275 275 273 271 266 271 267 266 264 264 263 268 269 266 263 266 275 274 275 279 280 279 281 280 280 278 280 280 281 279 279 278 277 274 276 280 283 283 283 283 283 284 285 284 285 283 282 281 279 279 280
268 274 276 275 269 269 269 263 263 266 262 263 265 269 264 264 263 266 272 272 270 274 271 273 276 274 278 281 279 279 280 279 278 275 278 278 278 279 281 280 280 281 280 284 284 283 284 283 283 281 278 278 279 279
270 270 274 279 278 275 267 265 269 266 263 265 265 264 266 268 265 271 276 277 277 277 279 279 280 280 280 281 280 281 276 278 279 280 282 283 283 282 282 280 279 280 282 284 283 283 284 283 283 282 280 281 281 282
273 269 273 272 273 274 270 265 264 266 267 272 268 265 269 268 270 275 278 279 278 280 281 282 282 283 282 278 276 276 276 277 278 282 281 277 278 275 275 281 283 283 284 285 283 284 284 283 283 283 282 282 282 282
277 273 274 272 271 275 276 272 270 273 276 273 268 266 269 274 274 274 277 279 279 280 279 278 279 278 283 283 279 281 280 281 280 279 278 279 276 272 273 280 281 282 283 283 282 283 283 283 283 284 284 283 282 281
273 277 275 268 270 270 272 273 270 271 273 279 277 276 276 276 278 280 279 278 273 279 277 277 281 283 282 281 280 280 281 282 282 279 275 270 272 275 281 281 281 282 282 283 279 276 278 278 281 281 280 280 279 278
268 266 266 265 267 270 274 271 268 270 268 272 278 277 279 280 273 274 272 277 280 281 281 280 280 280 278 278 278 278 276 272 273 272 270 269 271 274 277 279 281 274 267 268 270 272 274 274 276 277 277 277 276 276
264 267 267 270 275 273 272 273 272 272 271 266 276 268 268 269 273 271 273 271 274 273 272 273 273 272 274 272 273 273 271 270 270 270 270 268 269 270 271 272 274 276 270 269 269 270 271 273 273 272 273 273 273 271
266 264 265 264 264 266 269 270 269 267 263 270 275 276 275 272 274 270 270 272 270 269 269 270 271 273 274 275 274 273 272 272 273 274 272 271 269 269 268 269 269 271 272 270 269 268 266 268 267 267 267 266 265 264

GFSWCAN_sfc_thetae_015.txt.gz
Theta_e
308 307 307 307 307 307 307 307 307 307 307 307 307 308 308 308 307 309 307 310 305 294 299 303 304 300 299 295 288 294 293 289 288 283 279 279 274 282 281 285 282 281 279 277 279 278 276 291 292 286 290 291 293 292
307 306 305 306 306 306 306 307 307 306 306 306 306 307 307 308 308 309 306 310 309 303 301 308 309 309 307 303 298 295 295 292 292 288 286 283 284 280 280 283 288 285 286 281 283 283 291 293 294 295 296 293 292 291
306 306 306 305 305 305 306 306 306 306 306 306 306 306 307 307 308 308 306 306 304 292 298 300 301 305 311 310 308 295 289 298 294 295 288 286 286 285 283 285 287 291 294 286 288 290 293 295 298 299 296 294 295 296
304 305 305 305 305 305 305 305 305 305 305 306 306 306 306 306 307 308 305 305 303 295 287 294 303 303 309 310 308 305 304 302 300 294 287 286 286 293 287 292 289 292 293 290 290 294 295 296 297 298 299 297 294 294
303 303 303 304 304 305 304 304 304 304 305 305 305 305 306 306 307 307 306 308 309 304 289 291 298 303 306 307 305 305 304 300 295 288 286 287 289 289 288 287 287 294 291 289 288 296 295 296 298 299 293 292 292 292
302 302 302 303 303 304 303 303 303 303 304 304 305 305 306 306 307 307 300 306 309 309 292 287 296 297 301 302 303 303 304 302 299 292 288 290 294 292 286 286 294 297 298 299 296 299 299 298 295 295 292 293 293 292
302 302 302 302 302 303 303 303 303 303 303 304 304 305 305 305 308 303 298 302 307 309 289 288 288 292 294 296 296 297 298 296 297 292 289 291 292 295 286 288 296 298 298 297 300 299 294 292 289 293 292 293 294 292
302 301 301 301 302 302 302 303 303 303 303 304 304 304 304 305 304 300 301 304 306 300 292 286 287 289 293 285 287 293 289 290 289 292 288 287 289 288 287 294 295 295 296 296 294 295 293 293 292 290 289 288 287 288
301 301 301 301 301 302 302 302 303 303 303 304 303 303 301 299 294 296 302 302 300 298 287 286 286 286 295 290 288 287 288 286 289 286 287 289 286 286 291 292 293 294 293 290 288 287 287 286 286 287 287 286 285 285
301 301 301 300 300 301 301 302 302 303 303 302 300 295 287 292 302 301 296 290 289 287 286 285 288 286 294 286 286 286 285 285 284 286 290 285 286 291 287 289 289 288 288 289 286 285 285 284 285 285 285 285 284 283
301 301 300 300 300 302 301 301 302 302 301 296 290 287 295 302 296 289 286 286 286 284 285 286 286 286 291 286 286 286 285 284 280 278 284 279 277 283 286 286 288 288 288 289 291 290 288 285 284 284 284 284 284 284
301 301 300 300 300 301 301 301 300 299 297 296 296 297 294 290 286 285 284 284 283 281 285 284 286 289 287 290 285 284 283 283 272 279 280 277 281 285 286 287 288 290 290 289 288 287 287 287 287 286 285 284 283 283
300 300 300 300 300 301 300 300 300 300 298 294 289 287 286 284 280 275 278 279 280 283 286 286 285 285 286 287 284 281 279 277 282 278 275 277 284 286 287 289 288 288 285 282 285 286 287 286 285 281 282 282 280 280
300 300 300 300 300 300 299 299 299 295 290 282 281 278 274 274 279 276 276 280 284 285 286 285 284 282 283 275 281 278 276 279 277 272 272 279 283 285 286 286 284 284 281 281 282 282 281 280 280 280 277 279 277 277
300 300 300 299 299 298 299 299 298 293 284 278 276 271 276 280 283 284 285 285 285 286 284 279 282 280 279 273 279 278 274 274 276 271 274 280 283 284 283 284 283 281 280 279 282 280 279 279 278 279 280 279 277 277
300 299 297 299 299 299 298 295 292 287 283 277 274 275 281 281 280 283 285 284 285 284 280 278 271 269 269 270 271 273 269 268 271 272 277 282 283 283 282 282 283 283 282 282 282 282 282 280 279 281 281 279 280 280
297 293 298 298 298 297 297 290 285 281 275 272 272 280 273 277 273 277 283 282 283 281 272 272 269 272 273 265 266 274 269 272 275 277 278 281 282 282 282 282 280 281 282 283 283 282 282 282 280 277 278 282 282 281
292 297 298 298 296 295 292 285 278 275 274 274 272 271 275 272 282 283 280 279 283 281 275 273 276 267 265 265 267 272 273 275 276 277 279 281 282 282 282 282 283 283 283 282 280 281 281 279 279 281 282 283 281 284
296 296 297 297 294 287 283 284 282 273 274 274 275 275 274 272 273 277 273 278 284 284 280 271 265 267 269 272 269 269 269 272 277 280 280 281 282 282 283 283 283 283 282 282 282 282 283 283 283 284 283 284 283 284
297 296 296 295 292 284 277 278 282 278 274 277 275 274 274 274 273 277 275 274 282 283 280 277 272 273 274 276 277 277 278 278 277 277 280 281 281 282 282 283 283 283 282 281 280 277 283 283 283 284 285 284 284 283
294 293 293 291 286 282 278 275 275 277 278 276 276 276 273 271 274 271 279 284 281 280 278 278 277 279 280 279 280 280 280 280 280 279 280 281 283 280 281 282 281 279 277 277 282 283 283 284 284 285 285 285 285 284
291 293 287 287 279 275 275 277 277 276 274 273 273 273 266 266 267 277 275 279 280 278 279 279 281 281 281 281 282 281 282 282 282 281 280 280 280 280 279 278 276 274 278 282 283 282 283 284 285 285 285 285 283 281
291 288 283 280 272 270 270 277 271 275 269 269 269 269 266 265 271 276 274 277 277 280 283 281 282 283 282 283 282 282 283 283 282 282 280 280 279 279 277 277 275 273 280 281 283 283 283 285 285 285 285 284 282 281
288 280 272 272 268 267 269 278 274 271 267 269 265 264 268 266 270 266 268 269 277 278 279 281 281 281 280 281 280 282 282 280 280 278 278 276 277 278 277 278 277 277 281 283 283 283 284 284 285 282 279 281 280 279
273 274 270 272 276 271 267 267 267 268 267 263 263 262 267 267 265 262 266 273 270 273 277 278 277 279 278 278 277 279 279 280 279 278 280 276 273 273 278 280 277 279 279 276 279 282 284 284 285 282 281 281 278 277
266 270 275 270 273 267 268 264 268 265 260 261 263 266 261 261 262 265 271 271 269 273 271 271 272 272 276 279 278 278 281 280 278 276 277 278 277 278 281 280 280 277 275 278 282 281 281 282 283 283 282 282 281 278
265 271 275 277 276 273 265 263 267 263 261 264 264 262 262 263 263 270 275 275 277 276 277 278 280 280 281 281 280 279 277 275 278 278 277 280 282 283 282 281 280 279 281 282 283 281 281 281 282 283 282 283 282 281
271 270 272 271 271 270 264 261 263 265 267 270 266 264 267 267 269 275 277 278 277 279 281 281 281 282 280 278 275 272 275 279 281 278 275 277 279 275 278 274 274 280 280 281 282 282 281 282 282 282 282 282 283 283
276 274 270 265 267 268 272 270 268 272 275 273 267 265 269 273 273 273 276 276 276 276 274 276 276 271 273 282 283 281 281 280 274 273 277 278 276 274 272 279 280 279 281 280 283 282 280 279 279 280 280 281 283 284
271 276 276 275 273 274 274 276 269 270 271 276 275 276 276 272 273 272 272 273 272 269 271 273 278 278 282 281 280 278 277 276 277 276 272 269 268 267 277 278 280 280 280 275 270 268 272 269 271 274 277 278 278 277
265 265 264 262 265 268 271 267 262 263 264 270 271 276 278 274 268 270 268 269 275 277 277 276 276 274 274 273 272 271 272 269 269 269 270 269 268 268 269 272 275 276 270 265 265 265 266 267 268 268 270 272 273 273
268 266 266 264 267 270 262 266 267 269 273 263 276 265 265 267 267 265 269 268 268 268 267 267 268 269 272 272 271 269 271 272 272 272 271 270 269 269 269 269 269 268 270 271 267 268 268 266 264 266 269 268 267 266
260 257 256 258 262 266 264 264 263 263 260 262 271 271 268 268 267 268 269 269 268 268 268 269 270 271 272 272 271 271 272 272 273 274 273 270 268 267 266 266 265 265 266 267 266 265 263 261 260 261 262 262 262 261

GFSWCAN_sfc_thetae_018.txt.gz
Theta_e
306 307 306 306 306 306 307 307 307 307 307 307 307 308 308 307 306 309 307 308 303 293 297 302 302 298 296 293 288 293 292 288 288 283 281 279 273 282 281 284 281 281 278 277 278 278 275 290 290 285 290 292 293 293
306 306 305 305 306 306 306 307 306 306 306 306 307 307 307 307 307 308 305 307 306 301 298 303 305 305 303 301 297 293 293 291 291 286 285 281 278 277 280 281 286 282 287 283 285 282 290 293 294 294 296 295 293 292
306 306 305 305 305 305 306 306 306 306 306 306 306 307 307 307 308 308 304 304 302 292 297 298 298 303 309 307 306 294 288 296 292 294 286 284 281 283 283 283 285 289 292 286 287 290 292 295 297 296 294 294 296 296
304 304 304 305 304 305 305 305 305 305 306 306 306 306 306 307 308 308 304 303 302 295 287 294 301 300 306 308 306 304 302 299 296 292 286 286 286 292 287 291 289 291 291 289 290 294 295 295 296 297 297 294 293 293
303 303 302 304 304 304 305 305 304 305 305 306 306 306 306 306 307 306 305 306 307 301 288 290 298 301 303 304 303 301 302 298 295 289 286 287 288 289 287 288 287 294 292 289 288 295 295 296 295 295 291 289 289 291
302 302 302 302 303 303 304 304 304 304 304 305 305 306 306 306 307 308 301 307 307 309 293 288 296 293 297 300 300 300 300 298 297 292 288 291 296 292 286 286 294 296 298 299 295 299 295 293 291 291 288 289 291 292
302 302 302 302 302 303 303 303 303 304 304 304 304 305 306 306 308 303 299 300 307 308 290 287 289 289 292 295 295 296 299 298 297 291 288 290 291 294 285 288 295 297 297 297 299 296 291 292 290 291 290 290 289 287
301 301 301 301 302 302 302 302 303 303 304 304 304 304 304 305 305 301 301 303 307 299 293 287 287 288 292 285 287 293 288 290 290 292 288 287 289 287 286 291 294 295 296 291 288 290 291 291 289 286 287 286 284 284
301 300 300 301 301 301 302 302 303 303 303 304 303 303 302 299 295 297 302 302 300 298 287 286 286 286 295 290 288 288 288 286 288 286 287 289 286 286 285 286 287 288 290 286 287 287 287 286 286 286 286 285 283 282
301 300 300 300 301 301 302 302 302 303 303 302 300 295 287 292 302 301 296 291 289 287 287 286 288 287 293 286 286 287 286 285 284 286 287 285 285 286 286 288 288 287 287 288 285 284 285 285 285 285 284 283 282 282
301 301 300 300 301 301 302 302 302 302 301 297 290 287 295 301 296 290 286 286 285 285 285 286 286 286 291 286 286 286 285 285 279 278 283 282 281 283 285 286 286 287 288 289 289 288 288 287 284 283 284 283 283 282
301 301 300 300 301 301 301 301 301 299 297 297 296 297 294 290 286 286 284 284 284 282 285 285 286 288 286 290 286 284 283 282 276 279 278 273 280 283 286 285 286 286 285 286 286 285 284 284 284 283 284 284 282 282
301 300 300 300 300 301 300 300 300 300 298 294 289 287 285 284 282 281 276 279 280 283 286 285 285 285 286 287 284 283 278 274 281 275 273 276 282 286 286 286 285 286 285 281 283 283 284 282 282 280 281 281 279 280
300 300 300 300 300 299 299 300 298 295 291 284 282 281 279 278 278 276 277 279 282 285 285 285 283 283 283 281 281 277 278 279 274 269 271 277 284 285 285 284 282 283 279 279 281 282 280 279 280 280 278 278 276 277
300 300 300 300 299 299 299 297 296 292 286 280 278 274 275 278 281 284 285 285 285 286 285 283 281 278 279 274 279 276 275 273 272 270 272 280 283 283 282 283 282 280 278 278 282 280 278 277 277 279 280 278 277 277
300 299 297 299 299 299 297 295 291 288 281 277 274 275 279 281 280 282 284 284 285 284 282 280 271 270 271 273 273 274 271 268 270 270 278 281 282 282 282 282 282 282 282 282 282 281 281 278 278 281 281 280 278 277
298 293 299 298 297 296 295 289 285 280 277 273 273 280 275 274 276 273 284 284 285 282 278 269 267 269 272 266 268 272 267 270 273 275 277 281 282 282 282 282 280 280 282 282 282 281 282 281 278 276 278 282 280 281
294 297 298 298 295 294 290 285 279 278 276 276 273 272 280 275 276 273 280 279 279 276 275 274 274 266 264 264 265 270 273 274 275 276 279 280 281 282 282 281 282 282 282 282 279 280 279 276 278 281 281 282 282 284
296 297 297 297 293 285 282 282 282 275 275 275 275 275 274 272 274 278 276 276 282 283 280 275 264 267 268 271 269 268 268 271 276 279 279 281 281 281 281 282 282 282 282 281 281 281 281 281 282 282 281 282 283 284
296 295 295 294 292 282 276 281 282 278 275 277 276 275 274 274 277 278 276 273 277 278 279 277 272 272 273 275 277 276 277 278 276 276 279 279 280 281 281 282 282 282 281 280 278 275 278 281 283 280 279 284 284 284
293 292 292 290 283 281 278 275 275 276 278 276 276 275 272 276 277 277 272 277 275 274 274 277 275 278 280 279 280 280 280 280 279 278 278 279 280 280 281 282 281 278 276 275 274 278 279 282 283 283 284 285 285 285
290 292 286 285 277 274 275 277 276 276 273 273 272 272 266 266 270 276 274 279 279 277 279 279 281 280 280 280 281 281 282 282 281 280 278 279 277 277 277 278 274 275 274 275 277 277 281 283 282 284 284 284 285 283
290 287 279 274 271 269 270 277 270 274 269 268 268 268 266 264 269 277 277 279 277 279 280 280 281 282 282 283 282 282 282 281 280 280 279 279 279 278 277 276 274 277 277 279 276 276 280 283 283 284 285 284 284 282
288 275 270 269 267 268 268 276 273 269 266 266 265 264 267 266 271 274 271 269 276 277 279 281 281 279 278 280 279 281 281 280 279 277 277 276 277 278 277 276 274 274 280 279 278 278 279 281 284 283 283 281 279 279
275 272 269 271 276 271 268 274 272 268 264 259 263 262 265 265 265 263 265 271 269 271 275 276 276 278 277 276 275 277 278 279 278 277 280 277 276 274 275 275 276 280 281 271 278 280 281 282 281 281 281 282 280 278
266 272 267 265 274 266 265 262 268 266 259 260 265 264 259 260 262 265 270 270 268 272 268 269 271 271 274 278 277 276 280 277 276 274 278 277 277 277 275 280 280 281 278 279 280 280 280 281 280 280 280 280 281 281
266 271 277 276 274 271 264 262 265 262 259 263 262 260 261 262 263 270 274 274 275 276 277 277 277 278 278 279 278 278 274 274 276 278 276 279 282 283 282 280 277 277 277 280 280 280 280 280 279 279 279 280 281 282
269 270 271 275 273 268 263 260 261 263 265 269 265 263 265 266 268 274 276 278 277 277 277 278 278 277 276 276 276 272 279 278 274 276 274 274 275 273 274 273 273 279 279 280 279 281 280 277 277 278 278 278 279 281
276 273 269 269 266 264 267 268 267 270 274 273 269 267 269 273 274 274 274 273 272 274 273 273 274 271 274 273 272 279 282 281 279 277 273 268 273 274 274 275 278 279 280 279 273 272 272 270 268 267 271 275 276 277
272 269 267 262 265 267 271 274 269 268 269 271 270 273 275 272 268 271 271 273 274 276 277 277 279 279 279 279 277 277 273 274 275 275 270 269 269 270 272 272 275 278 278 276 275 270 269 266 267 266 268 269 271 271
264 264 266 264 265 267 268 262 259 260 261 266 268 273 276 271 270 269 269 268 270 271 270 268 270 270 270 270 271 270 271 269 269 269 268 268 269 271 271 271 271 271 271 274 272 265 261 260 260 260 268 265 264 264
271 264 264 262 265 265 259 260 259 260 263 260 271 262 262 264 264 267 269 268 267 266 267 267 266 267 270 272 272 272 272 271 269 269 269 269 268 268 267 267 265 263 261 263 261 260 257 257 257 260 261 262 262 262
256 255 253 256 261 262 259 262 260 260 257 256 257 257 256 262 261 265 268 269 268 267 266 267 268 269 271 271 270 270 270 270 270 270 270 268 266 265 263 260 258 257 259 259 258 256 257 256 256 256 258 258 258 258

GFSWCAN_sfc_thetae_024.txt.gz
Theta_e
306 307 306 306 306 306 306 306 307 307 307 308 308 308 307 307 308 319 317 317 315 306 307 309 308 306 306 308 304 305 304 303 297 290 289 290 288 294 292 293 290 291 288 286 286 283 282 298 297 291 297 301 301 302
305 305 305 305 305 305 306 306 306 306 307 307 308 308 307 307 307 312 317 316 316 314 309 313 314 314 313 310 309 307 305 304 306 298 292 292 289 287 292 289 295 290 294 292 292 292 300 302 299 302 304 302 299 293
304 304 305 305 304 305 305 305 305 305 306 306 307 308 308 307 308 313 317 316 315 306 309 311 309 312 316 316 316 308 307 307 305 307 302 295 288 297 287 291 295 298 299 294 294 297 299 302 304 301 300 295 294 293
303 303 303 305 304 304 304 305 305 305 305 306 306 307 307 308 307 312 318 314 313 303 290 305 308 308 311 315 315 315 310 308 307 307 291 290 291 301 296 297 294 298 299 296 296 298 300 301 301 296 292 292 292 292
302 302 302 303 304 304 304 304 304 305 305 305 306 306 307 307 308 316 319 317 317 313 297 303 307 307 308 311 313 313 312 309 302 294 291 294 302 297 297 294 291 300 298 293 292 299 297 295 292 293 290 289 291 291
302 302 302 302 303 303 303 304 304 304 305 305 306 306 306 307 308 318 312 318 318 317 302 294 306 303 304 308 310 309 310 309 305 301 294 302 302 300 287 288 298 301 303 303 297 300 296 292 292 291 290 291 292 292
301 302 302 302 302 303 303 303 303 304 304 305 305 305 306 306 315 311 308 310 310 316 297 292 295 300 300 303 304 305 305 306 306 300 293 298 298 299 287 287 295 294 294 295 299 296 290 292 288 292 292 293 293 292
301 301 301 301 302 302 302 302 303 304 304 305 305 305 304 304 304 310 310 306 311 305 301 288 291 296 300 296 293 298 296 296 295 297 290 292 293 291 287 293 292 292 290 290 291 296 294 293 292 293 292 291 289 289
300 300 300 301 301 301 302 302 303 304 305 305 305 305 305 303 298 300 302 305 307 306 290 288 290 289 299 294 294 294 296 289 293 288 289 291 288 288 290 289 289 290 291 291 291 292 290 289 288 289 289 289 288 288
301 301 300 300 301 301 302 302 302 303 304 304 304 299 289 294 302 303 300 294 291 288 288 287 292 290 298 292 291 292 291 288 286 288 291 286 287 287 290 291 292 292 291 292 289 285 286 287 287 287 288 289 288 288
301 301 300 301 301 302 302 301 302 303 303 298 291 288 296 301 297 291 287 287 286 285 287 288 288 288 293 289 287 288 286 287 284 288 288 286 286 288 291 290 291 291 290 289 290 289 289 288 288 288 288 288 288 288
301 301 300 301 301 302 302 301 301 300 298 297 296 297 294 291 286 286 285 285 285 286 287 287 287 289 287 291 287 286 286 286 283 290 284 283 289 290 290 288 289 290 289 289 289 288 289 288 289 289 288 288 288 287
300 301 300 301 301 301 301 301 301 299 299 297 288 286 286 285 284 284 282 284 285 288 289 287 285 287 287 290 286 286 284 284 287 282 283 287 289 290 289 289 289 290 289 287 288 289 289 289 289 287 286 287 286 286
300 300 300 301 300 300 299 300 298 297 295 287 285 283 284 284 285 286 287 288 288 288 288 289 286 288 287 285 286 283 283 285 280 279 282 286 289 290 291 290 288 288 288 286 287 288 287 286 286 286 285 285 284 284
299 300 300 299 300 300 298 297 295 295 291 285 286 282 283 284 286 286 287 288 288 290 291 288 287 289 285 283 285 282 280 279 281 282 286 290 291 290 288 289 289 288 286 285 287 287 286 285 285 286 287 287 286 285
300 300 299 299 298 297 296 295 293 292 286 286 284 282 283 285 284 285 286 286 288 286 286 288 284 283 282 283 280 280 279 279 283 287 290 291 288 287 288 288 287 287 286 286 287 287 287 286 285 286 287 286 285 285
299 295 299 298 296 295 295 293 293 285 285 285 282 285 284 285 286 286 288 289 288 287 285 284 281 280 281 280 279 282 281 285 288 288 288 288 287 287 287 287 286 286 286 287 288 288 287 288 287 285 285 287 287 286
295 299 298 298 298 297 293 290 288 287 281 282 283 283 284 285 285 285 286 289 288 286 284 282 282 279 279 278 280 284 285 287 287 287 287 288 288 288 288 287 287 288 288 287 287 287 287 285 285 288 288 288 287 286
297 298 298 297 296 293 288 288 288 282 281 283 282 283 284 284 283 284 286 287 288 288 285 283 280 280 280 282 285 286 286 287 287 287 287 288 288 287 286 287 286 287 287 287 288 288 288 287 287 288 288 287 285 284
297 295 294 294 294 289 284 285 288 284 282 283 284 283 283 283 283 284 285 287 287 287 284 282 282 285 285 286 286 287 287 287 286 285 285 287 287 287 287 287 288 288 288 288 288 286 287 288 289 288 287 286 284 284
293 293 292 292 288 287 285 284 283 284 283 282 282 284 281 283 282 282 283 285 285 284 282 286 287 288 288 287 288 288 287 287 286 286 286 286 288 288 287 288 288 288 288 288 287 287 286 287 287 286 285 285 286 286
290 292 288 289 285 284 283 283 284 283 283 282 282 283 282 282 280 281 283 282 282 285 286 287 287 287 287 287 288 288 288 288 288 287 285 286 285 287 287 288 288 288 288 288 287 287 287 287 286 285 283 283 284 285
290 288 284 285 282 282 279 284 281 281 279 279 281 280 280 281 280 281 279 281 284 286 287 287 288 288 287 288 287 287 288 286 287 287 287 287 288 288 288 288 288 287 286 287 288 287 287 286 285 284 284 283 283 283
287 282 279 278 280 276 280 279 280 279 280 279 278 276 277 279 278 277 276 280 284 286 285 286 287 286 287 285 285 287 287 288 287 287 288 287 287 288 289 288 288 288 287 287 286 286 285 285 284 284 284 283 283 283
281 277 279 275 278 275 275 276 275 277 274 274 274 276 277 277 277 275 276 281 284 285 286 286 285 285 285 286 287 287 287 286 286 287 289 289 288 287 288 289 288 288 288 285 284 284 284 284 284 283 283 283 281 281
274 276 276 275 275 275 274 273 274 274 274 273 274 275 276 277 275 276 279 283 285 285 285 286 287 286 285 286 285 286 288 288 287 286 288 288 287 287 286 284 284 284 287 285 283 282 281 281 281 281 280 280 280 279
273 274 278 279 278 275 274 274 275 275 272 273 276 274 276 273 274 279 282 280 282 282 283 284 283 283 283 284 285 286 287 286 285 286 287 287 287 287 285 283 282 283 285 284 283 282 281 281 281 280 280 280 280 279
277 278 274 276 276 277 274 274 274 274 277 277 277 273 274 275 277 278 277 276 277 279 281 281 282 279 280 282 282 283 283 284 284 284 284 284 284 282 281 282 282 280 283 284 283 282 281 280 280 280 279 279 279 278
278 278 278 273 274 275 277 278 278 279 280 279 278 278 278 277 272 272 273 274 276 275 274 273 275 276 278 278 279 279 277 277 276 277 278 280 282 278 278 278 279 280 280 281 280 280 279 279 279 278 277 277 277 276
276 280 276 274 273 275 281 281 282 281 281 282 282 281 278 271 270 272 272 272 271 270 271 271 272 272 271 272 272 274 275 274 274 273 273 273 273 275 275 275 275 276 276 278 279 279 277 277 276 276 274 273 273 272
278 279 277 277 276 280 279 274 276 276 278 280 278 280 278 270 270 270 269 270 270 270 269 269 270 271 271 271 270 270 270 272 271 271 271 273 272 272 272 271 272 273 274 275 275 275 274 274 273 272 270 268 267 267
277 276 275 273 276 277 274 275 276 276 276 276 276 274 272 271 266 268 268 269 268 267 266 267 267 268 271 271 271 271 269 269 269 268 268 268 268 268 269 269 269 271 272 272 271 271 270 270 269 268 268 266 265 264
270 271 270 271 274 274 274 272 273 272 274 273 271 270 268 268 263 266 270 269 267 267 266 266 268 268 270 270 269 269 269 269 268 267 266 266 265 264 265 267 267 268 269 269 269 268 267 266 265 265 263 262 262 261

GFSWCAN_sfc_thetae_027.txt.gz
Theta_e
307 307 306 306 306 306 306 307 307 307 305 309 309 308 308 308 308 320 321 323 320 313 312 313 312 310 310 310 306 309 307 307 306 291 290 294 291 297 295 296 293 290 288 287 289 285 283 300 299 293 299 304 301 300
305 306 305 305 305 305 306 306 306 307 307 308 309 308 308 308 308 311 319 322 323 317 314 318 318 318 316 315 313 312 307 308 308 302 295 297 292 292 294 291 299 292 296 293 294 294 302 303 301 304 305 301 299 294
303 304 305 305 305 305 305 305 305 306 307 307 308 309 308 308 308 313 321 322 322 314 313 314 312 316 319 320 321 311 313 311 311 314 306 298 289 299 288 294 297 299 302 297 296 299 299 301 304 303 301 298 296 296
303 303 303 305 304 304 305 305 305 305 306 307 307 308 309 308 309 314 321 322 319 309 293 309 312 313 315 319 319 319 315 315 314 312 295 293 291 305 299 300 298 300 301 298 297 300 301 300 298 297 295 294 293 294
302 302 302 303 304 304 304 304 304 305 305 306 307 307 309 309 310 320 323 322 321 315 301 308 311 311 312 315 315 316 314 312 310 297 291 294 306 304 303 300 297 302 299 296 293 299 298 295 295 294 292 293 293 293
302 302 302 302 303 304 304 303 304 304 305 305 306 307 307 308 309 321 314 322 322 321 308 297 310 307 309 312 313 312 313 311 311 304 296 306 306 303 289 291 299 302 304 303 300 298 295 294 293 293 293 294 294 294
301 302 302 302 302 303 303 303 303 304 304 305 305 306 306 307 320 313 309 314 310 322 304 294 300 305 305 309 310 310 308 307 307 306 300 303 303 302 293 290 299 300 299 299 299 297 290 291 293 295 295 295 294 293
301 301 301 301 302 302 303 302 303 304 304 305 305 304 304 304 306 313 315 310 313 313 308 289 294 299 304 300 297 304 301 302 303 303 296 297 302 299 290 298 300 298 295 294 296 298 298 297 295 295 294 293 291 290
301 301 301 301 301 302 302 303 303 304 304 304 304 305 308 306 303 313 303 309 315 311 292 288 289 288 303 297 297 297 301 291 297 289 291 295 291 290 296 297 294 293 293 293 295 295 293 291 290 291 291 291 289 289
301 300 300 301 301 302 302 302 302 303 304 304 306 302 290 296 303 304 306 298 296 297 294 290 302 293 300 294 292 292 294 291 287 290 292 286 287 290 294 296 296 295 295 295 293 289 289 288 289 289 289 290 290 289
301 301 300 301 301 302 302 301 302 303 304 299 291 288 298 302 300 293 288 289 288 286 289 294 297 294 298 292 290 293 287 288 286 289 289 288 288 293 294 293 294 295 295 292 292 291 291 290 289 289 290 290 290 289
302 301 301 301 301 302 301 301 301 301 298 297 296 298 296 292 287 288 286 286 286 288 288 287 288 291 289 294 288 286 286 286 285 293 286 283 292 294 294 293 293 293 292 291 291 290 290 290 291 290 290 289 289 289
301 301 301 301 301 301 301 300 300 300 300 296 289 286 286 285 284 284 283 286 286 287 288 287 285 287 287 290 285 286 285 286 291 284 284 290 292 293 293 293 292 293 291 289 289 290 290 290 290 289 288 289 288 288
301 300 301 301 300 300 298 298 298 298 295 286 285 284 285 284 286 287 289 289 289 289 289 287 286 286 287 286 286 285 286 288 282 280 283 291 292 293 293 293 292 291 289 288 289 289 289 289 289 289 287 287 286 286
300 300 301 300 299 299 297 296 296 297 292 286 286 283 284 286 287 287 287 289 289 291 291 289 289 291 287 285 287 285 282 281 283 285 290 293 293 292 292 291 291 290 289 288 289 289 288 288 288 288 289 289 289 287
300 300 301 299 300 297 297 296 295 296 290 287 286 284 286 286 285 286 286 286 290 291 292 291 287 285 284 286 283 282 282 281 286 290 293 294 292 291 291 290 289 289 288 288 289 288 289 289 287 289 290 288 286 286
300 297 299 298 297 297 297 295 293 287 287 287 284 288 287 287 286 286 289 288 290 289 285 287 283 282 284 283 281 286 284 287 291 292 293 292 290 289 289 289 288 288 289 289 289 289 289 290 289 288 286 289 290 290
298 299 298 297 298 296 294 294 291 290 284 286 286 286 287 288 287 287 289 289 289 287 287 284 285 281 281 280 283 288 289 291 292 292 290 289 290 290 290 290 289 289 289 289 289 289 289 288 288 289 289 290 290 289
299 299 298 298 298 296 292 291 293 285 285 287 286 287 287 286 286 288 288 290 290 291 288 286 283 282 283 285 287 290 291 290 289 289 290 291 291 290 289 289 289 288 288 289 289 289 290 290 290 290 290 290 287 287
296 295 294 295 297 292 288 289 294 288 286 286 288 287 286 285 285 285 286 290 290 289 286 284 284 287 288 289 290 290 290 291 289 288 288 289 290 290 289 289 289 290 290 290 290 288 290 290 291 290 290 287 286 285
293 292 293 294 291 291 289 288 287 288 287 286 287 288 284 286 284 284 285 289 287 286 284 287 289 291 292 291 291 291 290 290 288 288 288 287 290 290 290 290 290 290 290 290 291 290 289 290 291 289 287 285 285 285
290 293 290 292 286 287 286 287 287 288 287 286 286 288 284 283 283 283 285 284 284 287 288 289 289 290 289 289 290 291 291 291 291 290 287 288 288 289 289 290 290 290 291 291 291 290 290 290 289 287 286 286 286 286
290 289 288 289 285 285 281 289 284 284 282 282 285 283 283 283 283 284 281 285 286 290 290 290 290 290 290 290 290 290 290 289 289 289 290 290 291 291 291 291 292 290 289 290 291 290 288 287 287 285 286 285 285 285
289 285 283 282 284 279 284 282 284 283 283 282 281 279 280 283 281 281 280 284 288 289 288 288 289 288 289 288 288 288 289 290 290 290 291 290 289 290 291 290 291 291 291 289 289 287 288 286 285 285 285 284 284 284
283 279 281 277 281 280 279 279 279 281 278 279 279 279 280 281 279 279 279 284 288 287 287 289 288 288 287 287 288 289 291 290 288 288 290 292 291 291 290 290 291 291 291 287 286 285 285 285 285 284 284 284 282 281
277 278 279 279 278 279 279 277 277 278 279 277 278 281 281 281 277 278 281 284 285 284 283 284 285 286 286 288 286 287 288 289 288 287 288 290 288 287 287 286 287 289 291 288 286 284 283 283 282 281 282 282 282 281
277 277 280 282 282 280 279 280 281 280 277 277 279 278 279 275 277 281 283 279 281 281 281 283 282 282 281 282 283 283 283 283 283 282 284 285 286 287 285 284 284 286 286 286 285 284 282 281 281 281 281 281 281 281
280 280 276 279 280 282 278 279 278 278 280 282 282 277 276 277 279 278 277 278 279 280 281 281 281 279 279 279 279 280 279 280 281 283 284 287 286 281 281 281 282 281 283 284 284 283 282 281 281 281 280 280 279 280
279 281 281 276 278 279 280 280 281 283 285 283 281 280 281 276 275 275 275 277 278 278 276 276 276 277 278 278 279 279 277 276 274 272 272 275 275 276 278 278 278 279 279 280 281 281 280 279 279 279 278 278 277 278
278 282 279 277 276 278 283 285 284 284 286 286 286 282 277 274 273 275 275 275 274 273 274 274 275 274 273 273 273 274 277 275 273 271 270 270 272 275 275 275 274 275 275 277 278 279 280 279 279 279 276 275 275 274
281 281 280 280 280 282 281 281 282 282 283 284 282 282 277 273 272 273 273 273 273 273 272 272 272 273 272 271 271 270 270 274 272 271 271 271 272 272 272 271 273 273 274 274 275 276 274 276 275 274 273 271 270 270
280 278 279 276 279 281 282 281 281 281 282 280 279 278 275 274 271 271 271 272 272 270 269 269 269 269 271 272 272 272 271 271 271 270 270 268 269 269 269 270 271 271 271 272 274 273 273 272 272 271 271 268 267 266
277 278 277 277 278 277 279 278 277 276 278 277 275 274 273 273 268 270 272 272 270 269 268 269 270 271 271 271 271 272 271 271 271 270 269 268 267 267 266 268 266 266 268 270 271 271 270 269 268 267 266 265 264 263

GFSWCAN_sfc_thetae_033.txt.gz
Theta_e
307 306 306 306 306 306 304 305 306 305 306 310 308 308 307 308 309 316 313 318 315 303 307 312 312 307 309 306 294 302 296 296 291 286 281 284 284 286 286 292 286 282 280 282 283 278 276 298 298 287 292 296 296 294
306 306 305 305 305 305 304 306 305 305 307 309 309 308 308 308 309 311 311 318 319 311 308 313 312 313 313 312 306 303 299 302 299 290 289 287 286 287 285 282 295 285 289 284 286 284 294 298 297 298 298 295 295 295
305 305 305 305 305 305 306 306 306 307 308 308 311 309 308 308 309 312 314 316 314 303 306 307 306 311 314 314 316 302 301 307 305 304 294 293 286 289 281 284 288 294 299 288 290 295 296 297 297 298 297 294 295 295
304 304 304 304 304 305 305 305 305 306 307 308 309 310 308 308 309 314 314 316 309 302 289 301 311 308 313 315 314 313 310 309 306 299 290 289 286 296 286 289 289 293 297 293 290 294 296 296 296 295 295 295 294 296
302 303 303 304 304 304 305 305 305 305 306 307 308 309 307 308 308 316 316 316 315 308 292 294 308 309 311 312 312 313 310 306 297 291 287 287 289 291 288 290 287 298 294 286 285 296 295 293 294 295 292 292 294 292
302 302 302 303 303 304 304 304 304 304 305 306 306 308 308 308 308 316 307 313 312 314 295 290 304 304 306 308 309 308 308 305 302 294 289 296 303 293 286 284 296 299 299 299 297 296 295 294 294 295 296 295 293 291
301 301 302 302 303 304 304 303 303 304 305 305 305 306 306 306 309 306 302 307 305 310 293 288 294 300 303 305 303 303 303 301 300 293 290 292 294 294 286 286 295 298 299 297 296 294 290 291 292 297 296 295 292 290
301 301 302 302 302 303 303 303 303 303 304 304 305 305 304 304 305 307 307 307 307 302 296 287 288 290 302 292 290 298 293 297 297 294 292 290 291 288 286 294 297 299 297 295 295 297 295 296 296 295 295 290 288 287
300 301 301 301 301 301 302 304 304 304 304 304 305 307 308 305 302 305 304 304 309 302 287 287 285 284 299 293 291 291 295 287 293 287 288 292 287 288 292 295 296 295 294 295 297 298 296 295 290 289 288 288 286 286
300 301 301 301 301 301 302 303 303 304 304 305 307 302 290 296 302 305 303 296 292 291 290 288 292 289 295 288 287 288 287 286 285 287 292 286 287 292 295 296 295 294 296 296 292 290 289 288 287 287 287 287 287 285
301 301 301 300 301 302 302 302 303 303 303 301 293 288 296 302 300 292 287 287 288 288 288 292 291 291 295 287 286 288 286 286 284 286 287 285 285 290 293 293 294 296 296 296 293 290 289 288 287 286 286 286 284 284
301 301 301 300 300 301 302 302 302 299 298 297 297 298 295 291 288 288 286 286 286 287 287 287 288 291 288 293 287 286 285 285 282 289 285 282 286 290 291 292 294 296 294 291 290 288 288 288 288 285 284 283 284 283
300 301 300 299 299 300 300 300 300 299 299 296 291 288 287 285 285 286 285 285 285 285 287 286 285 286 287 288 285 285 284 284 287 284 280 283 291 292 292 292 290 288 287 287 288 289 288 287 286 283 283 283 279 282
300 300 300 299 298 298 299 299 299 298 294 286 285 283 284 283 283 283 284 285 286 286 286 286 285 285 285 285 285 283 284 284 282 277 276 286 291 292 291 291 289 286 283 285 285 285 283 283 282 280 279 280 277 280
300 300 299 299 298 298 299 299 299 297 290 285 286 282 282 284 285 285 285 286 286 287 286 285 285 285 284 283 284 283 280 279 281 281 284 287 289 288 288 289 286 284 280 282 284 282 279 278 280 282 282 283 283 280
300 300 296 298 299 299 299 297 294 293 287 286 285 283 284 285 284 285 285 285 286 286 286 286 284 284 282 283 281 281 280 279 282 284 287 288 288 288 287 286 285 285 284 284 284 284 284 280 279 283 284 281 280 280
299 297 299 299 298 296 298 293 288 286 285 285 283 286 286 285 284 285 285 285 288 286 284 284 281 279 283 280 280 284 281 283 285 285 287 287 286 286 285 285 283 285 285 285 285 285 285 285 281 280 281 285 284 284
297 298 299 298 297 296 294 292 286 282 280 285 284 284 285 285 285 285 286 286 285 283 283 281 283 280 279 277 280 283 283 284 285 285 285 286 286 286 287 286 288 286 285 284 284 284 284 280 282 283 284 285 283 282
298 297 297 297 297 292 287 285 288 281 284 282 284 284 284 284 285 285 286 285 285 285 284 281 279 278 279 282 283 283 283 283 284 284 285 286 286 286 286 286 285 285 284 284 284 283 283 285 284 284 284 282 279 282
295 295 295 296 296 287 284 282 289 282 280 283 284 283 283 282 284 285 285 285 283 284 281 279 280 282 282 283 284 283 285 286 284 282 282 284 285 285 285 285 284 285 284 285 284 281 283 283 283 283 282 282 282 281
294 293 294 294 290 289 286 285 284 285 283 283 284 281 281 283 283 283 284 284 283 277 279 281 281 283 286 285 286 286 285 285 283 282 281 281 284 283 284 284 284 283 282 282 281 283 281 282 284 283 282 277 279 277
291 293 287 289 285 285 282 285 285 284 284 283 283 283 281 280 280 281 284 279 277 280 282 281 284 284 284 285 286 286 286 286 285 284 282 281 281 281 282 282 281 280 281 281 282 284 283 283 284 282 283 285 283 280
291 289 285 285 283 281 277 284 281 282 279 281 283 280 280 280 281 281 280 279 280 283 283 285 286 286 284 285 285 285 285 284 281 282 283 282 281 281 282 282 281 280 281 282 282 282 282 280 281 283 284 282 275 277
289 284 282 283 283 279 280 277 280 279 277 277 279 275 278 279 277 275 273 276 281 282 282 283 284 283 284 284 281 280 281 281 281 281 281 281 280 281 281 281 282 281 280 281 282 282 283 284 285 284 282 277 273 270
282 280 281 278 280 279 276 273 275 277 274 275 273 272 275 277 273 271 271 279 279 277 278 280 281 282 279 279 279 279 279 278 277 276 278 278 276 277 277 279 279 279 278 277 277 278 279 282 284 282 276 274 278 275
278 280 278 278 279 276 274 270 272 274 275 273 274 276 275 272 269 268 277 277 277 278 278 278 276 276 277 277 275 275 276 277 275 273 275 277 277 274 272 271 271 272 274 276 275 274 275 277 280 279 274 274 277 278
276 277 279 281 282 280 276 277 278 277 272 269 273 269 268 264 265 274 277 277 277 278 280 279 277 276 275 275 276 278 277 274 272 274 275 278 276 274 272 270 269 271 273 273 272 272 273 274 277 276 276 277 279 278
277 276 272 277 276 278 273 275 274 275 275 277 274 267 266 267 271 275 276 277 277 279 279 277 276 276 276 276 276 274 268 267 269 269 270 274 272 268 269 270 270 271 269 271 271 272 272 273 274 275 276 276 276 275
279 281 279 274 276 277 276 275 275 279 281 278 271 270 274 274 272 274 274 276 276 276 273 273 269 269 269 269 267 270 268 263 263 261 260 261 263 264 267 268 267 267 267 268 269 270 272 272 274 273 275 274 273 270
278 281 278 275 272 275 279 281 281 281 280 279 278 275 273 272 271 273 273 272 269 267 271 268 268 265 261 261 262 263 266 265 260 260 259 258 263 266 265 265 265 265 265 266 265 265 269 272 273 274 271 269 269 266
280 280 279 278 277 279 279 280 281 281 281 281 280 275 270 268 268 267 267 270 271 263 263 262 261 261 260 259 261 259 260 260 261 265 264 261 264 260 260 263 263 264 265 263 262 263 264 269 270 269 266 265 265 263
279 278 277 271 276 276 280 279 279 279 279 278 275 272 266 266 263 264 263 266 265 261 260 259 259 260 260 262 261 259 266 262 259 260 264 264 262 262 262 261 263 263 260 260 262 262 265 266 265 264 263 262 261 260
275 273 272 270 269 269 270 269 269 268 268 267 269 268 265 264 261 263 265 264 262 260 259 259 259 259 262 261 258 260 259 258 260 267 264 266 262 260 260 262 263 261 258 260 261 264 263 263 261 260 259 258 257 257

GFSWCAN_sfc_thetae_036.txt.gz
Theta_e
307 306 306 305 305 305 304 305 306 306 306 308 307 307 307 307 308 311 311 313 310 299 305 309 309 304 304 300 293 299 295 293 289 282 278 279 282 284 284 290 285 283 279 276 277 271 276 295 295 287 290 294 294 293
306 305 305 305 304 304 304 304 304 306 308 308 307 307 307 307 308 312 307 314 315 307 306 310 310 310 311 308 303 299 296 297 294 288 284 288 285 287 283 281 292 284 287 283 285 284 291 296 294 296 297 293 293 293
305 305 305 304 304 303 304 303 303 306 307 308 308 307 307 307 309 313 311 312 308 299 303 305 304 310 312 311 312 299 298 305 301 296 291 285 281 287 282 284 287 292 296 287 288 293 295 295 296 296 296 294 295 296
305 304 304 304 304 304 305 305 306 306 306 307 307 306 307 307 309 312 310 311 304 298 288 299 309 306 311 312 313 310 307 304 300 295 290 289 283 292 283 286 287 290 295 291 288 293 294 295 294 294 294 295 295 295
304 304 304 304 304 304 305 305 305 305 306 306 307 307 307 307 309 313 311 309 310 300 292 291 305 308 308 310 310 309 306 302 295 289 287 287 287 288 283 287 285 296 292 286 286 294 293 292 293 294 294 293 294 293
303 303 303 303 304 304 304 304 305 305 305 305 306 307 306 306 310 310 302 310 308 307 294 287 301 301 304 308 307 306 306 302 297 292 288 293 299 289 286 286 294 298 299 298 295 296 294 293 294 296 294 294 295 290
302 302 303 303 303 303 304 304 304 304 304 305 305 304 304 306 306 303 298 305 305 304 292 288 287 297 301 303 300 300 300 298 298 290 288 289 291 292 285 284 293 296 297 296 295 294 290 291 292 297 296 293 290 288
301 301 302 302 303 303 303 303 304 304 304 305 305 304 304 306 306 304 304 304 304 297 292 286 289 288 298 289 289 294 290 292 294 293 289 286 289 287 286 292 295 296 295 294 294 295 294 295 296 295 293 289 287 286
301 301 301 301 302 303 303 303 304 304 305 305 306 305 305 302 300 302 302 302 303 298 287 283 283 284 296 292 289 288 292 286 291 287 288 288 287 286 291 293 294 294 293 293 296 296 296 295 292 289 287 287 286 285
300 300 300 301 301 302 303 303 304 304 305 305 304 298 290 296 302 303 299 293 291 290 289 284 288 287 293 286 286 286 286 286 285 285 291 286 287 290 292 294 294 294 295 297 293 289 288 286 287 287 287 287 285 284
300 300 300 301 302 302 302 303 303 304 304 302 294 289 296 301 298 292 287 287 288 288 288 291 287 289 293 286 286 285 285 285 283 284 286 284 285 288 291 292 295 295 295 294 291 289 289 288 286 286 285 285 283 283
300 300 300 300 301 301 302 301 301 299 298 299 297 298 296 290 287 287 286 286 286 287 287 287 287 290 288 289 287 286 285 285 281 286 285 282 286 289 291 293 294 292 290 289 289 288 287 287 286 284 283 282 283 282
300 299 299 299 300 300 300 300 300 300 299 297 291 287 289 286 286 286 285 284 285 285 286 286 286 286 287 288 285 285 284 283 287 284 281 283 289 291 291 288 288 288 287 287 288 288 286 285 285 283 282 283 278 281
299 299 298 298 299 299 299 300 299 298 294 287 286 283 285 282 283 283 284 285 285 285 285 285 285 285 285 285 285 283 284 284 281 276 274 286 290 291 290 288 286 285 282 284 284 285 283 283 281 279 277 278 275 279
300 299 299 298 299 299 299 299 299 296 290 285 286 281 281 283 284 285 285 285 285 286 286 285 285 285 284 283 284 282 280 278 280 279 283 286 289 287 287 287 285 283 281 283 284 281 278 277 278 281 281 281 282 279
299 298 296 298 298 298 298 296 293 290 286 284 285 282 284 284 284 285 285 284 286 285 286 285 284 283 281 282 280 280 279 277 279 284 286 288 287 286 285 285 284 285 283 283 283 283 283 278 277 282 283 281 279 278
299 295 298 299 298 298 297 291 286 286 284 284 283 286 285 285 284 285 285 285 287 286 283 284 279 277 282 279 279 282 279 282 285 285 287 287 286 285 284 285 283 284 285 284 284 284 284 284 280 279 280 284 283 283
293 297 298 298 297 296 291 288 285 282 282 284 283 283 284 284 284 285 285 285 283 282 281 279 282 278 278 277 279 282 283 284 285 286 286 286 286 285 286 285 286 285 284 284 283 283 283 280 281 283 283 284 283 282
294 295 297 297 295 288 283 284 285 280 282 283 283 284 284 284 284 285 284 284 282 283 282 280 276 275 277 281 281 281 281 282 283 284 284 285 285 285 285 285 285 284 284 284 283 283 283 284 283 284 283 281 280 279
295 295 295 296 296 286 280 281 286 281 280 283 284 283 282 282 283 285 283 284 284 283 276 275 277 279 280 281 283 282 284 284 283 281 282 283 284 285 284 283 283 284 283 284 283 279 282 283 283 282 281 280 277 278
292 292 293 293 288 287 283 281 281 283 284 283 283 281 281 283 282 283 283 283 274 274 277 279 277 280 283 282 284 283 283 283 282 280 279 280 282 281 283 282 283 282 280 280 278 281 277 279 282 283 282 279 280 278
290 292 287 289 285 280 278 283 281 281 283 283 282 282 280 279 280 281 283 279 278 278 280 279 282 282 283 282 282 282 283 283 283 281 280 280 280 280 280 280 280 278 276 276 279 279 279 281 282 283 284 283 281 284
291 289 285 284 280 276 275 283 281 282 279 280 281 279 279 279 281 280 279 279 280 281 281 282 283 284 282 281 280 280 280 280 279 278 279 279 279 277 277 277 278 276 276 277 279 278 276 277 280 281 282 283 284 283
290 284 281 275 282 277 277 278 277 277 275 279 278 274 274 276 275 276 270 278 281 280 280 280 281 281 281 280 277 276 277 278 277 277 277 276 275 276 277 277 278 275 274 275 274 274 274 274 276 277 279 281 280 279
279 277 275 272 278 277 276 272 269 270 268 270 269 267 271 272 267 267 268 278 278 277 277 278 278 278 277 276 276 276 277 276 274 274 275 276 274 272 272 273 272 272 271 270 269 269 269 270 272 272 275 277 277 276
275 272 272 273 272 274 273 267 268 268 269 268 267 271 270 267 266 266 276 276 276 277 273 277 275 274 274 275 274 274 273 274 273 271 273 274 272 268 266 266 266 267 269 268 268 267 267 268 269 270 271 273 276 276
272 269 277 281 281 279 273 273 276 273 268 267 271 269 265 265 263 274 276 276 276 277 277 277 276 275 274 274 275 272 271 270 269 270 272 272 270 269 266 264 264 266 267 266 266 266 265 266 267 268 269 271 274 275
275 276 272 277 279 279 275 274 274 272 273 276 272 268 267 266 270 273 275 276 275 276 276 275 274 274 273 272 271 267 265 264 266 266 268 268 266 262 262 261 262 267 262 263 264 265 264 264 265 266 269 270 272 269
273 277 276 275 277 276 274 274 275 279 280 278 271 270 271 272 270 272 273 274 274 274 271 269 266 264 265 265 264 263 259 260 261 257 254 254 257 260 261 259 260 263 262 262 264 265 264 265 266 267 270 267 266 265
276 281 277 275 274 275 277 279 279 280 279 276 274 273 271 269 270 271 270 269 269 268 265 264 259 261 255 256 256 259 261 259 257 257 255 254 260 262 258 259 261 261 261 262 261 261 262 262 265 268 267 266 264 263
279 278 277 276 276 277 278 279 280 280 280 278 276 269 265 264 265 266 266 265 262 261 261 257 258 253 256 256 256 253 255 258 256 258 258 257 257 255 256 257 258 259 260 261 259 259 260 260 263 263 262 261 260 260
277 276 275 272 274 276 279 278 278 278 274 276 270 268 260 258 257 259 263 262 259 258 254 253 254 256 257 258 255 254 256 254 254 255 260 258 256 255 256 256 256 258 256 254 254 257 260 258 258 258 258 258 257 257
271 262 261 262 265 268 264 263 262 265 261 265 266 263 260 261 258 260 261 258 258 256 255 254 253 253 256 255 254 254 255 253 254 260 261 262 257 257 255 253 253 250 250 251 253 256 253 253 255 255 256 255 255 255

GFSWCAN_sfc_thetae_039.txt.gz
Theta_e
306 306 306 305 305 304 304 305 305 306 308 308 307 307 307 307 310 312 310 311 308 300 303 306 307 302 301 297 292 297 294 292 286 282 278 278 276 283 284 287 285 283 278 276 277 271 276 292 292 286 289 291 295 293
306 305 305 304 303 304 304 305 305 306 306 308 307 307 307 307 310 310 308 313 312 306 304 308 307 308 308 304 301 297 296 295 293 285 281 281 283 286 281 280 289 282 285 283 284 283 290 293 292 293 295 293 293 293
305 304 304 303 303 303 304 304 305 306 306 306 307 307 307 308 310 312 309 308 305 299 302 303 303 309 310 309 309 298 296 301 296 294 290 283 279 285 282 283 285 290 293 285 286 290 291 294 294 295 295 293 293 294
304 304 303 302 303 303 303 304 305 305 306 306 306 306 307 309 309 311 308 306 302 296 288 298 307 305 309 311 311 308 304 300 297 293 288 285 280 289 281 285 287 289 293 289 287 291 292 294 294 293 293 294 294 295
304 303 303 303 304 304 305 305 305 305 305 306 306 306 307 309 310 311 308 306 306 299 291 290 302 305 307 310 308 307 304 300 294 289 286 286 286 287 283 286 284 293 290 286 285 292 292 292 293 293 292 293 294 294
303 303 303 303 304 304 304 304 304 304 305 305 305 305 306 308 309 304 299 307 307 303 294 287 298 299 303 305 304 303 304 299 294 291 287 289 296 289 286 287 293 296 297 295 293 294 292 291 292 294 293 294 294 291
303 303 303 303 303 304 304 304 304 304 305 304 303 304 305 306 307 301 296 302 305 301 292 288 286 296 299 300 297 298 298 297 296 292 287 289 290 291 286 285 292 295 296 295 294 294 290 290 292 295 295 294 290 287
302 303 303 303 303 303 303 303 304 305 305 305 303 304 305 305 305 303 303 302 302 295 291 286 285 287 296 289 289 294 290 292 292 292 289 284 289 288 286 291 293 294 294 292 292 294 294 294 295 294 289 288 286 285
301 301 301 302 302 303 303 303 304 305 305 305 304 304 304 302 299 302 302 302 300 297 286 281 284 283 293 291 288 288 291 286 290 286 288 288 286 286 290 291 291 292 292 292 293 294 294 293 290 288 288 287 285 284
300 300 301 301 302 302 302 303 304 305 304 303 303 297 291 297 302 302 297 291 290 290 289 285 288 287 293 286 286 283 287 281 285 282 291 286 287 289 290 292 293 293 293 294 291 286 286 286 287 287 287 286 285 284
300 301 301 301 302 302 303 303 304 304 304 299 293 290 297 301 297 291 287 286 288 288 288 288 287 289 291 287 285 284 282 285 282 281 283 281 284 287 290 290 291 291 292 291 291 290 290 289 288 286 285 284 284 283
300 300 301 301 301 302 302 302 301 299 298 297 296 296 293 289 288 287 285 286 287 286 287 287 288 290 288 288 285 286 283 285 281 287 284 282 286 289 292 289 288 290 291 292 293 291 289 286 285 284 283 282 282 282
299 299 299 300 300 301 300 300 300 300 300 296 291 288 287 285 286 286 285 285 285 285 287 286 286 286 287 287 285 285 284 283 286 284 282 284 289 289 289 288 289 291 290 288 287 286 286 285 284 283 282 282 279 281
299 299 299 299 299 299 300 300 299 298 294 287 286 285 285 283 283 283 284 285 285 285 285 286 285 285 285 285 285 284 284 285 282 279 276 286 290 291 290 288 285 284 281 283 284 284 283 282 281 279 277 276 275 279
299 298 298 298 298 299 299 298 298 296 290 285 285 281 280 283 284 285 285 285 285 286 286 286 285 286 284 283 284 282 280 277 277 275 283 285 290 287 285 285 283 283 279 281 283 280 278 277 278 280 280 280 281 277
299 298 297 298 298 298 297 295 293 292 286 285 285 282 284 284 284 285 285 284 286 285 286 286 284 281 280 282 278 278 277 273 275 283 286 287 288 286 285 284 284 284 284 283 283 283 283 278 276 282 282 280 278 277
298 295 298 298 298 298 296 288 286 284 283 284 283 285 285 285 284 285 285 285 287 285 283 284 279 277 281 278 277 280 275 278 282 284 286 286 285 284 284 285 284 283 284 284 284 283 283 283 279 279 280 283 283 283
294 295 297 298 296 294 290 286 281 281 283 284 283 283 284 284 284 285 285 285 284 284 281 279 282 278 276 276 277 281 283 284 284 285 287 287 287 286 285 285 285 284 284 284 283 283 283 279 281 282 283 284 282 281
294 293 296 297 294 287 283 283 284 280 282 283 283 283 283 283 284 284 284 284 283 282 281 278 274 273 276 280 280 279 280 280 283 285 284 284 285 285 284 284 284 284 284 283 283 282 282 283 282 282 282 282 281 282
295 294 295 295 293 282 281 281 284 282 281 283 284 282 282 282 283 284 283 283 284 281 275 273 276 278 279 280 282 281 282 282 282 280 280 282 282 282 282 281 281 281 281 281 281 277 280 280 281 281 281 280 279 280
290 290 292 290 284 283 281 280 280 283 284 282 283 282 280 283 282 282 277 282 275 278 277 279 277 280 282 281 282 282 282 282 280 278 277 278 280 280 279 279 280 279 278 277 277 278 278 277 277 278 278 279 280 281
289 292 288 288 281 278 279 282 281 282 283 282 281 281 280 279 280 280 282 281 279 277 279 278 281 281 280 280 280 281 281 281 280 279 278 278 277 276 276 277 277 275 276 276 276 275 275 275 274 274 275 277 279 279
290 289 286 285 275 274 275 284 281 282 279 280 281 278 278 279 280 281 279 279 281 280 280 281 281 281 279 279 278 278 278 278 277 276 276 276 276 275 276 276 274 269 268 271 272 273 271 269 270 270 272 272 274 276
289 283 281 279 276 272 274 276 280 279 278 277 276 274 274 278 278 277 272 278 280 280 279 281 280 279 279 278 276 275 275 276 276 275 275 275 274 273 273 273 272 270 269 269 268 267 267 266 266 267 268 269 270 271
276 275 271 268 272 272 269 270 271 272 269 275 275 273 273 271 265 267 270 277 277 277 277 278 278 279 276 275 275 275 275 275 274 273 274 272 269 269 269 270 269 269 267 264 262 263 263 264 264 264 265 266 266 268
274 271 269 268 269 272 270 268 271 271 268 275 273 272 266 265 269 265 275 276 276 276 275 275 275 274 274 275 274 271 270 272 272 270 271 270 268 264 260 261 262 263 266 261 261 260 261 262 262 261 262 264 265 266
274 270 274 280 279 279 274 272 275 274 270 269 271 271 267 268 268 272 275 275 275 275 276 276 275 274 274 272 271 270 268 268 267 269 270 269 268 267 262 257 260 263 265 263 259 259 260 260 260 260 261 263 264 267
271 271 271 273 278 279 275 275 273 274 271 275 272 269 268 265 267 272 273 275 275 275 274 272 272 271 271 270 267 264 264 262 264 267 265 265 263 259 260 258 259 264 260 258 256 260 260 260 260 261 262 263 263 265
275 277 276 273 276 277 277 276 276 279 280 279 273 271 270 270 269 271 272 273 273 272 269 266 264 263 264 264 262 262 258 259 258 255 252 251 251 256 259 254 254 255 255 256 260 263 263 263 263 265 267 263 262 261
275 280 276 275 274 275 276 278 278 279 278 275 274 272 270 268 268 270 269 268 266 264 261 261 258 259 252 254 253 256 256 253 254 254 252 252 256 259 254 255 255 255 256 254 257 257 258 257 257 256 257 258 259 259
279 279 276 275 274 274 277 278 279 280 279 274 272 268 265 265 265 266 265 263 263 260 258 255 255 250 253 253 252 251 253 253 251 255 257 256 253 251 252 253 252 251 252 252 251 251 252 252 250 250 251 252 253 254
272 270 271 271 272 275 275 276 275 275 275 274 268 265 261 258 255 260 261 258 258 256 252 249 253 255 254 254 252 251 254 252 251 251 253 255 252 251 251 251 249 248 247 247 248 249 248 248 247 248 247 248 249 250
268 266 264 262 265 272 262 261 261 265 267 266 262 260 258 258 257 260 261 257 257 255 253 252 251 250 251 252 253 251 252 251 251 257 257 257 255 254 250 248 247 246 247 246 246 247 247 247 247 247 247 247 247 248

GFSWCAN_sfc_thetae_042.txt.gz
Theta_e
306 306 305 305 305 304 304 304 305 307 306 306 306 306 307 307 309 315 310 311 306 299 301 304 305 300 299 296 292 296 294 292 285 282 278 278 277 283 283 286 285 283 280 279 275 269 276 290 291 286 289 289 292 292
305 305 304 304 303 304 304 304 305 307 307 307 306 306 307 309 309 313 311 311 309 304 303 306 305 306 305 301 299 295 296 294 292 284 278 278 279 284 281 279 288 282 285 281 283 282 289 291 290 292 292 292 291 292
304 304 303 303 303 303 304 304 305 307 306 306 307 306 307 309 309 311 310 304 305 299 301 302 301 307 308 307 306 296 295 298 294 292 286 282 279 283 279 282 284 288 290 284 285 288 289 291 293 294 294 293 293 294
303 303 303 303 303 303 304 304 305 306 306 305 306 306 307 308 309 309 306 304 301 297 289 297 305 303 307 309 308 305 301 297 294 291 284 283 280 287 281 284 285 288 290 287 286 290 291 294 294 293 293 293 294 294
302 302 302 302 303 303 304 304 304 305 305 306 307 308 308 308 309 309 306 304 303 298 291 290 301 303 305 307 305 304 301 298 292 288 286 286 285 285 285 284 284 290 289 285 285 291 291 291 292 293 292 292 294 292
303 302 303 303 304 304 304 304 304 304 303 303 305 306 306 307 306 302 299 304 305 301 295 287 297 297 301 303 302 301 301 296 293 291 286 289 293 288 286 286 292 294 295 293 291 292 292 289 290 292 293 293 293 288
303 303 303 303 304 304 304 303 304 304 303 304 305 306 306 306 306 298 294 301 301 299 292 287 286 294 296 298 295 295 295 294 294 291 287 289 290 290 286 284 291 294 294 293 292 292 288 289 290 294 293 290 289 287
303 303 303 303 304 303 303 303 304 304 303 304 305 305 305 305 304 302 302 302 301 294 291 285 284 287 295 290 290 294 290 291 292 292 289 286 289 287 286 290 292 293 291 292 291 292 293 293 290 287 288 287 286 285
302 302 302 302 303 303 303 303 304 304 304 304 304 304 304 301 299 301 302 301 298 296 283 279 283 282 292 290 288 290 290 286 290 286 288 287 286 285 288 289 291 291 291 290 291 291 290 286 286 287 287 288 286 285
301 302 302 302 302 303 303 303 304 303 303 303 303 298 290 297 302 301 296 291 290 289 288 284 288 286 292 287 286 282 286 281 277 281 290 286 286 289 288 289 290 290 291 292 286 284 286 287 288 289 288 287 285 284
301 301 301 302 302 302 303 303 303 304 304 299 294 290 297 300 297 290 286 286 287 286 289 288 288 288 292 287 285 283 282 284 280 279 285 283 284 285 288 286 289 290 290 290 291 291 291 290 288 286 284 284 283 283
301 301 301 301 301 302 302 302 302 299 297 299 297 297 294 291 288 287 285 286 286 284 287 287 287 290 287 286 286 285 278 284 280 286 284 281 285 288 287 289 291 292 292 292 293 291 290 287 285 284 282 282 282 282
299 299 300 300 300 300 300 300 300 300 298 294 290 286 287 283 286 286 284 285 285 286 287 286 286 286 287 287 285 286 284 282 285 283 282 284 286 287 288 290 290 290 289 286 286 286 285 284 283 283 282 283 280 281
298 299 299 299 299 300 300 299 299 297 294 286 285 286 285 284 283 283 285 285 285 285 286 286 285 285 285 285 285 284 284 285 281 280 277 285 288 289 290 288 285 283 281 283 283 283 282 282 281 279 277 276 274 278
299 298 298 298 299 298 298 297 298 296 290 285 286 281 281 283 284 285 285 285 285 286 286 286 285 286 284 284 284 283 280 275 275 273 282 285 289 286 284 283 283 282 279 281 283 280 277 277 278 280 280 280 280 277
298 298 296 298 298 298 296 295 293 292 286 285 284 280 284 284 283 285 285 285 286 285 286 286 284 282 281 281 278 278 276 272 275 283 285 287 286 284 283 283 283 283 283 283 283 283 282 278 276 281 281 279 278 276
297 292 297 297 298 296 295 290 288 285 285 284 283 285 285 285 284 285 285 285 286 285 283 283 277 276 280 275 275 278 272 280 284 285 286 286 284 283 283 284 282 283 283 283 283 283 283 283 278 279 280 283 282 282
292 292 296 297 295 292 289 285 282 284 282 283 282 283 284 284 284 285 284 284 285 284 282 280 282 277 273 272 273 278 281 283 285 284 285 285 286 287 286 284 284 284 283 283 282 282 282 279 280 280 281 281 280 279
292 293 295 295 292 286 283 283 283 280 282 283 283 283 283 283 284 284 283 284 284 281 280 276 274 273 274 278 277 278 278 280 283 284 284 284 284 283 283 283 283 282 281 281 280 279 279 280 279 278 277 277 277 278
294 294 294 293 292 282 280 280 284 283 281 283 284 282 282 282 283 284 283 283 283 275 275 273 275 276 277 279 280 280 283 282 283 281 279 280 281 280 280 279 279 279 278 278 277 275 276 276 276 275 275 275 275 275
290 290 291 288 282 283 281 279 281 283 283 282 283 282 281 283 282 278 276 281 275 278 276 278 275 279 281 280 281 281 281 281 279 279 278 278 278 278 278 277 277 276 274 273 272 272 272 273 273 272 270 271 272 272
289 291 285 285 278 278 279 282 282 282 282 281 281 282 279 279 280 280 281 278 279 278 279 278 281 280 279 279 279 279 279 279 279 278 277 276 275 275 275 274 272 269 270 269 270 269 269 270 269 268 267 267 269 270
290 286 281 279 276 275 277 283 281 281 279 279 280 276 278 278 280 280 278 280 280 280 280 281 280 280 278 278 277 277 278 277 275 275 275 275 275 275 274 272 270 266 265 267 267 267 265 264 265 264 265 265 265 265
288 282 280 278 273 270 272 278 280 279 279 279 277 273 275 277 278 277 274 278 279 280 281 280 279 278 278 276 274 274 275 276 274 274 274 274 271 271 271 270 269 267 266 265 264 261 262 261 261 261 262 261 262 263
272 274 272 268 274 268 264 267 273 275 270 275 275 274 274 272 267 273 274 276 276 276 277 279 280 279 276 275 273 272 273 275 273 271 271 269 267 267 267 267 267 266 265 260 259 258 258 258 259 259 259 259 260 261
271 276 269 264 268 270 266 265 267 267 269 273 275 271 268 265 269 267 274 275 275 275 274 275 275 274 273 274 272 270 269 270 271 269 269 268 266 262 259 259 259 260 264 257 255 256 257 257 258 257 258 259 260 262
266 268 272 279 279 278 270 270 273 272 270 273 274 273 270 268 267 271 274 274 274 274 275 275 275 274 271 269 269 268 267 267 267 268 268 268 267 265 260 255 256 260 263 260 255 251 253 256 257 258 259 259 260 261
270 269 267 267 271 277 272 272 272 270 273 276 275 272 271 265 266 271 272 274 273 273 272 271 270 270 269 267 266 265 263 264 265 264 264 263 262 259 258 256 257 262 256 253 251 253 254 257 258 259 260 258 256 256
270 274 274 271 274 276 276 275 276 278 279 278 273 270 268 269 268 269 271 272 272 270 267 266 265 265 264 263 261 260 258 257 256 254 252 250 251 255 255 251 251 252 251 252 256 260 260 259 258 255 252 255 255 252
272 277 276 274 274 274 275 277 277 278 276 275 273 271 269 267 268 269 269 268 266 263 260 261 258 258 254 253 253 255 253 250 252 253 251 250 253 256 249 249 250 251 249 247 248 250 255 251 252 249 250 249 249 248
276 276 276 275 274 275 277 278 280 278 275 271 269 266 265 265 266 266 264 263 262 259 258 254 253 248 252 251 250 250 252 251 249 252 253 252 252 249 249 250 248 246 245 245 244 245 245 245 244 244 246 247 248 247
271 268 269 268 269 272 272 273 272 272 272 271 265 262 259 259 255 259 259 258 257 254 251 248 251 253 252 251 249 249 253 251 251 250 251 252 251 252 250 249 245 244 245 245 244 244 244 244 244 244 244 244 245 245
267 267 265 262 265 268 260 260 260 260 262 264 258 257 256 258 255 259 259 256 256 253 252 251 251 249 250 251 251 250 250 248 249 255 256 257 253 253 249 246 244 244 245 244 244 243 245 245 245 244 243 243 243 243

GFSWCAN_sfc_thetae_045.txt.gz
Theta_e
306 305 305 305 304 304 304 304 304 304 304 305 305 304 305 306 307 313 310 312 309 301 303 306 307 300 299 299 295 298 297 296 290 288 287 285 286 287 287 288 288 287 284 283 279 280 282 292 295 291 296 295 296 297
305 304 304 303 303 303 304 304 305 305 305 306 306 306 306 307 309 312 309 313 311 305 304 307 307 308 308 305 301 298 299 296 296 290 286 285 285 286 285 286 290 287 290 288 287 288 294 294 296 297 296 296 297 297
304 303 303 303 303 303 304 305 305 305 306 306 306 307 307 309 309 311 311 308 308 302 302 304 303 308 309 308 309 299 298 300 295 295 289 287 286 287 285 286 289 291 292 290 289 293 292 294 296 298 299 297 298 297
303 303 303 303 303 303 304 305 306 305 306 306 306 307 308 308 309 310 308 306 306 300 290 299 306 304 307 309 309 306 301 297 296 295 288 287 287 289 286 289 290 292 292 290 290 293 293 295 297 297 297 297 296 297
302 302 302 303 303 304 304 304 304 304 305 307 307 307 307 308 308 309 307 305 306 303 292 294 303 303 305 307 304 303 301 299 295 291 287 288 288 289 288 289 288 293 292 289 289 294 294 294 295 296 296 295 296 294
301 302 302 304 303 304 304 303 303 303 305 307 308 308 307 307 306 306 303 305 303 302 296 289 298 299 302 303 301 300 301 298 296 293 288 291 295 291 287 287 294 295 296 295 295 297 296 295 295 296 296 295 292 291
302 303 304 304 303 304 303 303 302 303 304 305 305 306 306 304 304 297 297 302 300 300 293 288 289 295 297 299 298 297 297 295 297 293 290 292 293 293 287 287 293 295 296 296 295 296 295 295 294 293 291 290 289 288
303 303 304 303 304 304 303 303 303 304 304 305 304 304 304 304 304 303 302 301 300 295 293 286 286 290 295 291 291 295 292 294 293 292 290 289 291 289 287 292 293 295 295 294 293 295 293 290 289 288 288 289 289 289
303 302 303 303 304 303 303 303 303 303 303 304 304 303 304 302 301 303 302 301 299 297 286 284 286 286 295 290 289 291 291 287 290 287 289 291 287 286 288 289 290 292 292 290 288 289 288 288 288 290 290 290 289 289
302 302 302 302 303 303 303 303 303 303 303 303 303 298 291 298 301 301 296 293 291 289 288 284 289 287 293 288 287 287 287 285 284 287 291 287 287 289 287 288 288 291 293 290 287 286 288 288 289 289 289 290 289 286
302 302 302 302 303 303 303 302 302 304 304 299 295 291 298 300 297 290 286 287 287 286 289 288 290 288 292 289 286 286 285 284 283 284 287 285 285 286 288 289 291 292 292 291 291 291 291 291 289 288 286 286 285 285
301 301 301 301 301 302 302 302 302 300 298 299 298 297 295 291 288 287 285 286 286 286 287 288 288 291 288 288 287 286 282 285 281 287 285 282 285 287 290 290 292 292 292 291 292 291 290 288 287 286 284 284 284 284
299 300 300 300 300 301 300 300 301 300 299 298 293 289 291 287 286 281 281 285 285 286 287 286 286 287 288 290 286 286 284 283 287 284 283 284 285 289 289 289 289 289 288 287 286 286 286 285 285 284 283 284 281 283
298 298 299 299 299 299 299 299 299 297 294 288 288 286 284 285 285 285 285 286 285 286 286 286 285 287 286 287 285 285 284 285 282 280 281 284 286 289 289 288 286 284 282 284 285 285 283 283 283 281 279 279 278 282
298 298 298 298 298 298 297 298 298 294 290 286 286 282 282 283 284 284 285 285 285 286 286 286 286 287 285 284 285 284 282 279 280 278 283 286 288 288 286 285 284 283 281 283 285 282 280 279 280 282 283 283 282 279
298 297 295 298 297 297 296 296 294 292 287 286 284 282 284 284 284 285 285 285 286 286 286 286 284 284 282 282 280 280 280 276 279 284 285 287 287 285 285 284 284 284 284 284 284 284 283 280 280 282 282 282 280 281
296 291 295 297 297 295 295 291 289 285 285 284 283 285 285 285 284 285 285 285 286 286 284 284 280 279 282 278 278 280 278 280 284 285 285 286 284 284 285 286 284 284 284 284 284 283 282 282 280 279 278 279 279 280
290 292 295 296 295 293 289 287 286 285 282 283 282 283 284 284 284 284 284 284 286 285 284 282 283 279 277 276 277 281 284 285 287 287 286 286 286 287 286 284 284 284 282 281 280 280 279 278 277 276 276 276 277 277
292 292 294 294 292 287 285 284 285 281 282 283 283 284 284 283 284 284 284 284 284 283 283 281 279 278 279 281 280 282 283 284 284 285 283 284 284 283 283 282 281 280 279 278 278 277 277 277 276 275 274 273 273 274
293 293 293 292 292 285 282 281 286 284 281 283 283 282 282 282 284 283 283 283 281 278 278 277 278 279 279 281 282 283 284 285 284 281 280 280 280 280 279 279 278 277 276 276 275 274 274 274 273 272 271 270 270 270
289 289 290 287 283 284 281 280 281 283 283 282 283 283 281 283 282 281 278 280 278 278 278 280 278 279 281 281 281 282 281 283 281 281 280 277 278 278 276 276 275 273 272 271 271 270 270 270 270 269 268 267 268 268
288 291 281 283 279 279 279 282 282 283 282 282 281 282 280 280 280 281 281 280 279 279 280 280 281 280 279 279 278 279 279 280 279 278 277 277 276 275 273 272 271 269 269 268 268 267 267 267 267 266 265 265 266 266
287 285 280 279 276 275 279 283 281 282 279 279 280 277 279 279 280 281 279 280 280 281 282 280 280 279 277 278 278 277 278 277 276 275 275 275 275 274 272 270 269 266 266 266 267 266 264 262 264 263 264 263 263 263
285 280 278 272 274 273 272 275 281 280 280 279 277 273 276 278 279 277 276 278 279 281 280 279 279 276 276 275 274 274 276 276 274 273 274 273 271 270 271 270 268 267 266 265 264 262 262 261 259 262 261 261 261 262
273 274 272 271 274 269 266 266 275 274 267 276 276 274 276 274 272 273 274 275 276 276 277 280 280 279 275 272 272 272 273 275 272 270 270 270 268 268 267 267 266 266 265 263 261 260 260 259 260 260 260 260 260 261
269 275 272 268 274 270 265 265 264 268 268 270 273 272 270 270 270 269 273 273 274 274 274 276 275 273 273 273 271 270 270 271 272 269 268 268 267 265 263 262 262 263 264 262 260 259 259 259 259 259 259 261 260 261
265 265 275 278 279 277 268 268 273 269 267 269 272 273 274 269 268 270 273 273 273 273 273 274 275 273 270 269 269 268 269 269 269 269 268 267 266 265 263 261 260 262 263 262 259 258 257 257 257 259 259 261 261 260
271 272 266 268 271 273 267 266 269 267 270 276 274 271 271 269 267 270 272 273 272 271 270 269 269 269 268 267 266 267 267 266 266 265 265 264 263 263 261 261 260 261 258 257 257 257 257 257 258 260 260 259 259 259
269 271 270 265 267 272 272 271 275 277 277 278 273 270 268 268 268 269 271 272 271 270 268 266 265 265 264 263 262 261 261 263 263 258 258 259 258 261 261 259 258 258 257 256 257 259 261 262 261 259 257 256 256 256
271 274 271 268 267 269 272 277 277 276 275 274 272 270 268 266 267 268 269 268 266 263 262 263 262 263 260 260 259 259 258 257 259 259 259 258 259 260 259 257 257 257 255 254 255 255 256 256 257 255 254 254 254 254
272 272 271 270 268 270 273 276 279 276 273 269 268 266 265 265 266 265 263 263 263 262 262 259 258 254 258 257 257 257 258 258 254 256 257 257 257 257 258 257 256 254 254 254 253 253 253 254 253 252 253 253 252 251
268 267 268 268 268 268 268 269 270 270 270 268 264 262 261 261 259 262 261 261 259 259 253 252 256 258 256 256 253 254 253 256 257 256 255 256 257 258 258 257 254 253 254 254 253 252 252 252 253 252 252 252 251 250
260 266 264 262 264 263 260 260 260 259 260 262 259 258 258 259 257 261 261 258 258 256 255 256 256 254 254 253 256 256 253 255 253 255 258 257 256 257 257 256 253 253 253 254 253 252 252 252 253 252 251 250 250 249

GFSWCAN_sfc_thetae_051.txt.gz
Theta_e
301 301 301 301 301 301 302 303 303 304 304 304 304 305 305 306 306 311 316 326 321 314 312 314 312 308 310 311 307 309 306 307 307 300 296 301 300 300 298 299 296 295 295 290 295 287 286 301 300 295 302 304 304 305
300 300 300 300 301 302 303 303 303 304 304 304 304 305 305 305 306 310 314 324 326 318 314 319 317 318 317 317 313 311 309 309 310 306 305 306 295 295 300 294 301 296 300 299 298 297 303 304 303 307 306 304 305 305
300 301 301 302 302 302 302 301 304 304 304 304 304 305 305 305 307 311 321 324 324 316 312 314 312 316 318 319 321 311 314 314 312 316 310 308 294 305 293 299 300 301 302 299 298 300 301 303 304 305 306 305 306 306
301 301 301 302 302 302 303 304 304 303 304 303 304 304 304 306 308 312 321 323 320 313 304 307 317 312 316 318 318 319 317 316 315 314 306 298 297 305 303 302 301 303 302 299 299 301 302 303 305 306 306 306 305 305
301 301 301 302 303 302 303 302 302 303 303 303 303 304 305 307 309 317 319 317 321 316 302 306 312 313 315 316 315 315 315 313 311 306 297 303 305 304 304 303 301 303 300 299 298 302 302 303 304 305 305 304 304 303
302 302 302 302 302 302 302 302 303 303 303 303 304 304 306 308 311 316 312 317 319 322 309 299 309 309 313 314 313 313 314 314 313 304 303 305 303 307 295 298 302 302 303 304 302 304 304 304 304 305 303 302 301 299
302 302 302 302 302 303 303 303 303 303 304 304 304 305 307 309 319 313 307 311 312 319 304 295 300 308 310 312 310 311 312 310 311 304 300 304 304 306 294 297 301 301 303 303 304 304 301 302 299 300 298 297 297 296
302 303 303 303 303 304 303 303 304 304 305 305 305 306 306 305 305 309 308 305 307 310 306 292 296 301 309 305 302 309 305 309 302 299 301 299 301 300 297 300 300 301 302 301 301 302 300 298 298 297 296 295 292 291
302 302 303 303 303 304 304 305 305 305 305 305 305 306 315 314 313 309 302 304 313 310 292 290 293 291 304 299 301 302 303 292 302 295 298 300 294 292 294 295 297 298 298 298 299 298 297 295 293 294 294 292 290 291
302 302 302 303 302 302 303 303 304 304 304 305 313 311 307 309 303 305 306 307 304 303 298 292 299 294 301 298 294 297 295 292 289 294 300 295 294 292 294 294 297 299 300 299 295 291 292 291 292 292 292 293 293 292
302 302 303 302 301 301 302 303 303 304 303 315 308 301 308 303 308 303 293 297 300 292 297 296 300 295 300 294 290 294 289 291 287 293 292 291 290 290 294 295 297 298 298 295 295 294 294 293 292 292 290 289 289 289
301 301 301 301 301 301 301 302 305 307 306 308 308 308 308 304 298 293 288 292 293 291 293 292 294 296 295 300 293 291 287 290 286 295 292 287 288 293 294 294 295 295 295 294 294 293 293 292 290 289 289 288 288 289
299 299 300 300 300 300 300 300 300 301 304 312 304 295 300 291 289 288 286 289 287 291 291 292 289 294 294 297 290 291 287 287 294 288 287 288 291 293 293 293 293 294 294 294 291 291 290 289 289 289 287 288 290 288
298 298 298 299 299 299 299 300 301 305 306 293 290 288 289 287 288 289 291 290 289 290 292 293 290 292 293 290 292 286 288 290 285 284 285 288 290 291 293 293 293 290 289 289 289 289 288 287 287 286 286 285 284 283
297 297 298 297 298 299 299 299 299 303 297 290 290 286 285 286 287 287 288 289 289 293 294 292 292 294 290 287 290 286 284 284 286 287 288 288 289 290 290 291 289 288 288 288 288 286 286 287 287 286 284 283 283 282
298 297 294 297 297 298 299 299 299 298 291 288 287 285 286 286 285 286 286 286 290 293 297 296 290 289 286 289 288 287 286 285 285 288 288 289 290 291 291 290 290 290 290 289 289 288 285 283 284 283 283 281 281 281
297 293 295 296 296 296 297 295 293 287 286 286 285 286 287 285 285 285 286 287 290 291 287 291 287 285 289 285 284 288 285 287 287 287 288 290 290 290 290 290 288 289 290 289 287 286 285 284 282 281 280 280 280 280
297 297 295 296 297 296 292 291 288 289 285 286 285 285 285 285 285 285 285 286 289 288 290 288 291 286 286 284 284 286 286 285 286 286 288 290 291 291 290 290 290 289 287 285 284 283 282 281 281 280 279 278 279 279
294 295 294 295 298 294 287 287 290 285 286 287 288 288 287 286 287 288 288 290 291 293 292 291 287 286 286 288 287 286 285 287 285 285 286 287 289 289 288 288 286 285 284 284 284 283 281 279 279 278 278 277 277 277
294 294 294 295 298 293 287 287 294 288 285 286 289 287 287 287 287 287 289 291 292 292 287 285 283 282 284 285 289 290 288 289 287 285 285 286 287 286 285 285 284 284 282 281 279 279 280 280 278 277 276 275 275 275
296 295 295 298 295 292 289 288 287 287 287 286 288 288 286 289 288 287 288 291 286 282 281 282 281 283 285 288 290 291 290 291 290 289 287 284 286 285 284 283 282 282 281 280 279 277 277 276 276 275 275 275 275 276
295 294 294 295 290 289 288 290 288 289 287 286 287 288 286 285 285 285 289 284 281 281 283 283 284 285 285 286 287 288 287 286 286 284 283 283 282 282 281 281 280 278 278 277 277 276 276 275 273 273 274 274 274 275
293 294 291 290 286 286 283 291 286 286 283 284 286 283 283 284 284 288 282 283 282 284 284 284 284 285 284 284 285 286 287 286 284 283 282 282 281 280 279 278 278 277 276 275 275 275 274 270 273 272 273 273 273 273
291 286 283 283 284 280 286 283 286 284 285 283 282 279 280 282 286 283 279 280 282 283 282 281 282 281 282 282 281 281 282 283 282 281 282 280 278 277 277 275 275 274 274 274 274 273 273 272 270 272 272 271 271 270
283 280 283 280 284 282 280 281 281 282 279 281 280 279 280 283 279 279 278 278 279 280 283 284 282 282 280 278 278 278 280 281 279 276 277 278 276 276 275 274 273 272 273 273 272 271 271 270 270 270 269 269 269 268
277 279 280 280 281 280 281 278 279 279 280 279 278 281 282 280 276 274 274 276 277 277 277 279 281 279 277 278 277 275 275 278 278 275 274 275 275 275 274 273 273 272 272 271 270 269 269 269 268 267 268 269 268 268
277 278 281 284 282 282 281 281 282 281 279 278 280 279 280 275 273 273 277 276 276 276 276 277 277 276 274 274 274 274 275 275 275 273 273 273 272 272 272 271 269 269 270 269 268 268 267 267 267 267 267 268 269 268
280 281 278 279 280 282 279 279 279 278 279 281 281 276 274 273 271 274 274 276 275 275 274 273 273 273 273 273 274 274 273 273 272 273 273 272 272 272 270 271 269 265 268 268 267 266 267 266 266 267 267 266 266 267
279 281 281 277 279 279 278 279 279 279 279 280 278 274 272 271 272 273 274 275 277 276 273 272 272 273 272 272 272 272 273 273 272 269 269 270 271 271 271 270 270 269 269 268 267 267 266 265 266 266 265 265 266 266
278 282 280 278 277 276 279 281 277 277 278 278 276 273 271 270 271 274 274 274 273 271 271 271 272 272 271 271 270 269 270 269 268 268 267 267 267 269 269 269 268 268 268 267 266 266 266 266 266 266 265 265 265 264
281 282 279 279 277 278 279 281 280 279 277 275 276 273 270 270 271 271 271 272 272 272 272 271 270 271 270 269 270 269 269 269 266 267 266 267 267 268 268 268 268 268 267 266 265 265 264 263 264 264 264 263 262 262
280 277 277 276 277 278 281 280 280 278 276 275 272 273 272 272 268 269 269 272 271 270 267 270 270 268 268 269 269 269 263 267 268 266 266 266 267 268 267 267 267 267 266 265 264 264 264 263 263 263 262 262 262 260
278 278 278 277 277 276 276 277 276 273 273 272 270 271 270 269 265 268 270 270 269 268 268 269 269 269 267 267 267 268 266 268 266 265 265 263 262 263 264 266 266 266 265 264 264 264 263 263 262 262 261 260 260 259

GFSWCAN_sfc_thetae_054.txt.gz
Theta_e
299 299 299 299 301 302 302 302 303 303 303 304 304 303 303 304 304 306 308 312 309 312 312 315 313 309 310 311 306 310 306 308 310 297 292 302 299 301 298 300 296 294 294 289 295 287 286 303 300 295 303 306 305 305
300 300 300 300 301 302 302 302 302 303 303 303 303 303 303 304 305 306 305 313 317 313 315 320 317 318 316 317 315 312 310 309 311 306 304 307 293 294 301 296 302 296 301 299 297 296 305 304 304 307 306 304 305 306
300 300 301 301 301 301 301 302 302 303 303 303 303 303 304 305 306 306 308 314 319 316 313 314 312 317 318 319 323 311 317 315 314 320 312 309 293 306 292 301 301 302 304 302 300 301 302 303 305 307 306 306 306 307
300 300 300 300 300 301 301 302 302 302 303 303 303 304 304 305 306 306 307 314 318 316 302 308 318 313 317 319 320 322 321 321 320 318 309 296 296 309 305 304 303 303 303 300 299 302 302 304 305 305 306 307 306 306
300 300 300 300 301 301 301 301 301 302 302 303 304 304 304 305 306 307 309 315 320 313 301 305 312 314 316 317 317 317 319 316 314 304 292 305 308 307 307 306 303 304 301 300 299 302 303 303 304 306 305 304 303 301
301 301 301 301 300 299 299 299 300 302 303 304 304 304 304 305 306 309 307 318 321 319 310 298 310 310 314 315 315 315 316 318 315 306 305 307 307 309 295 300 303 304 305 305 302 305 304 303 303 304 301 299 298 297
300 300 300 300 300 300 302 301 301 303 303 303 303 304 304 305 310 308 304 308 307 319 305 293 298 308 312 312 312 311 314 311 311 306 303 305 304 305 294 299 301 303 304 304 305 305 301 302 296 298 297 296 295 295
301 301 301 302 302 302 302 302 302 302 303 303 303 304 305 305 305 307 308 306 307 310 307 290 292 299 308 304 302 308 306 307 303 299 301 300 301 303 298 300 302 302 302 301 301 303 300 298 297 296 296 295 292 291
302 302 302 302 302 302 302 302 303 303 303 304 305 306 309 309 307 306 303 305 315 309 292 289 289 290 305 300 300 301 304 291 301 293 297 301 294 292 298 298 299 300 299 298 299 298 298 295 294 293 293 292 291 291
301 302 302 303 303 302 303 303 303 304 304 305 310 308 296 304 303 303 306 307 302 302 300 293 298 293 300 298 294 296 296 292 289 294 300 295 292 295 296 297 298 300 300 299 295 292 293 292 292 292 292 292 291 290
302 301 301 302 303 303 303 303 304 305 306 313 305 296 304 303 307 301 294 292 296 290 297 298 298 295 300 293 289 293 289 291 288 292 293 291 290 291 296 296 299 299 297 297 297 296 295 294 292 290 288 289 289 288
301 301 301 301 301 302 303 304 304 310 310 310 309 310 309 305 296 291 288 291 292 291 293 294 295 296 295 301 292 290 288 290 287 295 289 288 288 293 294 294 295 295 295 294 294 293 293 292 290 289 288 288 288 287
299 299 300 300 300 301 301 302 303 304 306 311 302 292 298 290 288 287 284 288 287 290 291 292 289 293 295 296 289 289 287 288 295 287 287 288 291 293 294 294 294 295 294 293 291 290 290 289 289 288 285 286 286 284
298 298 299 299 299 300 300 301 302 306 305 293 290 287 288 287 288 288 288 289 288 289 292 293 291 292 292 288 289 286 288 290 285 284 286 289 291 292 293 294 293 290 288 289 288 288 286 285 284 283 282 282 281 281
297 297 298 298 299 299 300 300 302 303 297 289 289 285 285 285 286 286 287 288 288 293 293 292 292 293 289 287 289 286 284 284 287 287 288 290 292 292 292 291 289 287 286 287 288 285 285 285 284 282 282 282 281 278
298 297 294 297 297 298 300 301 300 298 290 288 286 285 286 286 285 286 286 286 289 290 296 296 289 286 286 289 286 284 286 285 286 287 288 290 290 291 290 289 289 289 289 288 287 286 284 282 282 282 281 280 279 278
297 293 295 297 297 297 297 297 295 287 286 285 284 285 286 285 284 285 286 286 290 291 286 291 286 285 290 286 284 286 284 286 286 287 289 290 290 290 290 290 288 289 289 288 287 285 284 283 282 281 280 279 280 280
295 295 296 297 298 295 292 292 290 289 284 286 284 284 285 285 285 285 285 288 290 289 290 287 291 287 285 283 283 285 284 285 285 287 289 290 291 291 290 289 290 289 287 285 284 283 283 282 281 279 279 278 279 279
294 295 296 297 297 292 288 289 292 284 285 286 286 286 286 285 286 287 287 288 290 293 294 292 287 285 284 286 285 284 285 285 284 284 286 289 290 289 289 288 287 286 285 285 284 282 280 279 278 278 277 277 276 277
295 295 296 296 299 291 287 288 294 288 284 286 287 286 286 286 286 286 288 290 290 289 284 282 280 281 283 284 288 288 287 286 285 283 283 285 286 286 286 285 284 283 281 280 279 281 280 279 278 277 276 276 275 274
297 295 297 299 295 293 289 289 287 287 288 286 287 287 286 287 286 286 286 289 284 281 280 282 282 284 286 287 289 290 289 290 288 287 285 284 286 285 284 284 284 284 282 281 279 277 277 276 275 275 276 276 274 275
295 295 296 296 290 289 288 290 288 289 287 287 287 288 286 284 284 285 289 283 280 281 283 283 285 284 284 284 285 287 287 288 287 287 286 285 283 282 281 281 281 279 278 278 277 276 276 274 273 273 274 274 273 275
295 295 292 290 286 286 283 292 285 287 283 284 287 283 283 283 284 289 282 282 282 283 284 284 284 285 284 285 285 286 286 284 283 283 283 282 281 281 280 279 280 278 276 274 276 275 274 270 272 272 273 273 273 273
292 286 284 284 285 280 286 284 286 284 285 283 282 279 280 282 286 283 278 279 282 284 283 282 284 282 282 281 280 280 282 283 282 281 282 280 278 276 277 275 274 274 274 275 274 274 274 273 270 272 272 270 271 270
282 280 283 280 286 283 281 281 281 281 279 282 280 279 280 284 280 278 276 278 278 278 279 283 282 282 279 278 278 277 280 280 278 276 278 278 276 275 274 274 273 272 273 273 272 271 271 271 271 270 269 269 268 268
277 280 279 280 280 280 281 278 279 279 280 279 278 280 283 281 276 272 274 275 275 275 276 277 280 277 275 276 275 274 274 279 277 273 273 275 275 275 274 273 272 270 272 271 270 268 269 269 268 267 268 268 267 268
277 278 281 284 283 282 281 282 283 282 279 279 280 280 280 275 272 273 275 275 274 275 275 276 276 275 274 273 273 274 274 274 274 273 273 272 272 272 271 270 268 267 269 269 268 267 266 266 266 267 267 268 268 267
279 280 277 280 281 283 279 280 279 278 279 280 281 275 273 272 270 273 274 276 275 275 274 274 274 273 273 274 274 275 274 273 273 273 273 273 273 272 271 271 269 268 269 269 267 267 266 266 265 265 266 265 265 267
279 282 282 277 280 279 279 279 278 277 278 279 278 273 270 271 273 274 275 276 277 276 274 274 273 274 273 272 273 272 271 271 272 269 269 269 270 269 271 270 270 270 270 269 269 268 268 267 266 265 265 265 265 266
279 283 280 279 277 276 278 279 275 277 278 277 274 271 270 270 272 275 274 274 273 271 272 273 273 273 272 271 270 269 269 268 267 266 266 265 266 268 269 269 268 268 268 267 267 267 267 267 266 266 266 266 266 265
281 283 280 279 277 279 279 279 279 278 276 275 276 271 269 269 271 272 271 273 273 273 273 270 270 270 269 268 268 268 268 268 267 267 266 267 268 268 268 268 268 268 267 267 266 265 265 264 264 264 264 263 263 263
279 277 278 277 276 279 282 281 280 277 277 274 272 273 273 272 268 268 270 272 271 270 269 270 269 267 268 270 270 268 263 268 268 266 266 265 265 265 266 266 267 267 267 266 265 265 264 264 263 263 262 262 262 261
278 279 278 278 277 277 277 278 276 274 274 272 271 271 270 269 265 268 271 271 269 268 268 269 270 270 269 269 268 268 267 268 267 268 267 265 262 263 264 265 265 264 263 263 264 263 263 263 263 262 262 261 261 260

GFSWCAN_sfc_thetae_057.txt.gz
Theta_e
299 298 298 298 298 299 299 300 300 301 302 303 304 304 305 305 306 304 300 306 306 303 305 309 306 304 306 306 297 302 301 303 300 288 288 286 284 291 290 297 290 287 284 281 284 283 280 301 297 289 296 298 299 300
298 298 298 298 299 300 301 301 301 302 302 303 304 304 304 305 305 305 299 308 311 303 306 314 312 313 312 311 308 304 301 303 303 294 291 291 288 288 289 284 298 288 294 288 289 288 298 301 299 300 300 299 300 299
299 298 298 300 300 301 301 301 302 302 302 303 303 303 303 304 305 304 301 308 308 302 307 311 307 311 315 315 316 303 305 307 307 307 299 295 288 292 286 288 293 297 301 293 293 297 297 300 302 303 302 300 301 302
299 299 300 300 300 301 301 301 302 302 302 303 303 302 303 304 304 304 300 306 307 305 294 305 315 310 313 316 316 318 314 314 311 306 294 290 288 300 291 296 294 297 298 296 294 297 300 300 300 302 302 303 297 295
300 300 300 300 301 301 301 301 301 302 302 303 303 302 303 304 305 305 304 305 308 305 296 300 309 311 313 314 314 316 313 311 304 293 289 291 297 296 296 295 292 298 296 289 287 298 298 297 300 301 297 296 294 292
300 300 300 300 300 300 300 301 301 302 302 303 303 303 304 304 305 304 299 307 308 310 303 291 305 305 310 311 310 312 312 311 305 297 291 297 301 295 287 285 297 300 301 301 298 301 298 296 296 297 294 293 293 292
300 300 300 300 300 301 301 301 301 302 302 303 303 303 304 304 305 302 301 306 306 310 299 290 293 303 307 308 304 305 306 303 303 297 292 295 297 296 288 286 297 300 300 301 302 299 294 294 291 293 293 293 293 292
300 301 301 300 300 299 299 299 300 301 302 303 303 303 304 304 305 305 307 305 305 307 300 288 289 296 305 297 294 301 299 298 297 296 295 288 294 288 287 296 298 299 298 296 297 298 295 295 294 293 292 291 289 288
299 300 300 299 299 299 298 299 300 300 303 303 303 304 304 303 302 306 305 303 308 302 288 286 289 288 302 296 297 295 297 288 296 288 292 293 289 286 294 295 296 297 295 294 295 295 294 292 292 290 290 289 288 288
299 299 299 300 300 301 301 301 301 302 303 303 304 303 296 302 304 304 302 296 292 292 292 289 292 290 298 291 289 289 289 287 286 289 296 288 287 294 294 295 297 298 296 295 291 289 290 290 289 289 288 288 287 286
302 301 301 301 301 301 302 302 302 303 304 305 300 293 301 303 304 295 287 288 289 286 288 294 293 291 297 289 286 288 286 286 285 287 287 286 285 291 296 295 296 297 297 296 295 294 293 292 287 286 286 286 284 283
301 302 302 302 302 302 302 302 303 305 307 305 303 304 302 298 290 289 285 286 288 285 288 290 290 294 290 296 289 286 286 286 283 290 287 281 288 293 294 292 292 294 294 294 294 293 291 288 288 287 285 284 281 280
300 300 301 301 302 303 303 304 304 305 306 304 297 290 291 287 285 285 282 285 285 287 289 288 287 288 289 291 286 287 285 285 288 285 280 284 290 293 292 292 292 293 293 291 289 289 288 286 285 284 283 282 280 279
299 299 299 299 300 300 301 302 303 303 300 290 287 286 286 285 284 284 285 286 286 287 288 288 288 287 287 286 286 285 285 287 282 279 280 287 290 291 292 292 291 287 286 286 286 284 282 281 280 280 279 278 278 278
298 298 298 297 299 300 300 300 300 300 291 286 286 283 283 284 285 285 286 286 287 289 289 288 288 287 285 285 285 285 283 282 282 281 285 289 290 291 290 287 286 285 284 284 285 282 281 280 280 279 280 279 278 274
298 297 294 297 298 300 300 299 297 295 288 286 285 284 285 285 285 285 285 285 287 287 288 288 286 285 285 285 283 283 280 279 283 285 288 290 290 289 287 286 287 287 286 285 284 283 282 280 278 278 279 277 273 272
296 291 296 298 298 298 298 295 291 285 285 284 283 284 285 285 284 284 285 285 288 287 285 286 283 283 286 283 281 283 281 283 285 286 287 289 288 287 287 287 286 286 285 283 282 281 280 281 279 278 276 277 277 276
292 295 298 299 298 295 293 292 288 286 283 284 282 283 284 284 284 284 285 286 287 286 285 283 287 284 283 281 281 282 283 284 287 287 288 288 288 288 289 288 287 286 284 283 282 281 281 279 278 276 276 277 277 276
295 295 297 297 296 291 287 287 290 282 283 284 284 284 284 284 285 286 286 287 288 289 287 286 281 280 280 283 282 283 283 284 283 285 287 287 287 287 286 285 284 283 282 281 279 278 277 277 276 275 275 275 273 273
296 296 296 297 298 288 285 285 291 285 283 284 285 284 284 284 284 285 285 285 285 283 279 278 278 280 281 283 286 284 284 285 284 282 282 284 285 284 283 283 280 280 279 279 279 278 277 275 276 275 273 272 268 268
295 293 296 296 291 289 287 285 284 285 285 284 284 285 284 285 284 283 282 284 280 279 278 281 281 283 285 285 287 287 287 287 285 284 282 282 283 283 282 282 282 281 279 277 276 274 273 272 272 272 266 265 264 265
291 295 288 290 285 285 284 287 285 286 285 284 285 285 283 282 282 282 283 279 278 280 281 281 282 282 282 283 283 285 284 286 285 284 283 282 280 279 279 279 277 275 275 274 274 271 271 271 270 268 263 262 265 265
293 291 286 285 279 278 278 286 282 284 281 282 284 281 281 281 283 284 278 280 280 282 282 283 282 282 281 281 282 282 283 282 280 280 279 278 277 277 276 275 276 273 272 273 274 272 269 269 268 263 264 263 260 261
290 284 278 278 278 277 281 277 282 282 281 280 278 276 278 279 282 277 274 276 277 278 279 281 283 279 278 278 276 277 280 280 278 279 278 276 274 273 274 273 273 272 273 273 272 270 269 264 264 263 261 258 257 259
275 275 277 272 277 274 272 278 279 278 276 279 277 276 277 280 275 273 272 273 273 272 274 278 276 278 275 274 274 274 277 277 275 273 275 276 274 273 272 271 271 271 271 269 267 266 264 263 260 259 260 257 261 259
275 279 277 278 278 276 276 275 277 277 276 271 276 278 280 275 268 268 271 272 271 271 271 273 274 272 271 272 271 271 272 276 274 271 271 272 271 272 271 269 267 267 269 268 264 262 262 262 260 260 258 261 260 260
275 277 280 283 282 281 279 278 278 274 272 273 276 274 275 266 266 270 272 273 272 272 273 273 274 272 271 271 272 272 272 273 272 271 272 271 271 270 268 265 263 264 267 265 261 259 258 257 256 256 256 258 259 258
278 280 276 279 276 278 273 271 270 272 272 275 275 267 264 265 266 271 273 274 273 273 273 272 272 272 271 270 270 270 271 271 271 271 271 270 270 269 267 266 265 267 264 261 259 259 257 257 255 254 254 255 254 254
278 280 276 275 275 274 274 273 272 274 276 276 267 267 265 269 271 272 273 273 273 272 271 270 268 269 269 268 267 267 266 266 265 263 261 262 261 262 261 260 260 260 260 260 264 265 263 261 261 258 255 258 261 257
275 281 275 270 269 270 272 273 271 274 273 269 269 269 268 267 269 271 271 271 269 269 269 269 268 267 267 267 263 262 261 260 261 257 254 254 257 259 259 263 259 259 259 257 256 257 262 258 258 255 254 254 257 258
278 278 275 273 273 274 274 274 273 273 269 268 268 264 264 265 267 269 268 270 269 271 266 264 264 264 262 261 259 257 257 259 259 257 257 256 257 261 261 259 262 259 257 262 258 254 253 254 254 256 254 253 254 256
278 274 274 271 273 277 277 276 276 272 271 268 265 264 265 265 260 263 267 267 264 263 262 262 259 257 258 258 261 257 257 260 258 257 259 256 255 254 255 256 258 260 259 254 255 260 258 256 255 258 256 256 252 252
272 273 274 273 273 270 269 272 268 267 266 264 266 262 260 259 258 262 266 263 260 259 261 263 262 263 262 259 258 261 261 258 259 265 263 260 256 257 254 252 252 251 252 252 253 252 253 257 258 258 257 256 253 253

GFSWCAN_sfc_thetae_060.txt.gz
Theta_e
301 300 300 299 299 299 299 299 300 300 300 300 300 300 300 300 305 303 300 305 299 299 301 308 305 300 301 300 295 300 300 299 296 289 288 288 283 290 288 293 288 286 283 281 281 274 279 297 295 289 292 296 299 299
300 299 299 299 298 299 299 299 299 299 300 300 301 300 301 304 305 305 297 303 305 299 299 306 309 311 308 306 305 302 301 301 301 293 291 291 287 285 287 284 295 287 289 286 288 286 295 298 297 297 299 298 297 298
298 298 298 298 298 298 299 299 299 300 301 301 302 303 304 304 305 303 299 302 301 299 300 305 305 310 313 313 312 302 302 306 303 304 299 295 288 290 284 284 291 295 299 292 293 294 296 298 300 300 299 298 298 299
298 298 298 298 298 299 299 299 300 300 302 302 303 303 303 304 305 304 298 303 304 302 292 301 314 308 313 315 315 313 311 309 306 301 292 290 287 296 287 293 291 295 297 294 292 296 298 298 299 299 294 293 292 292
299 299 298 298 299 300 300 300 301 301 302 302 303 303 304 304 305 304 303 303 305 301 293 300 307 310 312 313 313 315 312 309 302 292 287 291 295 294 292 292 291 295 294 289 287 297 295 295 296 296 292 291 292 290
300 300 300 300 301 301 301 301 301 302 302 302 302 303 303 303 304 301 293 302 304 305 295 290 303 306 308 311 309 307 307 306 304 297 294 297 301 292 285 283 295 298 299 299 297 297 295 294 293 293 291 291 291 290
300 300 300 300 300 300 301 301 301 302 302 302 302 303 302 303 303 297 295 304 304 306 296 289 292 304 306 305 302 303 303 300 302 299 295 295 297 293 285 284 296 298 298 296 295 294 291 291 289 292 292 291 291 290
300 300 300 300 300 300 300 301 301 302 302 302 302 302 302 304 304 299 306 305 308 303 301 287 291 295 303 295 295 298 294 296 296 295 294 290 294 289 285 294 296 296 297 296 294 295 292 292 291 290 290 290 288 286
299 300 300 300 300 300 300 301 301 302 302 302 303 303 303 301 299 299 306 305 304 302 288 286 289 287 299 294 295 294 292 288 292 288 290 292 287 284 291 294 294 296 294 292 293 292 291 289 289 288 288 288 285 284
300 300 299 299 299 299 299 300 300 301 302 302 301 298 292 301 306 306 304 298 293 292 291 287 291 289 295 288 288 288 288 286 287 286 294 284 286 291 293 295 296 295 294 293 289 287 288 287 287 288 287 286 284 283
299 299 299 299 299 299 299 299 299 300 301 299 295 292 301 305 302 296 289 287 288 284 288 292 291 291 296 288 286 287 286 286 284 288 287 285 285 290 293 295 296 296 295 295 293 291 290 289 286 285 284 283 283 282
300 299 299 300 300 300 300 299 299 298 300 302 302 302 301 296 289 288 285 286 285 284 288 289 289 290 290 293 287 286 285 285 282 289 286 284 287 292 293 293 295 296 295 294 293 290 288 288 287 284 282 281 280 279
301 301 301 300 301 301 300 299 299 302 304 302 295 293 291 286 285 281 281 283 284 286 288 288 286 287 289 290 286 286 284 283 284 282 282 283 291 292 292 292 292 292 291 290 288 288 288 286 285 282 279 279 279 278
299 300 301 301 301 302 302 302 303 302 298 290 288 284 285 285 283 283 285 285 286 286 287 288 286 286 286 286 285 284 285 285 276 273 279 286 290 290 291 290 287 286 285 286 285 284 283 282 280 280 279 278 277 276
298 298 298 299 300 301 301 301 300 297 288 285 285 281 282 284 285 285 285 286 286 288 287 286 286 287 285 285 284 282 283 281 279 279 284 289 290 290 288 286 285 284 283 283 283 281 280 279 279 278 279 278 277 274
298 298 296 298 299 300 299 298 295 293 287 285 284 284 285 285 285 285 285 285 287 286 287 287 286 285 284 284 283 281 280 279 282 285 288 290 287 287 286 285 286 285 283 282 281 280 279 279 278 278 277 276 273 272
296 292 297 299 298 298 298 293 290 286 285 284 282 284 284 284 283 284 285 285 287 286 285 281 283 283 284 282 281 283 280 282 284 285 288 287 286 285 286 285 284 284 283 282 281 281 279 279 278 277 275 276 277 275
292 295 298 298 297 295 293 291 286 284 282 283 281 282 284 284 284 284 285 286 286 284 283 283 285 282 281 279 280 282 283 285 286 286 286 286 287 287 287 285 285 284 282 281 281 280 279 278 277 276 278 277 276 276
294 295 297 298 296 290 287 287 288 282 283 284 284 284 284 284 285 284 285 286 286 286 285 282 278 277 277 282 282 282 283 284 284 284 285 286 286 285 284 284 283 282 280 280 279 277 277 277 276 276 276 275 272 272
296 296 296 296 296 287 284 285 289 284 282 283 285 284 284 284 284 283 283 283 283 282 279 278 277 279 280 283 284 284 284 285 284 282 281 282 283 282 281 280 280 279 279 278 277 276 276 275 275 275 273 271 267 267
291 292 293 292 288 288 286 284 284 285 285 284 284 285 283 283 280 279 279 282 279 279 278 279 279 281 283 283 284 285 285 285 283 283 281 280 281 281 281 281 280 279 277 276 274 273 273 272 272 271 267 263 264 264
288 293 284 287 282 282 283 287 284 285 285 284 284 284 282 280 279 279 281 277 277 278 280 279 278 278 279 280 281 283 283 283 282 281 281 281 278 278 277 277 276 274 274 274 273 271 270 271 270 268 264 263 266 266
289 286 281 280 276 277 280 285 281 284 280 282 283 280 280 280 282 283 275 276 275 277 280 280 279 279 278 279 279 279 281 279 277 277 276 275 275 274 274 274 274 272 271 272 273 271 270 269 268 267 265 264 262 262
287 280 279 276 275 273 274 277 282 282 281 279 278 276 278 280 280 276 271 272 273 275 276 278 278 276 276 276 274 276 277 277 276 276 276 274 272 272 272 271 271 271 271 271 270 269 268 266 265 264 261 258 257 257
274 274 273 270 273 271 268 274 274 275 274 276 275 275 277 279 272 270 269 270 270 270 271 275 274 274 272 272 272 273 276 275 272 270 272 274 272 271 270 269 269 269 269 266 265 264 263 262 262 261 261 256 261 259
273 273 276 275 274 273 275 273 271 271 269 273 275 275 275 269 266 266 268 269 269 270 269 271 271 270 269 270 269 270 271 274 272 269 269 270 271 270 269 267 266 265 267 264 261 259 260 259 257 257 254 257 258 257
271 270 278 282 281 278 272 273 274 269 267 268 272 270 265 261 262 268 271 271 270 271 272 272 272 270 270 270 271 271 271 271 270 269 270 269 269 268 264 261 261 263 266 262 258 256 255 253 252 251 250 250 251 251
277 277 271 275 270 273 266 264 266 268 268 273 268 260 258 259 263 269 271 272 272 272 271 271 270 269 267 267 267 266 266 267 269 269 268 267 266 265 263 262 261 267 261 258 257 257 255 256 255 255 253 251 252 253
275 276 272 266 266 267 269 267 267 271 271 270 259 261 262 267 268 270 271 271 272 270 269 268 267 266 265 264 264 263 263 262 260 257 254 253 255 258 262 262 261 257 255 256 259 261 260 258 258 254 252 251 254 254
273 273 267 263 262 265 269 269 268 268 268 265 267 267 266 265 267 269 269 269 267 265 265 265 264 263 261 258 255 259 257 256 257 253 251 251 254 257 256 257 256 257 257 253 257 258 259 253 254 253 253 254 252 249
272 269 266 266 267 268 268 269 270 267 262 263 262 261 260 264 265 267 267 267 266 263 261 258 258 255 258 255 251 251 254 256 253 253 253 251 249 249 249 250 250 251 252 251 251 252 253 253 252 251 252 255 254 252
271 268 265 265 269 272 271 268 263 261 259 259 259 257 258 257 256 260 264 260 261 260 257 252 254 256 253 252 254 255 258 255 254 254 256 252 250 249 250 251 248 248 248 247 247 248 248 249 250 254 254 254 254 254
264 262 262 264 267 265 270 265 261 262 258 258 260 258 254 254 256 260 263 256 256 254 254 255 257 259 255 255 255 253 253 251 252 258 259 259 256 255 250 248 248 248 249 248 246 248 249 248 247 246 248 248 249 249

GFSWCAN_sfc_thetae_063.txt.gz
Theta_e
299 300 300 300 301 302 301 301 300 300 300 300 300 301 301 302 302 299 298 304 299 296 297 304 303 299 299 300 293 297 300 298 293 288 287 285 282 290 288 291 287 287 283 279 278 274 280 295 294 288 290 295 297 296
301 301 301 301 300 300 300 300 299 299 300 300 301 301 301 301 300 300 295 304 304 297 297 304 303 304 305 305 301 301 298 299 299 293 289 290 286 285 286 284 292 286 289 286 287 286 294 295 294 295 297 297 297 297
299 299 299 299 299 299 299 299 299 299 300 300 300 300 300 300 301 299 298 301 299 294 294 298 300 307 311 310 307 300 301 305 302 303 296 293 289 290 287 286 291 293 295 289 290 293 294 296 297 298 298 297 298 298
299 299 299 299 298 298 299 299 299 299 299 300 300 300 300 300 301 300 299 301 298 296 291 299 311 307 312 313 309 308 307 306 304 301 293 290 288 297 290 294 291 294 296 292 290 293 296 297 296 294 293 293 293 294
298 298 298 298 298 299 299 299 299 299 299 300 300 300 300 300 302 302 302 302 302 296 291 295 304 310 312 312 311 311 309 304 298 293 288 290 294 294 291 293 291 295 294 290 289 296 294 295 295 294 292 291 291 290
298 298 298 298 298 299 299 299 299 298 300 300 301 301 303 303 303 299 294 300 303 303 294 288 301 305 309 309 308 307 307 304 302 296 293 295 299 291 285 285 294 297 298 297 296 298 294 294 292 292 291 290 290 289
299 297 297 298 299 299 299 299 300 300 300 301 302 302 303 303 300 296 290 296 303 304 294 288 291 303 306 306 301 302 302 302 301 298 294 295 295 292 284 283 294 297 295 294 294 293 289 290 288 291 290 290 290 289
300 300 300 300 300 300 300 299 300 301 301 302 302 302 302 302 301 296 305 302 303 299 298 286 289 294 303 296 295 297 294 295 296 295 294 291 294 288 288 293 295 294 294 293 292 293 292 290 290 289 289 288 286 285
299 299 299 299 300 300 300 301 301 301 302 302 302 302 300 298 293 297 303 304 306 301 288 286 287 287 299 294 295 291 293 287 293 288 287 292 287 288 294 296 295 294 293 290 291 291 290 289 288 287 286 285 283 283
299 299 299 299 300 300 300 301 300 301 302 302 300 295 290 297 304 304 301 295 294 292 290 287 292 290 295 289 287 288 287 287 286 288 291 282 286 291 293 295 295 294 292 292 288 287 287 286 286 286 284 285 284 282
299 299 299 300 299 300 301 300 301 302 301 294 292 290 302 304 300 294 286 284 287 286 289 291 292 291 295 288 286 286 286 285 285 288 288 285 285 288 292 293 294 294 294 294 294 292 291 289 287 284 283 283 282 281
300 299 299 299 299 300 300 301 301 297 295 297 299 302 301 296 289 287 284 284 285 284 288 289 289 292 289 291 288 286 285 284 284 289 286 284 285 289 291 291 293 293 292 291 292 290 289 288 286 284 283 281 280 279
300 299 299 299 299 299 300 299 299 299 301 302 296 289 290 286 284 284 282 282 284 286 288 287 286 287 287 286 286 286 284 282 286 285 284 285 290 291 291 292 293 293 291 290 288 288 286 284 283 282 279 279 278 277
299 299 300 300 300 300 299 299 299 298 295 290 287 284 285 284 284 284 285 286 286 286 287 288 285 285 284 286 285 283 284 286 280 277 277 285 289 290 289 289 288 286 286 286 285 283 281 280 279 279 279 278 276 276
300 300 300 300 300 300 300 299 299 297 291 286 286 281 281 284 285 285 285 286 286 287 286 285 285 285 285 284 283 284 282 281 279 275 283 288 289 287 286 286 285 284 283 283 283 281 279 279 278 278 278 278 276 274
299 298 296 300 301 301 300 299 295 292 287 285 283 284 285 285 285 285 285 285 287 286 285 285 284 285 283 284 281 277 279 278 279 284 287 289 287 286 285 285 284 283 282 282 281 280 279 278 277 277 277 275 274 273
297 293 298 298 299 299 299 293 288 284 285 283 281 284 284 284 283 284 285 285 287 286 284 279 282 282 284 282 280 282 279 281 284 285 286 286 285 284 284 283 282 282 281 281 280 279 279 278 277 276 275 275 276 274
293 295 298 298 297 296 293 290 283 284 282 283 281 282 283 283 283 283 284 285 285 283 282 284 285 281 279 279 279 282 283 284 285 285 285 285 285 285 284 283 283 282 281 280 279 279 278 277 277 276 277 276 275 275
294 295 297 297 296 291 287 287 287 281 282 284 284 284 284 283 283 283 284 285 283 283 282 280 274 275 277 281 282 282 283 284 282 282 283 284 284 283 283 282 281 280 280 279 279 277 277 277 277 277 276 275 273 272
295 295 295 296 295 287 284 285 287 283 281 283 283 280 281 280 282 282 282 283 283 282 278 276 275 277 279 282 284 284 284 285 283 280 279 280 281 282 281 280 279 278 277 277 276 276 275 275 275 274 273 271 270 269
291 291 292 293 289 288 285 284 284 284 285 283 285 282 279 280 278 277 278 281 278 277 275 276 276 278 280 282 284 284 283 283 281 281 279 278 280 280 279 279 279 278 276 275 273 272 272 272 272 271 268 265 265 266
286 291 283 286 284 284 284 285 285 285 284 284 284 283 280 278 277 276 279 273 273 273 277 276 276 277 277 277 279 280 280 279 278 278 278 278 276 275 275 276 275 273 272 272 272 270 270 270 270 269 267 265 267 267
287 285 280 280 278 279 280 285 282 284 280 281 282 280 279 278 278 280 272 273 272 274 277 278 277 277 276 277 278 278 278 277 275 274 274 273 273 273 273 273 273 272 270 271 272 271 269 269 268 266 265 265 263 262
285 275 272 271 274 272 276 278 283 282 281 279 277 276 278 276 278 273 269 269 271 273 274 274 276 275 274 274 273 273 275 276 274 274 274 272 270 270 270 270 270 269 269 269 268 266 266 265 264 263 261 258 258 257
273 272 270 267 271 271 269 271 275 277 275 276 275 275 276 277 271 269 267 268 269 269 271 273 272 272 271 271 271 272 273 273 271 269 271 272 270 269 268 267 267 267 268 265 262 261 261 260 260 258 258 255 259 256
268 273 273 273 271 271 269 266 270 270 271 273 274 275 273 269 266 264 267 269 268 269 269 270 270 269 268 269 268 268 270 272 270 267 267 268 269 269 267 265 264 263 265 261 260 257 256 254 252 252 250 253 253 250
269 272 276 279 277 276 270 269 271 267 266 267 268 265 264 260 261 267 270 270 269 270 270 270 270 268 268 268 268 269 269 269 268 267 268 267 266 266 263 260 260 263 264 259 254 253 253 252 250 250 249 247 248 248
276 275 268 268 267 270 264 262 264 265 266 271 263 257 255 255 262 268 269 271 270 270 268 267 267 265 264 264 265 265 266 266 266 265 265 264 263 263 263 263 262 264 261 258 254 252 251 254 254 253 251 250 251 249
272 274 269 262 263 264 266 265 264 266 268 265 256 257 260 264 264 267 269 270 270 268 265 264 263 262 263 262 261 261 261 259 257 255 251 250 252 256 258 256 256 255 254 254 257 261 260 256 253 251 251 250 250 251
267 268 265 260 260 262 264 266 262 262 266 264 266 266 264 264 266 269 267 266 264 262 262 261 259 256 252 254 253 258 255 252 253 253 250 249 252 253 248 247 249 249 249 248 248 251 256 251 253 250 249 250 247 247
267 266 264 263 265 264 264 266 266 263 260 262 260 261 259 262 262 265 264 263 262 259 260 257 255 250 255 251 249 249 252 255 252 251 251 249 247 246 247 247 246 245 245 245 245 246 247 246 246 246 247 248 250 250
263 258 262 262 264 267 266 258 258 259 257 257 257 257 257 255 253 259 262 259 259 256 254 250 252 255 251 252 250 251 253 250 251 252 253 252 250 248 247 248 246 246 246 245 244 245 245 245 244 244 243 245 245 246
261 258 257 260 263 263 266 264 259 258 258 257 257 256 250 252 254 258 259 254 253 252 252 251 252 252 253 251 250 249 250 248 249 256 256 256 252 252 248 246 245 246 246 245 245 245 245 245 244 243 242 241 242 242

GFSWCAN_sfc_thetae_066.txt.gz
Theta_e
301 301 301 301 301 301 301 301 303 302 302 301 301 301 301 301 301 298 295 298 295 292 295 300 300 296 296 295 289 293 296 295 290 286 283 284 282 289 287 291 289 289 284 279 278 276 281 294 292 287 290 292 294 293
300 301 301 301 301 300 301 303 302 301 301 301 300 300 301 301 301 300 294 299 304 297 295 301 299 300 301 300 297 299 295 296 296 291 287 287 285 285 288 285 292 288 292 288 288 288 295 294 293 293 294 295 296 295
300 300 300 300 300 301 302 301 301 301 300 300 300 300 301 301 301 300 296 299 300 294 294 296 296 302 305 305 306 298 297 302 299 301 294 293 287 290 285 286 290 292 294 289 290 293 293 295 296 295 297 296 297 296
299 300 300 301 301 301 300 300 300 300 300 299 300 300 300 301 301 300 295 300 298 295 288 295 309 305 309 309 307 304 305 303 301 299 291 290 288 295 289 293 291 293 295 291 289 294 295 296 296 295 294 295 295 292
298 298 298 298 299 299 299 299 299 299 299 300 300 300 301 301 301 299 299 301 301 296 289 292 300 306 308 308 308 305 305 300 296 292 287 290 294 294 291 292 289 295 293 290 289 296 295 294 295 294 293 292 292 289
298 298 298 298 298 298 298 298 299 299 299 300 300 300 300 301 301 298 294 301 302 302 292 286 300 304 309 309 306 303 304 302 299 294 290 295 298 294 286 285 294 297 297 297 296 298 294 293 291 292 290 289 290 289
298 299 299 298 298 299 299 299 299 299 299 299 300 300 300 301 299 294 292 296 303 302 292 286 289 302 305 306 301 300 299 298 298 295 290 294 295 292 283 284 293 295 295 295 294 294 291 291 290 290 289 289 290 289
298 298 298 299 299 299 299 298 299 299 300 300 300 300 300 301 301 296 302 303 302 298 295 285 288 294 302 296 295 297 293 294 295 294 292 288 293 289 287 293 294 293 293 291 291 292 292 290 289 287 288 288 286 285
299 299 298 298 298 299 299 298 299 300 300 301 301 302 300 297 292 295 302 303 304 298 287 285 286 287 299 295 294 293 293 288 293 289 289 293 286 287 293 294 293 293 294 290 291 290 290 287 286 286 286 285 284 283
299 299 299 299 299 300 299 299 300 300 301 301 299 293 286 291 302 302 300 294 294 294 290 286 292 289 295 289 287 288 287 287 286 289 293 287 288 291 292 295 295 295 292 291 287 286 286 285 285 285 285 285 284 283
299 299 300 299 300 300 300 301 300 301 300 292 291 290 296 303 299 293 285 286 286 285 288 289 292 290 294 288 286 287 285 285 285 286 288 286 286 288 292 293 294 293 292 292 292 290 290 288 286 283 283 283 283 282
300 299 299 299 299 299 300 300 301 296 292 294 296 301 298 295 288 284 285 284 284 284 288 289 290 292 289 292 287 286 285 285 284 289 286 284 286 288 290 290 290 291 291 290 290 289 288 286 285 284 282 282 280 279
299 298 299 300 300 300 301 299 300 300 299 298 295 292 289 286 284 282 281 280 283 286 288 288 286 287 288 289 286 286 284 283 286 285 284 284 289 291 290 290 290 291 290 289 288 287 286 284 284 282 279 279 279 278
299 299 299 299 299 300 300 300 299 298 294 288 286 284 284 283 284 284 285 285 285 285 286 287 285 286 285 285 285 284 284 285 281 279 280 282 288 289 290 289 288 286 285 285 284 283 282 281 279 279 278 278 277 276
299 299 299 299 300 299 299 299 299 296 290 284 285 280 281 283 285 285 285 286 286 287 286 286 285 286 284 284 284 284 282 278 277 275 282 286 287 286 286 286 285 284 283 282 281 279 279 278 277 277 277 277 276 274
299 298 297 299 299 300 299 298 296 293 286 284 283 284 285 285 284 284 285 285 286 286 286 286 284 284 282 283 278 277 274 272 280 283 286 286 285 284 284 284 283 283 282 281 280 279 279 278 277 276 275 275 274 273
298 293 300 300 299 299 298 293 289 285 284 283 281 283 284 283 282 283 284 284 287 286 283 281 282 282 284 281 280 281 279 281 283 283 284 285 283 282 282 282 282 281 281 280 279 278 278 277 276 275 274 275 275 274
293 297 299 299 298 296 293 290 285 285 282 283 280 282 281 281 281 282 283 284 285 285 284 282 284 279 278 278 278 281 282 283 284 284 284 284 284 283 283 281 281 280 279 279 278 278 278 277 276 275 276 275 274 274
294 296 298 298 296 291 285 286 286 281 282 283 283 283 282 281 282 283 283 284 284 284 280 278 274 275 276 280 281 282 282 282 280 281 282 282 282 281 281 280 280 279 279 279 278 277 277 277 276 276 276 275 273 273
295 294 296 297 296 287 284 284 288 284 281 281 281 279 279 278 280 280 279 281 281 279 275 273 273 274 276 279 283 283 283 283 281 278 277 279 280 280 279 278 278 278 277 276 276 276 275 274 273 273 272 272 271 270
292 291 292 293 290 288 285 284 284 285 284 281 282 281 279 279 276 275 275 278 274 274 273 274 274 276 278 279 281 280 280 281 279 279 277 276 278 278 277 277 277 276 274 273 272 271 271 270 271 270 268 266 267 268
285 290 284 287 285 284 284 285 284 285 284 282 282 282 278 275 274 274 276 271 270 271 275 275 274 276 275 275 276 278 278 277 277 276 276 276 274 273 273 274 273 271 271 270 270 269 269 270 269 268 267 266 268 267
286 284 280 280 279 279 280 285 282 283 279 279 280 278 276 275 276 278 270 271 271 273 274 276 276 276 275 276 276 276 276 275 273 273 273 272 272 272 271 271 272 270 269 269 270 268 267 267 266 264 264 264 262 261
283 274 270 270 273 270 276 278 282 281 280 278 277 275 275 275 276 271 267 268 270 272 273 273 275 274 273 272 271 272 274 274 272 272 272 271 268 268 268 268 268 268 268 267 265 264 263 261 260 260 259 256 256 256
273 272 269 266 269 269 267 270 275 276 274 276 275 273 273 275 269 267 266 267 268 268 270 272 271 271 270 269 270 270 272 272 269 268 270 270 268 267 265 265 265 265 265 262 259 258 256 256 255 254 254 249 255 251
269 273 273 270 274 269 268 265 268 270 272 272 272 272 272 268 265 263 266 268 267 268 268 269 269 268 267 268 267 267 268 270 268 265 265 266 267 266 263 262 261 262 263 258 256 253 253 251 250 251 249 252 250 248
267 270 274 276 274 274 267 267 270 267 265 265 266 265 265 262 262 266 269 269 268 268 268 268 268 267 266 266 267 267 267 266 265 265 265 264 264 264 262 260 259 261 262 258 253 252 252 250 249 249 248 246 246 248
274 272 264 264 264 267 259 261 262 263 265 268 263 258 256 255 261 267 268 269 268 267 266 266 265 264 264 263 263 263 264 263 264 263 263 261 261 260 259 258 257 261 254 252 251 250 252 253 252 251 249 249 248 247
266 268 266 259 260 262 263 262 261 263 266 263 254 255 259 263 264 266 268 267 267 266 263 261 259 260 261 261 259 258 257 254 255 253 250 248 250 254 253 250 250 251 249 251 255 259 260 256 255 251 250 248 247 244
266 265 262 257 257 258 260 262 258 262 265 263 265 264 263 263 264 267 265 264 263 260 258 254 250 252 250 254 251 257 255 251 251 251 249 248 250 250 246 246 246 246 244 244 245 249 254 249 251 247 247 247 246 245
263 264 261 260 260 260 263 261 265 262 260 261 260 259 257 260 261 263 262 259 259 259 258 254 253 247 252 249 248 249 252 252 249 250 250 248 247 246 245 245 245 243 243 243 243 244 244 244 242 242 243 244 245 243
260 258 260 259 260 261 259 254 255 257 257 256 256 255 254 253 252 257 258 256 255 253 251 248 251 253 249 248 247 247 250 248 248 250 251 248 247 246 246 247 244 244 244 244 243 243 243 243 242 241 241 242 241 241
256 255 256 259 261 261 262 261 256 257 257 256 256 251 248 251 252 255 256 250 251 251 251 251 251 251 251 249 248 247 248 246 247 256 255 253 251 251 246 244 243 243 245 243 242 242 243 244 243 242 241 240 241 240

GFSWCAN_sfc_thetae_069.txt.gz
Theta_e
301 301 301 300 300 300 301 301 301 301 300 303 302 302 302 302 302 298 294 298 294 290 293 296 299 296 295 295 290 293 295 296 293 288 287 287 287 292 291 293 291 290 288 287 285 285 285 297 294 292 298 297 297 298
301 301 301 300 300 301 301 301 301 298 303 302 302 302 302 302 302 300 292 298 299 293 294 300 300 300 301 301 297 298 295 296 297 293 290 290 287 287 291 288 294 290 294 291 292 293 300 298 300 299 299 300 299 299
300 300 300 300 300 300 300 300 298 302 302 302 302 301 302 301 302 299 294 296 294 291 290 293 294 303 304 303 306 296 298 302 299 302 295 295 289 293 288 290 293 294 296 294 295 297 297 298 299 300 299 300 300 300
300 300 300 300 300 300 300 300 301 302 301 301 301 301 301 301 302 299 294 297 296 295 286 292 305 299 308 306 305 306 304 305 303 302 294 290 291 297 293 296 295 296 297 294 294 296 298 299 300 300 299 300 297 295
299 300 300 301 301 302 301 301 301 301 301 301 301 301 301 301 301 298 299 299 299 295 288 290 298 303 308 307 306 307 306 303 300 294 289 294 296 296 294 295 293 297 296 293 293 299 299 300 302 300 298 298 295 292
298 299 299 300 300 300 300 300 300 300 300 300 301 300 300 300 300 295 290 298 299 299 291 285 299 299 307 308 306 305 305 303 302 297 293 298 299 297 290 292 297 299 300 300 300 300 297 294 294 296 297 295 293 292
298 298 298 298 299 299 299 299 299 299 299 300 300 300 300 300 297 293 291 297 300 301 291 285 287 300 306 305 303 301 301 300 302 298 294 297 297 296 288 291 296 297 297 298 296 296 294 294 294 293 293 292 291 290
298 298 298 298 299 299 298 298 299 299 299 300 300 300 300 300 300 297 301 302 302 297 295 284 287 293 303 296 295 299 296 297 297 296 294 295 295 291 290 294 295 294 294 294 293 293 295 291 290 289 290 290 288 287
298 298 298 299 299 299 299 299 299 300 300 300 300 300 298 296 292 295 302 303 303 297 287 285 284 287 299 295 295 293 295 289 294 290 292 296 290 290 295 296 294 294 295 293 291 291 291 290 289 288 288 288 286 286
298 298 298 298 298 298 299 299 299 299 300 299 296 292 287 295 302 302 298 292 293 294 291 286 291 289 295 291 289 290 288 287 287 290 295 290 289 294 296 298 299 297 294 292 288 286 287 287 287 288 289 288 287 286
298 299 299 299 299 298 299 299 299 300 299 296 292 289 296 302 296 291 286 285 287 285 288 290 292 290 294 288 287 287 285 286 286 289 290 288 288 291 293 294 295 294 293 293 292 292 292 290 288 285 285 285 285 284
299 300 300 300 300 300 299 299 299 297 294 294 296 300 298 294 288 285 284 284 285 285 288 289 290 292 289 293 288 286 285 285 285 290 287 286 288 290 291 290 291 292 292 291 291 289 288 287 286 285 283 282 281 281
299 299 299 300 300 300 300 298 298 299 299 298 292 288 287 285 283 281 279 282 283 286 288 288 286 288 288 289 285 285 284 284 288 286 286 285 289 290 290 290 289 290 289 288 286 286 285 284 284 282 280 280 280 279
299 299 299 300 299 299 299 298 298 297 294 286 285 284 285 283 284 285 282 284 286 286 287 287 285 287 286 286 285 284 284 285 283 282 282 286 287 288 288 288 287 285 284 284 283 282 281 280 278 279 279 279 278 277
299 299 299 299 299 299 298 298 297 295 288 284 285 281 281 284 285 285 285 286 286 287 287 286 286 287 285 284 284 285 283 281 281 280 283 285 285 285 285 284 283 282 281 280 280 279 278 278 277 277 278 278 277 275
299 298 297 299 299 298 298 296 295 293 286 284 282 282 284 284 283 284 285 285 286 286 286 287 285 284 283 283 282 280 279 278 281 283 285 285 283 282 282 282 281 281 280 280 279 279 278 277 276 275 276 275 275 274
298 294 299 298 298 297 297 292 289 285 284 282 280 282 281 282 281 282 283 282 286 286 283 285 283 282 285 282 279 281 278 280 283 283 283 283 282 281 281 281 280 280 279 279 278 278 277 277 276 276 274 275 275 275
294 298 299 298 297 295 292 289 285 284 281 282 279 280 280 280 280 280 282 283 285 285 283 281 284 279 277 277 277 281 281 282 282 282 282 282 282 281 281 280 279 279 279 278 278 278 278 277 276 275 275 275 275 275
297 298 298 298 296 290 285 285 286 280 280 281 281 280 281 280 280 279 280 282 283 283 281 278 274 273 274 278 279 281 280 280 278 279 279 280 281 280 280 280 280 279 279 278 278 277 277 277 277 276 276 276 274 274
296 297 297 296 295 286 284 284 289 282 278 279 280 277 277 276 277 277 276 278 279 277 273 272 271 273 274 277 280 282 282 282 279 277 276 278 279 279 278 278 277 277 277 276 276 275 274 273 273 273 274 274 273 271
292 291 294 293 290 287 284 284 284 284 282 279 281 280 278 278 275 273 273 276 272 272 271 273 274 275 277 278 279 280 279 279 278 277 276 275 276 277 276 276 275 275 273 273 272 271 271 270 271 271 271 271 271 271
287 291 286 288 285 285 284 285 284 285 283 281 282 281 276 274 273 272 275 270 269 270 273 273 273 275 274 274 276 277 277 276 276 275 275 275 273 273 273 273 272 271 271 270 270 269 269 269 269 269 268 268 268 267
286 285 280 281 281 281 280 286 282 283 278 278 280 276 274 273 274 276 269 270 270 272 274 275 274 274 274 275 275 275 275 274 272 272 271 271 271 271 270 270 271 269 268 268 269 267 266 265 265 265 265 264 264 264
283 273 270 270 275 273 277 278 282 280 280 279 277 274 274 274 275 270 266 268 269 271 272 272 274 272 272 271 270 271 273 273 271 271 271 269 267 266 267 267 267 267 267 266 265 263 263 262 261 262 261 261 260 260
273 272 270 268 269 268 266 269 272 275 275 276 273 271 272 274 268 266 265 267 268 268 269 271 270 271 269 268 269 269 271 271 269 268 269 268 267 266 265 265 265 265 265 263 261 261 260 259 259 259 259 259 260 259
268 271 267 269 271 267 268 265 267 268 270 269 270 271 271 268 264 263 266 267 267 267 267 268 268 267 266 267 267 267 267 269 268 264 264 266 266 265 264 263 262 263 264 262 262 261 260 259 259 259 260 259 254 257
265 267 272 273 272 271 266 267 269 266 263 264 265 265 266 262 262 265 268 268 267 266 267 268 268 267 266 265 266 266 265 265 264 264 264 263 263 263 262 261 260 262 262 261 260 260 260 259 258 258 257 258 257 256
271 269 261 262 263 265 260 261 261 261 263 266 264 258 258 259 262 266 267 268 267 267 266 265 265 264 264 263 263 264 263 264 263 263 262 261 260 259 257 258 257 259 257 257 258 258 259 258 258 258 257 257 256 255
265 265 264 256 258 259 260 259 259 262 265 263 258 258 259 263 264 266 266 267 267 266 263 262 260 261 261 261 259 258 258 260 260 256 255 255 256 258 256 255 256 255 255 258 258 262 260 260 258 256 255 255 253 252
263 264 259 255 255 257 259 261 259 261 265 264 264 264 262 262 263 265 265 264 262 259 256 257 256 258 255 258 257 258 256 254 256 257 255 255 256 257 254 255 255 254 253 255 256 257 256 254 256 253 253 253 253 253
261 262 259 258 258 260 261 258 263 262 259 259 259 258 257 260 262 262 261 260 261 260 259 257 255 252 256 255 255 255 255 256 253 254 256 255 254 255 255 254 253 251 252 253 253 253 253 253 251 251 252 251 250 250
259 255 258 256 258 260 261 257 257 259 259 259 259 257 257 258 257 259 259 260 259 257 252 253 256 257 253 253 250 251 250 253 254 254 254 255 256 254 254 253 250 251 252 252 252 252 251 251 251 251 251 250 249 249
254 255 255 258 259 259 259 257 256 257 257 258 257 254 253 254 253 258 258 254 256 257 257 256 254 254 252 251 253 253 251 252 251 256 255 255 252 253 253 252 252 252 253 253 252 251 251 251 251 250 250 248 248 248

GFSWCAN_sfc_thetae_072.txt.gz
Theta_e
301 301 301 301 301 300 300 301 303 303 302 302 302 303 303 303 302 300 300 306 300 295 297 299 300 296 297 297 294 298 298 300 300 294 292 294 293 295 293 295 295 294 293 292 295 290 289 301 299 297 305 305 306 305
301 301 301 300 300 300 301 302 303 302 302 302 302 303 303 303 302 302 296 304 304 297 296 301 301 303 300 302 301 302 299 300 301 297 299 298 295 297 296 290 300 294 299 297 297 298 307 304 307 307 308 307 306 307
300 301 300 300 300 299 300 303 301 301 301 301 303 303 303 302 302 301 298 300 300 293 295 295 296 299 302 304 309 299 302 303 303 307 303 302 297 300 293 295 297 300 301 299 299 304 304 306 307 305 305 305 306 307
300 300 300 300 300 300 300 300 300 300 301 302 303 302 302 302 302 300 297 300 298 294 289 292 301 300 306 306 307 308 306 310 308 308 305 299 298 303 299 299 299 302 302 300 302 304 303 305 307 308 306 307 306 305
301 300 299 300 300 300 299 299 300 302 302 302 302 302 302 302 301 300 302 301 300 295 289 290 297 300 301 303 304 307 308 307 307 302 293 297 303 303 304 302 300 303 302 300 299 306 305 307 309 309 307 306 306 303
300 300 300 300 299 299 299 301 302 302 302 302 302 302 301 301 300 297 291 300 302 302 292 287 299 297 298 303 305 305 306 307 307 304 303 304 305 304 298 298 303 306 307 308 305 304 305 303 301 301 305 307 306 304
299 300 300 300 301 301 301 301 301 301 301 301 301 301 300 299 299 294 292 299 301 303 291 287 290 298 299 300 305 305 306 306 306 305 302 304 304 303 296 296 303 306 307 305 303 302 303 301 302 300 301 301 300 300
299 299 299 299 300 300 300 300 300 300 300 300 300 299 299 300 299 297 304 301 302 295 293 286 287 290 303 298 296 306 302 305 302 302 300 301 300 299 296 302 305 304 302 302 302 302 302 299 297 297 298 297 295 294
298 298 299 299 299 299 299 299 299 299 299 299 299 299 299 297 294 298 301 300 304 296 287 286 286 285 299 295 297 299 303 292 299 295 299 303 296 295 301 303 303 302 301 303 300 299 297 297 296 296 296 296 294 292
298 298 298 298 298 298 299 299 299 300 300 299 297 292 287 293 302 301 298 293 293 294 294 286 288 285 294 290 288 293 296 290 287 293 301 296 298 303 302 302 304 304 303 300 296 294 294 295 295 295 295 295 294 292
298 298 299 299 299 299 299 299 299 299 299 297 292 290 298 302 298 292 286 286 288 285 291 291 291 287 294 285 287 291 288 289 288 293 295 293 294 298 298 299 301 301 301 299 298 298 296 296 294 293 291 289 287 287
299 299 299 299 299 299 299 299 298 299 297 296 297 301 298 295 292 286 285 286 286 286 292 291 293 292 292 293 288 287 288 285 286 292 292 289 292 293 294 295 297 298 297 296 296 294 294 293 292 290 288 286 285 283
299 299 299 299 299 299 299 299 299 299 300 301 296 289 292 288 283 282 281 283 285 289 291 290 289 293 294 294 287 287 286 285 288 286 285 286 290 291 291 292 292 294 293 292 290 290 288 286 286 285 283 283 282 281
299 299 299 299 299 299 299 298 298 298 297 291 287 284 286 283 285 287 288 289 293 291 290 291 289 291 288 287 287 287 286 287 286 285 282 286 287 287 287 287 286 284 284 283 282 282 281 281 280 281 281 282 281 281
299 299 299 298 298 298 298 298 298 298 292 286 287 283 284 286 286 285 286 287 288 292 291 291 290 290 286 286 287 286 285 282 282 281 284 284 285 285 283 283 282 281 280 280 280 279 279 279 279 280 280 280 279 279
299 299 298 298 298 298 298 298 298 296 289 287 284 282 282 285 283 284 284 285 287 287 289 290 286 286 285 286 284 281 282 278 280 282 284 283 282 281 281 281 281 280 280 279 279 279 279 278 278 278 278 278 278 277
299 295 298 297 297 297 296 296 294 286 286 284 282 282 282 282 280 281 282 282 286 287 285 287 285 284 288 283 279 281 278 280 281 281 282 282 281 280 281 280 280 280 280 280 280 279 279 279 279 278 277 277 277 276
296 298 298 298 298 296 293 291 289 287 281 282 279 280 280 280 279 279 280 283 286 286 285 282 285 281 279 278 278 282 280 281 281 280 280 281 281 281 281 280 281 281 280 280 281 280 280 279 278 277 277 277 277 277
298 298 298 298 297 291 287 287 289 281 279 281 281 281 281 280 279 279 279 282 283 284 282 279 276 275 277 279 279 282 281 280 278 279 280 281 282 282 282 282 282 281 280 280 280 279 279 279 279 279 279 278 277 277
297 296 296 295 295 287 285 286 289 283 279 279 280 278 277 277 277 277 276 278 279 278 274 273 273 275 276 278 283 282 281 282 281 279 278 280 281 281 280 280 279 279 279 278 278 278 277 276 277 277 277 277 276 275
294 292 294 294 290 289 286 285 285 285 283 281 282 281 279 279 276 274 273 276 273 272 272 274 276 277 279 280 282 283 282 283 281 280 278 277 279 279 278 278 278 278 276 276 275 274 274 274 275 276 275 274 274 274
289 292 289 291 288 287 287 287 286 287 285 283 283 281 278 276 275 274 276 273 271 272 275 275 275 277 276 276 277 278 278 278 277 277 277 277 276 276 276 276 276 274 274 274 273 272 271 272 273 273 272 272 272 270
290 289 287 286 284 285 282 289 284 285 281 281 281 277 276 275 276 278 271 271 271 274 276 276 275 276 276 276 276 276 276 275 273 273 273 273 273 274 274 274 274 273 271 271 272 271 269 269 268 269 269 269 269 269
286 280 278 279 281 278 283 281 284 282 282 279 277 274 274 275 276 272 268 269 271 273 273 274 275 274 273 272 272 273 274 274 273 273 273 271 270 270 270 270 270 270 270 269 269 268 268 267 267 267 267 267 266 266
277 275 277 274 278 276 275 276 276 279 276 276 273 273 273 276 270 268 267 269 270 269 271 272 272 272 270 270 270 270 273 273 271 269 271 271 270 269 268 268 268 269 270 269 267 266 266 267 266 266 265 265 264 264
271 273 272 272 274 273 273 271 272 272 274 271 272 273 274 270 267 265 268 269 268 268 269 271 270 268 268 269 268 268 269 271 270 267 268 270 271 270 269 267 267 266 268 268 268 267 265 265 265 264 264 264 261 263
269 270 273 273 272 273 271 271 272 270 268 267 269 269 269 264 264 267 270 269 269 268 269 270 270 269 267 267 267 267 268 268 267 266 266 266 267 268 268 266 264 265 267 266 266 266 265 264 264 263 263 264 264 262
272 271 265 266 266 268 264 265 265 265 266 268 268 263 263 264 264 268 269 270 269 269 268 267 267 268 267 267 268 267 266 266 266 266 266 266 265 265 264 264 263 262 264 264 265 265 264 264 263 263 262 262 261 261
269 270 267 260 263 263 263 262 263 265 266 267 265 263 263 265 267 269 269 270 270 269 267 266 265 267 266 266 265 266 267 269 267 264 263 263 264 262 263 264 264 263 264 265 264 264 263 262 261 261 260 261 260 261
268 270 265 262 260 260 263 265 263 266 268 268 267 265 265 264 266 269 269 268 267 265 265 265 265 267 266 266 264 263 264 264 265 266 264 263 262 263 263 263 263 262 263 263 263 263 261 262 261 261 260 260 260 260
271 270 266 264 262 265 266 267 268 267 267 266 267 264 263 264 266 266 265 266 265 265 265 264 263 265 265 264 265 264 262 262 261 262 263 263 263 263 262 261 262 262 262 261 261 261 261 261 260 259 258 257 256 257
269 267 265 263 264 267 268 268 268 266 267 266 265 266 265 265 262 265 264 266 266 265 260 265 265 263 262 262 261 261 259 262 262 262 262 263 263 262 262 261 260 261 261 261 260 260 258 257 259 258 258 257 256 255
269 269 268 267 266 265 267 267 266 265 266 265 264 263 262 263 261 263 263 262 265 266 265 264 264 263 261 261 262 261 260 262 259 260 259 259 258 259 262 262 261 261 259 260 260 259 256 255 257 256 256 255 255 255

GFSWCAN_sfc_thetae_078.txt.gz
Theta_e
300 300 300 300 300 301 301 301 302 302 302 302 302 302 302 302 302 300 298 303 298 294 296 298 298 295 297 296 292 295 295 296 296 291 289 291 290 292 290 292 293 291 290 291 293 288 287 305 303 297 303 310 311 310
300 300 300 301 301 301 301 301 302 302 302 302 302 302 302 302 302 302 295 303 304 296 297 304 303 305 303 302 298 299 296 296 298 295 296 296 292 293 291 286 298 291 295 294 296 296 308 307 306 309 311 312 311 313
300 301 301 301 300 300 300 301 300 301 302 302 302 302 302 302 302 302 298 301 301 296 295 298 298 305 309 308 311 298 300 302 301 307 299 299 293 295 291 292 294 297 303 299 299 301 303 307 308 311 311 310 313 315
301 301 300 300 300 299 298 297 298 301 302 302 302 302 302 302 302 302 298 302 300 296 290 293 304 302 307 307 307 306 304 305 304 303 300 299 296 301 295 297 296 299 300 299 299 302 303 305 308 311 312 314 312 312
301 300 300 300 299 300 301 299 299 301 302 302 302 302 302 302 303 302 302 303 304 297 290 293 301 302 304 304 303 305 303 302 299 297 294 296 300 301 301 300 296 301 299 297 299 305 305 306 310 316 312 310 311 311
301 300 300 299 301 299 300 300 301 301 301 302 302 302 302 303 302 300 291 302 305 305 296 288 299 299 301 302 302 301 302 301 299 298 299 302 305 302 298 295 300 303 305 305 303 309 310 311 309 308 308 312 312 312
301 301 300 300 301 300 300 300 301 301 301 302 302 302 302 302 301 296 294 299 303 305 295 289 290 298 300 301 300 299 301 300 298 299 298 301 302 301 299 293 298 302 303 303 306 306 307 308 306 306 307 306 307 309
300 301 301 300 301 301 300 301 301 301 301 301 301 301 301 302 301 298 302 302 304 298 297 286 288 292 296 295 294 299 296 299 298 298 302 300 302 302 294 298 301 303 303 304 309 309 308 306 306 304 304 305 303 303
300 299 300 300 301 301 301 301 300 300 300 300 300 301 300 299 295 297 301 302 304 299 288 286 287 285 290 292 296 297 299 289 299 293 297 300 297 293 298 299 301 302 302 302 305 308 305 304 303 302 302 302 300 299
299 299 299 299 299 299 299 299 299 299 300 300 299 292 286 295 300 300 297 292 293 295 296 288 294 286 289 288 290 294 296 291 288 293 299 291 295 301 303 306 307 308 307 307 303 301 302 302 301 301 301 300 299 298
299 299 299 298 299 299 299 299 300 300 301 299 294 291 295 301 298 293 286 286 288 286 292 292 292 288 292 286 285 294 289 291 286 292 291 292 292 299 303 303 306 306 305 304 304 303 304 304 301 296 291 289 289 286
299 299 299 299 298 299 299 299 300 301 300 299 297 299 298 293 288 287 285 285 286 285 292 291 291 294 290 293 288 287 289 288 285 297 292 289 289 295 298 300 301 301 301 300 300 297 295 293 291 288 285 283 283 282
299 299 299 298 298 298 299 299 299 300 301 303 296 290 290 287 283 283 280 283 286 292 293 292 288 291 288 289 286 286 285 286 292 289 288 284 287 288 289 291 291 292 292 289 288 287 286 285 285 284 281 281 281 279
298 298 299 298 298 298 298 299 299 302 303 292 288 283 284 282 286 285 288 290 290 293 293 292 288 286 285 284 285 284 286 288 285 283 281 282 283 283 284 284 283 282 283 283 282 282 282 281 281 281 281 281 280 279
299 298 299 299 298 299 299 299 300 302 296 287 288 282 283 285 285 285 287 288 286 290 292 290 288 286 285 285 285 285 284 282 282 280 282 282 282 281 280 280 280 280 280 280 280 280 279 279 279 279 279 279 279 278
299 299 298 298 298 298 298 301 301 299 293 287 283 282 283 285 283 281 280 282 285 284 289 289 285 285 285 285 284 282 282 278 279 281 282 281 280 280 280 280 280 281 280 280 280 280 280 279 278 278 279 279 279 279
299 297 298 297 297 298 299 299 296 289 288 285 281 283 283 283 279 278 279 280 284 284 285 285 283 282 287 283 279 279 276 278 280 281 281 281 280 281 281 281 281 281 281 281 281 280 280 280 280 278 277 277 278 278
298 298 297 298 300 300 298 296 290 287 280 282 280 281 280 280 279 279 280 281 283 284 284 282 285 278 276 277 276 278 279 281 281 281 281 282 283 283 283 282 282 282 281 281 281 281 280 280 279 278 279 279 278 278
297 297 296 297 297 296 289 289 291 281 281 283 283 283 282 281 281 281 280 282 284 283 283 280 275 274 276 280 279 280 281 281 280 281 282 282 283 282 282 282 282 281 280 280 280 279 280 280 279 279 279 279 278 277
296 295 296 296 297 292 285 287 292 284 281 282 283 280 280 279 280 281 280 280 281 279 276 274 273 275 277 282 283 282 282 283 281 279 279 281 282 281 281 280 280 280 279 279 279 278 277 276 277 277 276 275 274 274
295 294 295 296 293 290 287 286 285 285 284 282 284 282 281 281 278 276 275 279 276 274 273 276 277 278 281 281 285 286 285 284 281 280 279 278 280 280 280 280 279 278 277 276 275 275 275 274 275 275 274 274 274 274
292 294 292 294 288 287 287 288 285 287 284 282 282 282 278 276 276 275 276 273 272 274 275 276 276 277 277 277 279 281 281 281 281 281 280 280 277 277 277 277 276 275 274 274 274 273 273 274 275 275 273 271 271 271
292 294 291 290 286 286 284 288 285 285 281 281 282 278 277 276 277 279 272 272 273 276 277 277 278 278 277 278 278 278 279 278 276 277 277 277 277 277 276 276 276 274 272 273 273 272 271 271 272 273 273 273 272 270
290 285 283 282 284 281 287 283 286 283 282 280 278 275 276 277 278 273 269 271 273 276 276 278 278 275 276 275 275 275 276 276 275 275 275 274 273 273 274 273 273 274 273 273 273 272 271 271 270 271 270 270 269 269
279 275 280 278 281 281 278 278 279 279 276 278 276 275 276 280 274 271 270 271 272 274 274 276 275 274 272 272 273 274 276 275 273 272 274 274 273 272 271 272 272 273 274 272 270 270 270 269 268 267 266 267 267 267
273 274 274 274 275 276 276 274 275 275 276 274 274 277 278 275 271 268 269 271 270 271 274 273 271 270 270 271 270 271 272 273 272 270 272 275 274 272 270 268 267 268 272 273 271 269 268 268 267 267 266 264 262 265
271 273 275 277 276 277 275 275 276 273 271 271 273 273 274 269 267 269 271 272 271 272 273 273 272 270 268 268 269 269 270 271 270 269 270 269 269 270 271 268 266 268 270 270 270 269 268 267 267 267 266 266 264 265
274 272 268 271 271 273 269 270 268 267 268 271 273 267 266 266 266 270 270 272 272 272 271 272 272 272 271 270 270 270 269 270 269 269 270 269 270 268 267 267 267 268 267 268 267 268 267 267 266 265 265 264 263 264
272 274 270 265 269 268 266 267 266 269 270 271 270 267 265 268 272 271 272 273 274 272 270 269 269 270 270 270 271 271 272 273 270 267 266 265 264 265 268 267 268 269 268 266 266 266 264 264 264 264 264 264 265 265
272 275 269 267 265 264 266 269 269 271 271 270 269 267 267 268 270 273 272 271 270 269 270 271 271 270 268 267 265 265 267 268 268 269 266 264 264 267 267 267 266 267 267 267 266 265 264 265 265 265 264 264 263 262
276 275 271 269 267 269 270 272 272 272 272 270 271 267 266 267 269 271 271 271 271 271 270 268 267 269 268 268 268 265 263 265 266 267 267 267 266 266 265 265 266 267 266 266 265 264 263 264 264 263 262 261 260 260
275 272 269 267 267 271 273 273 272 270 270 269 268 270 270 269 266 268 269 271 270 269 268 268 266 265 267 267 266 266 266 266 266 266 266 266 265 265 265 265 265 265 265 264 264 263 262 262 262 262 262 261 260 259
274 274 273 271 269 270 271 272 271 269 271 269 268 269 268 268 264 267 270 270 271 269 268 267 266 266 266 266 266 266 264 264 263 264 262 261 259 261 264 265 265 264 263 263 263 263 262 261 261 260 260 259 259 258

GFSWCAN_sfc_thetae_081.txt.gz
Theta_e
301 301 300 300 300 300 300 300 301 301 302 301 301 302 302 302 302 300 296 300 296 291 292 295 297 292 294 293 286 289 288 290 289 284 284 285 281 288 288 290 289 288 286 284 285 282 282 302 300 294 297 302 304 303
300 300 300 300 300 301 301 301 301 301 301 301 302 302 302 302 302 301 294 300 301 295 294 301 300 301 300 298 294 292 290 291 293 290 287 288 282 283 286 280 295 288 291 289 291 289 301 304 303 305 306 304 304 303
300 300 301 301 301 301 302 302 301 301 301 301 302 302 302 302 302 301 296 298 297 293 294 295 295 300 304 301 304 292 293 295 295 300 293 291 284 290 281 284 288 296 299 293 293 297 299 303 306 305 305 304 307 306
300 301 301 301 301 300 300 300 300 300 301 301 302 302 302 302 302 302 297 299 297 290 286 291 302 300 304 303 303 303 299 300 299 299 294 289 284 293 286 291 291 294 298 296 296 300 301 302 305 305 305 306 308 306
301 301 301 300 300 300 300 300 300 300 301 301 302 302 302 302 302 301 299 300 301 295 287 290 297 301 304 303 301 301 299 296 293 289 288 290 293 292 292 293 291 297 294 292 291 300 299 300 304 307 305 305 307 306
301 301 301 300 300 300 300 300 299 299 300 301 302 302 302 302 302 298 292 300 302 302 292 285 296 297 300 300 298 297 298 296 294 291 289 297 298 296 283 286 296 299 299 299 297 303 305 304 304 305 304 304 306 307
301 301 301 300 300 301 300 298 298 298 301 301 302 302 302 302 299 293 290 298 303 303 292 286 286 295 298 297 295 295 296 294 293 293 290 293 293 296 283 284 296 298 299 300 305 304 301 303 301 303 302 303 304 303
300 301 301 300 301 301 301 301 301 301 302 301 302 302 301 301 301 297 301 303 303 297 295 282 283 289 293 289 288 294 291 292 291 293 293 293 294 294 288 295 297 299 300 300 304 304 303 302 301 300 301 300 298 297
300 300 300 300 300 301 300 301 301 301 302 302 301 301 300 297 293 295 302 303 302 295 283 283 280 281 289 288 291 293 291 281 292 285 289 293 290 287 293 295 297 298 298 298 300 302 302 299 299 299 298 297 295 294
299 300 299 299 300 300 300 300 300 301 301 300 298 291 285 294 301 300 295 291 291 291 288 281 287 281 287 286 285 284 286 283 285 287 294 288 287 297 298 301 302 302 303 303 298 297 298 297 295 292 290 289 287 284
299 299 299 299 300 300 300 300 300 301 302 297 291 289 296 301 296 291 285 283 285 283 285 286 287 283 289 283 284 286 285 284 283 287 287 286 284 294 300 299 299 300 298 295 294 294 297 293 289 285 283 282 281 280
298 298 299 299 299 300 300 300 301 299 296 295 294 297 296 292 287 285 282 284 281 280 285 284 284 288 287 290 284 282 285 285 277 289 282 281 286 289 290 290 290 290 290 289 289 288 287 285 284 283 281 280 279 279
298 298 298 299 299 300 300 300 300 300 299 298 293 288 288 284 280 274 278 275 281 282 286 285 286 287 287 289 285 284 283 282 287 279 279 282 285 285 286 286 285 286 285 284 283 283 282 282 282 280 279 279 279 278
298 298 299 299 299 299 299 300 300 300 296 288 283 282 283 281 283 282 283 283 286 287 286 286 286 286 285 283 285 282 285 286 280 281 279 281 281 282 282 283 282 281 281 281 280 280 280 279 279 279 279 279 278 277
298 299 299 298 298 299 299 300 300 297 290 284 284 279 279 283 283 281 283 284 283 286 287 286 285 285 283 283 284 284 282 281 278 275 277 279 280 280 280 280 280 279 279 279 279 278 278 278 277 277 278 278 278 277
299 299 296 298 299 299 299 300 296 293 287 281 281 280 281 281 278 278 278 279 283 282 285 286 284 283 283 284 281 277 279 273 276 277 278 279 279 279 279 280 279 279 279 278 278 278 278 277 277 277 277 277 277 277
299 294 297 298 299 298 299 296 290 285 284 282 276 279 280 280 276 277 278 279 282 281 284 284 280 279 284 280 275 276 272 275 277 278 279 279 279 279 280 280 279 279 278 278 278 278 277 278 278 277 275 277 277 277
295 295 297 297 298 299 293 293 284 283 278 280 278 277 278 278 277 277 278 281 281 282 283 280 282 276 274 273 273 276 278 279 280 279 280 280 281 281 281 280 280 280 279 279 279 279 278 277 276 276 277 277 276 275
295 295 296 297 296 291 286 285 286 278 279 281 280 281 280 279 279 278 279 281 283 282 281 278 273 271 272 278 277 278 279 279 278 278 279 280 280 280 279 280 279 279 279 278 278 277 277 278 277 277 277 276 274 274
296 296 296 296 296 288 284 283 288 282 279 280 280 277 277 276 277 276 276 278 278 277 274 272 272 273 275 279 281 280 280 280 278 276 276 278 279 279 278 278 277 277 276 276 275 275 274 273 274 273 272 271 271 271
294 294 295 295 290 288 285 284 282 284 283 280 282 279 278 277 273 272 272 276 273 272 271 274 274 276 279 282 284 282 281 280 278 278 276 275 277 277 276 276 276 275 274 273 272 272 271 270 270 270 270 269 269 269
292 294 290 292 287 286 285 286 284 285 283 281 280 280 275 273 272 272 275 271 271 272 274 274 275 275 275 276 278 280 279 279 279 278 277 277 274 274 274 274 273 271 271 271 271 270 271 271 270 268 267 267 267 267
292 292 287 286 284 283 282 286 283 284 280 279 281 277 275 273 275 277 269 271 272 275 276 275 275 276 275 276 276 276 277 276 274 274 274 274 274 274 273 272 272 270 269 269 271 269 268 267 268 268 267 266 265 264
289 281 279 280 281 279 282 280 283 281 280 278 276 273 274 275 277 271 267 269 272 274 275 275 275 273 274 274 273 273 274 275 273 273 273 272 270 271 271 271 271 271 270 270 269 267 266 265 263 263 262 261 260 261
272 270 274 274 276 278 277 276 275 276 271 274 272 271 273 277 271 269 267 269 269 271 272 273 273 272 270 270 270 271 274 273 271 270 271 272 271 270 270 270 270 270 270 267 265 264 262 261 259 260 260 258 261 259
267 271 270 271 271 272 273 270 272 271 272 271 272 275 273 268 264 263 267 267 268 269 270 270 268 267 266 268 267 268 269 272 270 267 267 272 271 269 267 265 265 266 270 266 263 260 260 260 259 258 257 258 257 257
266 269 273 276 274 275 270 269 272 267 264 264 268 266 268 261 261 266 269 269 269 270 270 270 269 268 267 267 268 268 269 268 267 267 268 267 267 267 267 264 264 265 267 266 264 262 260 258 260 259 256 253 253 252
269 269 263 268 265 269 264 264 263 262 264 268 268 261 258 260 261 267 268 270 270 270 270 270 271 270 269 268 268 268 268 268 268 268 267 267 267 266 265 264 265 266 263 262 261 261 260 258 257 256 255 252 252 252
271 270 267 260 263 263 264 263 264 267 268 268 263 261 261 268 268 268 270 271 272 270 268 268 268 269 268 268 267 267 268 268 267 263 262 261 261 262 263 263 265 264 261 261 264 259 258 256 254 253 254 253 254 252
268 271 263 260 259 261 262 268 264 264 266 265 266 266 265 265 268 271 270 270 269 268 269 269 269 267 265 264 263 263 265 266 266 265 262 260 261 261 262 260 259 260 261 260 256 255 262 255 259 253 253 252 251 250
273 269 265 264 262 264 264 264 267 269 267 263 262 261 260 262 265 268 269 270 270 268 267 265 265 265 265 264 264 261 260 263 263 263 264 263 261 260 257 257 258 257 255 255 254 252 252 253 252 252 251 250 250 249
269 265 261 259 261 264 268 268 267 265 264 260 261 261 263 262 260 262 267 268 267 266 266 265 264 263 265 264 265 264 263 261 260 259 260 260 257 256 256 256 256 254 253 253 252 252 252 251 251 251 250 251 250 249
267 266 265 263 262 264 264 268 265 265 265 263 259 261 260 260 258 262 267 269 267 265 264 264 264 264 264 264 262 261 260 257 258 260 257 256 253 257 258 256 255 252 253 253 252 252 252 252 250 250 249 249 248 247

GFSWCAN_sfc_thetae_087.txt.gz
Theta_e
299 300 300 300 301 301 301 301 301 301 302 302 302 302 302 302 303 301 298 300 294 288 290 293 293 289 289 289 284 288 287 286 284 279 276 279 277 282 282 287 286 285 284 283 284 280 278 296 299 290 294 301 302 300
299 300 300 300 300 300 300 300 300 301 301 301 302 302 302 302 302 302 294 300 300 291 290 295 295 295 295 295 292 291 290 288 288 282 281 281 278 278 282 279 291 283 288 286 287 285 293 297 301 303 303 302 302 302
300 300 300 300 300 300 301 301 301 301 301 301 301 301 302 302 303 302 296 296 294 288 288 289 288 294 299 298 300 290 291 294 293 294 287 285 280 283 277 282 286 291 295 290 290 293 294 297 300 304 304 302 304 304
300 299 300 300 301 301 301 301 301 301 301 301 301 301 301 302 302 302 297 297 294 290 283 284 294 291 297 298 301 300 298 299 297 295 288 283 281 289 283 286 288 290 295 292 290 294 295 298 300 302 304 305 304 304
299 300 301 301 301 301 301 301 301 301 301 302 302 301 302 301 302 300 299 298 297 289 280 281 292 294 296 297 298 299 298 296 293 290 287 286 287 288 287 288 287 292 291 288 287 295 294 296 300 303 302 303 304 304
301 301 301 301 300 299 300 300 300 301 301 302 302 302 302 301 301 297 287 297 299 295 286 281 290 292 296 298 297 297 297 296 295 291 288 290 294 290 281 283 291 295 294 296 294 298 298 300 302 303 303 301 303 304
301 301 301 300 299 300 300 300 301 300 301 301 301 301 301 301 298 290 287 294 299 296 289 283 286 292 297 297 296 295 296 296 295 292 288 288 290 292 285 281 291 294 294 295 297 299 298 300 299 299 298 295 295 293
300 300 301 299 298 299 299 299 300 300 300 300 301 301 301 301 298 294 296 299 298 293 290 281 285 288 294 290 289 295 291 292 291 290 289 287 287 286 281 288 292 294 294 295 296 297 300 300 298 296 293 290 286 285
300 300 300 300 300 300 300 300 300 301 301 301 301 301 298 294 291 294 300 300 298 293 283 283 281 281 291 289 291 289 291 285 287 283 284 287 282 281 287 289 293 294 293 294 299 297 297 295 294 291 289 286 282 281
300 300 300 300 300 300 300 300 300 301 301 299 296 291 285 295 301 300 294 289 290 291 287 281 286 283 289 286 284 284 281 279 281 285 288 283 282 288 293 294 292 291 291 290 294 292 291 288 286 284 283 282 281 279
300 300 300 300 300 299 299 299 300 300 299 295 289 289 297 300 293 288 283 283 284 283 285 285 285 284 288 282 283 281 282 280 278 280 282 283 282 287 291 290 289 289 288 287 288 291 291 287 283 280 280 280 279 279
300 300 300 300 300 300 300 300 300 295 293 294 295 297 295 290 285 282 280 283 280 280 282 284 283 285 286 284 282 284 278 283 278 284 283 280 284 288 288 287 286 287 286 285 284 283 282 281 281 280 279 278 278 278
298 299 299 300 300 300 300 300 300 300 299 296 291 286 286 281 275 274 275 279 278 278 281 285 283 286 287 285 281 282 279 278 284 283 279 282 285 285 285 284 283 283 283 282 281 281 281 280 280 279 278 278 277 276
298 298 299 299 299 299 300 299 300 297 293 285 279 274 273 272 277 277 280 283 282 284 284 285 284 284 285 282 282 279 279 284 280 277 278 281 281 281 282 283 282 280 280 279 279 279 278 278 277 277 277 277 276 274
298 297 297 297 299 299 299 298 297 292 286 279 279 274 274 278 279 279 280 281 281 283 286 285 285 285 283 279 282 281 280 277 279 277 277 279 280 280 279 279 279 278 278 277 277 276 276 276 276 275 276 276 275 274
298 296 295 297 298 298 298 295 292 290 283 278 276 275 276 275 274 276 276 277 281 281 284 286 283 281 277 279 279 275 274 270 272 275 278 279 279 278 278 278 278 278 277 277 277 277 276 275 275 274 275 275 274 274
296 291 296 297 298 296 296 290 286 281 279 275 273 275 274 271 273 275 275 277 281 280 282 282 276 275 280 275 272 275 270 273 275 277 278 278 277 276 277 277 277 277 276 276 276 276 276 276 276 275 273 273 274 273
289 291 296 298 296 291 289 286 282 279 275 276 272 272 273 272 271 271 274 277 279 281 279 276 278 273 271 271 271 275 276 277 278 277 277 277 277 277 278 277 277 277 277 277 276 276 276 275 274 273 273 273 272 272
293 293 296 296 292 286 282 282 281 274 274 274 275 274 272 271 274 276 276 278 280 280 278 275 271 270 270 276 275 275 275 275 274 274 275 277 278 277 277 278 277 277 276 276 276 275 275 275 274 274 273 272 270 270
296 295 295 295 292 282 280 280 282 277 272 272 272 272 272 272 274 274 275 276 277 275 271 270 269 271 273 276 277 276 277 277 275 273 272 274 275 275 275 275 274 275 274 274 273 273 273 272 272 272 271 270 268 267
291 290 293 290 285 286 285 279 280 278 277 275 275 276 272 274 271 271 272 276 272 270 269 271 271 275 277 277 278 278 277 277 274 274 273 272 274 274 274 274 274 273 272 271 270 270 270 269 269 269 267 266 266 266
289 293 285 288 284 285 283 284 282 283 279 278 278 277 273 270 269 270 273 270 270 270 272 271 272 273 273 274 275 276 275 275 275 274 274 274 271 271 271 272 272 270 270 270 269 268 268 268 268 266 265 264 264 263
289 288 283 283 281 281 281 285 280 281 277 277 277 273 270 268 271 274 267 269 269 271 272 272 273 273 273 273 274 273 274 273 272 272 271 271 271 271 271 271 271 269 268 269 269 268 266 266 265 263 262 261 260 259
284 276 275 275 277 275 280 278 281 278 277 276 274 272 272 270 273 268 265 266 268 271 269 269 271 271 271 271 269 271 272 273 271 271 272 270 269 269 270 269 269 269 269 268 267 265 264 263 262 261 259 258 257 256
271 269 269 268 273 272 269 268 269 272 268 271 269 270 272 273 267 264 263 265 266 267 268 269 268 268 267 268 268 268 271 272 270 269 270 270 269 269 268 268 267 267 268 265 263 262 260 261 260 259 258 257 256 253
264 267 266 267 268 268 268 262 263 263 263 264 265 268 266 262 260 260 263 265 265 266 266 267 267 266 265 266 266 266 267 270 269 266 267 270 269 268 266 265 264 264 265 263 262 261 259 259 259 257 255 254 253 251
260 260 268 270 269 269 263 264 266 262 260 259 260 257 256 253 256 263 267 267 267 268 268 269 268 267 266 266 266 267 267 267 266 266 267 266 266 266 266 264 262 263 264 263 261 260 259 256 254 253 250 247 248 251
265 265 259 259 261 264 257 258 259 259 260 265 262 256 255 255 259 265 266 268 268 268 268 267 267 267 267 267 267 266 266 266 266 266 266 265 264 264 263 262 263 264 259 258 258 257 256 255 253 252 252 250 247 244
260 262 262 254 256 259 261 256 258 263 264 263 253 254 258 263 264 264 267 269 269 268 266 265 265 266 266 266 265 265 266 265 262 260 259 259 259 260 261 260 259 259 258 260 262 258 256 254 253 253 250 250 245 243
259 261 257 253 255 258 257 257 256 257 262 262 264 264 263 264 266 269 268 267 265 265 265 265 265 264 263 263 262 262 263 263 263 262 259 258 258 259 256 258 258 255 256 258 258 260 260 253 253 248 249 248 246 246
261 259 257 257 258 259 256 252 256 259 255 255 252 255 257 260 261 265 265 264 264 263 263 262 262 263 263 262 261 260 259 261 261 262 262 261 259 257 255 254 253 254 255 255 251 249 247 246 245 245 246 246 244 244
255 252 255 255 258 260 260 256 254 254 252 254 254 250 254 253 252 256 264 261 262 261 262 261 260 259 260 261 260 260 259 258 258 258 258 257 256 255 256 254 252 253 252 250 247 247 247 247 246 245 245 245 244 244
254 253 252 254 257 257 259 261 260 258 256 255 256 254 253 252 253 257 261 262 259 260 260 260 260 258 258 258 258 257 257 256 258 260 258 257 255 255 252 249 248 250 251 247 245 246 246 247 245 245 244 243 243 242

GFSWCAN_sfc_thetae_090.txt.gz
Theta_e
298 298 298 299 299 299 300 300 301 301 301 301 301 301 301 301 301 299 296 299 293 287 290 291 292 289 288 288 283 288 287 286 285 281 279 278 277 281 280 282 282 281 283 283 285 282 280 295 296 291 293 298 300 300
298 298 299 299 299 300 300 300 300 301 301 301 301 301 301 302 302 301 293 299 299 291 290 295 295 296 295 294 290 290 287 287 287 284 280 280 277 277 281 278 286 281 287 285 287 286 295 296 296 299 303 300 300 300
298 298 299 299 300 300 300 300 300 301 301 301 301 302 302 302 302 301 297 298 295 287 287 290 290 295 298 296 299 288 288 292 292 295 289 284 278 281 276 279 283 287 292 287 288 292 294 295 298 299 301 301 303 303
299 299 300 300 300 300 300 300 300 300 301 301 301 301 301 302 302 301 296 297 294 290 284 286 294 291 297 297 297 296 294 297 296 295 289 287 280 287 281 283 283 287 290 288 289 294 296 296 298 298 300 304 303 305
299 299 299 300 300 301 301 301 301 301 301 302 301 301 301 302 302 300 298 298 297 290 283 282 290 293 295 295 295 297 296 294 292 289 286 286 289 288 286 285 283 289 287 285 285 294 292 293 297 301 299 300 300 301
301 301 301 301 301 300 300 300 300 301 301 301 302 302 301 301 301 297 289 297 298 296 287 280 288 289 292 292 293 293 294 295 294 290 287 287 292 290 282 280 287 290 292 293 292 295 294 296 299 299 300 296 292 291
300 301 301 300 299 300 300 300 300 300 300 301 302 302 301 301 299 289 287 294 299 298 288 280 279 289 292 291 290 292 293 293 293 291 289 289 288 291 279 282 288 292 293 293 294 294 292 295 295 294 294 293 292 289
300 300 300 298 299 300 299 300 300 301 300 301 301 301 301 301 297 293 296 299 299 292 290 277 276 288 292 286 287 293 289 292 292 289 290 289 289 286 283 287 290 292 293 293 293 294 295 295 293 291 290 289 286 284
300 300 300 300 300 300 300 300 300 301 301 301 301 301 297 293 289 294 300 300 299 292 283 281 274 281 291 290 291 290 292 284 288 285 286 289 285 283 286 288 289 291 292 294 296 297 296 292 290 289 288 286 283 281
300 300 300 299 300 300 298 299 300 301 300 297 294 288 285 294 300 299 294 289 288 291 288 278 286 283 288 286 286 285 287 284 282 285 288 285 283 287 289 291 291 293 293 292 291 291 289 287 284 282 281 282 281 279
300 300 299 299 299 300 300 300 300 299 299 294 290 288 295 299 292 289 283 282 284 281 284 284 285 284 288 284 284 285 283 282 276 279 281 282 281 285 289 289 287 287 288 287 288 286 289 286 281 280 279 280 279 279
300 300 300 300 300 300 300 300 299 296 295 295 295 297 294 290 285 280 276 282 282 279 284 282 285 287 285 288 284 283 280 282 276 283 282 279 281 287 288 286 286 286 284 283 283 282 281 281 280 279 278 278 277 277
299 299 299 299 299 300 300 300 300 300 298 294 288 284 284 281 277 277 270 278 278 281 284 284 283 285 285 283 282 282 278 278 283 281 280 280 284 284 285 284 283 283 283 282 281 280 280 279 279 279 277 277 276 275
298 298 298 299 299 299 298 298 297 295 290 283 279 275 273 266 272 276 279 281 281 283 285 282 283 283 284 282 282 278 276 281 280 276 278 281 281 282 282 283 281 280 280 279 279 279 278 277 276 276 276 276 275 273
297 297 297 297 299 298 297 297 296 289 283 277 277 271 273 277 278 278 280 280 280 282 285 283 284 284 282 280 281 280 279 277 278 272 274 279 280 280 279 279 279 278 277 277 277 276 275 275 275 274 274 274 274 273
297 296 294 297 298 298 296 293 290 287 281 276 274 272 274 274 273 275 275 276 280 280 284 285 282 280 278 277 279 275 275 271 268 272 275 279 278 278 278 278 277 277 276 276 276 275 274 273 273 273 274 274 273 273
296 290 295 297 297 296 294 287 284 280 276 274 271 274 273 272 271 272 273 275 279 280 280 280 276 273 278 273 272 274 269 272 273 274 276 277 276 276 276 276 276 276 275 275 275 274 274 274 274 273 271 272 272 271
290 291 296 297 295 292 288 285 281 278 275 275 271 271 272 272 271 270 274 276 278 280 279 275 278 273 271 270 271 274 275 275 276 276 276 276 277 277 277 276 276 276 276 275 275 275 275 273 272 271 271 271 270 270
291 293 296 295 291 286 283 281 280 272 272 273 271 272 272 272 275 276 276 278 279 279 277 275 270 269 270 274 273 274 274 275 273 273 274 276 277 277 277 277 276 276 275 275 275 273 273 274 273 272 271 270 268 268
295 294 294 293 290 282 280 279 281 275 269 271 272 271 272 272 273 274 274 275 276 274 270 268 268 270 272 276 277 276 275 275 274 272 272 273 275 275 274 274 273 274 273 273 273 272 271 270 271 271 270 269 267 266
289 290 292 288 284 284 283 279 278 275 274 273 275 275 272 274 271 270 270 274 271 269 268 269 270 273 275 276 276 276 276 276 274 273 272 271 273 273 273 273 273 273 271 270 269 269 268 267 268 268 267 266 266 265
285 291 282 285 282 284 282 283 280 279 276 274 275 276 271 269 269 270 272 268 267 268 269 270 271 272 272 272 273 274 274 274 273 273 273 273 271 271 271 271 271 269 269 269 269 267 267 267 266 266 264 264 264 263
286 286 282 283 279 277 280 285 277 280 276 276 277 272 269 268 270 273 266 267 267 269 270 270 272 272 271 272 273 272 273 273 271 271 271 270 271 271 271 270 271 269 267 268 268 266 265 265 264 263 262 261 260 259
283 276 274 273 276 273 279 276 279 277 276 275 273 270 270 269 272 268 264 265 267 269 268 269 270 270 270 270 268 270 271 272 271 270 271 270 268 268 269 268 268 269 268 268 266 265 264 262 262 261 260 259 259 258
270 267 269 266 271 270 268 267 268 270 268 270 269 268 269 271 265 263 262 264 265 266 266 268 268 267 267 267 268 268 270 271 269 268 270 270 268 268 267 267 267 267 268 265 263 262 261 261 260 259 259 258 257 255
262 264 264 265 265 265 265 261 262 262 262 262 263 265 264 261 259 259 262 264 265 265 265 266 266 265 264 265 265 265 266 270 269 265 265 268 269 268 266 265 265 264 265 265 263 261 260 259 259 258 256 255 254 251
260 262 267 269 268 268 262 263 265 261 259 259 260 256 257 254 255 262 266 266 266 266 267 267 267 266 265 265 266 266 266 266 265 265 266 266 265 266 266 264 263 263 265 263 262 261 259 257 257 255 251 247 247 249
265 264 257 257 259 263 255 257 256 257 259 264 260 254 253 254 258 264 265 267 267 267 267 267 267 267 266 266 267 267 266 266 266 266 266 265 264 263 263 262 263 264 260 260 258 259 258 257 254 253 253 250 247 243
258 260 261 254 256 258 259 257 258 261 263 261 251 254 258 262 263 264 266 268 268 267 265 264 265 266 265 265 264 264 264 265 263 261 260 260 260 260 260 260 260 260 260 261 263 258 257 255 253 252 249 249 244 241
258 260 256 252 254 255 255 256 256 256 261 261 263 264 262 262 264 267 266 265 264 262 263 263 263 262 262 262 261 261 262 262 263 262 260 259 260 259 258 258 257 256 258 259 260 258 259 253 252 247 247 246 245 245
259 257 255 256 256 256 255 251 252 255 254 254 252 255 256 257 260 263 263 263 262 262 261 260 260 260 259 260 259 259 259 260 261 261 261 260 259 258 256 255 253 255 255 257 254 251 247 245 244 245 246 245 245 245
253 250 254 254 258 258 256 251 250 251 249 251 253 249 251 252 252 257 262 260 260 259 260 259 259 257 257 257 258 259 259 258 258 258 259 258 256 255 254 255 253 255 255 250 248 247 247 247 244 244 244 244 243 243
252 251 250 253 254 254 256 258 258 255 253 253 252 250 249 250 252 256 259 261 258 257 257 256 255 255 257 257 257 256 256 256 257 260 258 257 255 255 251 247 249 250 251 247 245 245 246 246 244 244 243 243 242 242

GFSWCAN_sfc_thetae_093.txt.gz
Theta_e
297 297 297 297 297 298 298 298 299 299 299 300 300 300 301 301 301 298 295 299 291 286 289 291 292 288 289 289 283 288 287 288 286 283 282 281 280 282 282 283 282 284 281 280 282 280 278 297 298 291 295 299 301 303
297 297 297 298 298 298 299 299 299 299 300 301 301 300 301 301 301 300 293 298 299 290 289 296 296 296 295 294 290 291 288 288 288 285 284 284 281 283 283 279 287 281 287 286 286 284 296 298 297 300 303 299 302 303
297 298 298 299 299 299 299 299 300 300 300 300 300 301 301 301 301 300 296 297 295 289 287 290 290 296 298 297 299 288 290 293 291 294 289 286 281 285 281 282 285 288 292 289 289 292 294 297 299 300 301 301 303 306
297 298 298 298 299 299 300 300 300 300 300 300 301 301 301 301 301 301 296 297 294 289 284 287 296 293 299 298 298 298 295 297 296 295 289 287 284 289 285 286 286 289 291 289 289 292 295 297 298 299 300 303 304 305
298 299 299 299 299 300 300 300 300 300 300 301 301 301 301 302 302 300 298 298 297 291 284 285 291 294 296 297 296 297 296 294 293 289 286 285 289 289 289 288 287 291 289 287 286 293 294 295 298 299 301 298 297 301
300 301 301 301 301 301 301 301 301 301 301 301 301 301 301 301 302 297 289 296 298 297 288 282 290 290 293 294 294 294 294 294 293 289 288 290 293 291 284 283 290 293 294 295 291 295 297 297 298 299 299 296 294 294
300 301 301 301 300 300 300 300 300 300 301 301 302 302 302 301 298 291 289 295 299 298 288 282 282 288 292 292 292 291 294 293 292 289 287 289 290 292 286 283 290 293 294 295 296 296 294 295 295 297 296 293 291 290
300 300 299 299 300 300 300 300 300 300 300 301 301 302 301 301 298 293 298 300 299 292 290 280 279 286 292 287 286 291 289 291 291 289 289 288 291 290 285 289 292 294 295 295 295 296 296 297 295 292 292 292 289 287
300 300 299 298 298 299 299 300 300 301 301 301 302 301 299 290 287 293 300 300 299 292 284 282 277 279 291 288 290 290 291 285 291 286 287 289 287 283 288 290 291 293 293 293 296 296 298 295 293 291 290 288 284 283
299 299 299 299 299 299 298 300 300 301 301 301 297 287 284 291 300 299 294 287 288 290 287 281 284 281 288 287 285 284 287 284 281 285 290 285 285 290 292 293 293 292 294 295 293 294 293 291 287 285 286 285 284 282
300 300 300 300 299 299 298 298 299 298 298 291 286 287 295 299 293 289 283 283 284 282 284 285 285 284 289 285 284 286 284 284 279 284 284 283 283 287 290 290 288 288 289 288 289 288 289 292 285 282 281 281 281 280
299 299 299 300 300 300 300 299 299 297 295 295 294 296 295 290 285 282 280 283 281 279 284 283 285 287 286 289 285 284 282 283 278 286 283 280 284 287 288 287 287 286 285 284 284 284 284 283 283 282 280 279 279 277
299 299 299 299 298 300 300 299 299 299 297 294 288 285 285 279 274 271 275 278 279 282 285 285 284 285 285 286 283 283 280 280 285 282 280 282 283 284 285 284 283 283 283 282 281 281 281 280 281 280 278 278 277 275
298 298 299 298 298 298 297 296 296 294 290 283 277 270 271 270 273 275 278 280 281 283 285 285 284 284 285 282 283 279 280 283 279 278 279 279 281 281 282 282 281 280 281 280 280 279 278 277 276 276 276 275 274 272
297 298 297 297 298 298 296 296 293 288 283 276 276 270 270 276 276 277 278 281 280 282 285 284 285 285 282 281 283 281 278 277 279 276 275 278 280 280 280 279 278 278 277 277 277 276 275 275 274 274 274 274 273 272
297 296 294 297 297 296 295 292 289 286 280 274 272 271 272 273 272 273 274 276 279 279 283 286 282 279 279 281 279 275 276 274 272 274 277 279 278 278 277 278 277 277 276 275 275 274 274 273 272 272 272 272 271 270
295 290 295 297 297 294 293 287 285 280 277 273 271 274 273 271 270 271 273 275 279 278 280 280 275 273 279 275 272 274 271 273 276 276 277 277 276 276 276 276 276 275 275 274 274 274 273 273 273 272 270 271 271 270
289 290 296 296 294 292 287 285 281 278 272 273 271 272 273 273 272 272 275 277 278 280 278 275 278 272 270 270 270 274 275 275 276 276 276 277 277 277 277 276 276 276 275 274 274 274 273 272 271 270 270 270 270 269
292 293 294 294 291 286 283 281 280 271 271 272 273 273 273 273 275 276 275 277 279 278 277 274 270 269 270 274 274 275 275 275 273 274 275 276 277 276 276 276 276 275 275 274 274 273 273 273 272 271 270 270 268 267
294 294 294 293 290 283 280 279 281 274 269 272 273 272 273 272 273 273 273 274 275 273 269 268 267 269 271 274 277 275 275 275 274 272 272 273 275 274 274 274 273 273 273 272 272 272 271 270 271 271 270 268 267 266
289 289 290 288 284 284 282 279 276 275 274 273 275 275 273 274 271 270 269 273 269 267 267 269 269 271 273 274 276 276 275 275 274 273 272 271 273 273 273 273 273 273 271 270 269 268 268 268 268 268 267 266 266 266
284 290 282 285 282 283 281 281 279 277 276 276 276 275 270 269 269 269 271 267 266 266 268 268 269 270 271 271 272 274 274 274 273 273 273 273 271 271 271 271 271 269 269 269 268 267 267 267 267 267 265 265 265 264
285 284 281 280 277 275 279 284 276 279 274 275 275 271 269 269 270 273 266 267 267 269 269 270 271 272 270 272 272 272 273 272 271 271 271 270 271 271 271 271 271 269 267 267 268 266 265 265 265 264 264 264 263 262
282 275 272 271 274 269 275 272 278 276 275 274 272 268 269 270 271 267 263 264 267 268 268 268 269 270 270 269 268 269 271 272 270 270 271 270 268 268 269 268 268 269 268 268 266 265 265 264 264 264 263 262 261 260
269 265 268 265 270 268 266 265 267 269 267 268 268 266 267 270 265 263 262 263 265 265 266 268 268 266 266 267 267 267 269 270 268 267 270 270 269 268 267 267 267 268 268 266 264 263 263 263 263 262 262 261 260 259
261 264 264 264 264 264 265 262 262 263 263 263 263 264 265 262 260 259 262 263 265 265 265 266 266 265 264 265 264 265 266 269 269 266 265 268 269 269 267 267 266 265 267 266 265 263 262 262 262 261 260 259 258 258
258 259 265 267 267 267 262 262 264 261 260 259 260 258 259 255 257 262 266 266 265 266 267 267 267 266 265 265 266 266 266 266 265 265 266 265 265 266 267 266 264 265 266 266 265 264 262 261 261 260 258 258 258 258
264 264 258 258 260 262 255 256 257 258 259 263 260 256 255 255 259 264 266 268 268 268 267 267 267 266 265 265 266 267 267 267 267 267 267 266 264 264 264 264 265 265 264 264 264 263 263 261 260 259 259 258 255 253
257 260 260 254 257 257 258 257 257 260 262 260 253 255 259 262 263 265 266 267 268 267 265 265 265 266 266 265 264 264 264 265 265 263 262 262 262 262 262 263 263 263 264 263 264 262 261 260 259 259 258 257 254 253
257 259 255 252 253 255 257 257 257 257 261 262 264 263 262 262 264 266 265 264 263 262 262 263 263 264 263 263 263 262 262 262 263 264 262 261 260 261 261 261 261 262 263 262 261 261 261 258 258 256 255 255 256 256
258 257 256 256 257 258 256 252 252 255 255 255 254 255 256 257 262 263 262 263 263 263 262 260 260 259 259 259 260 261 260 261 261 262 262 261 261 260 259 259 259 261 261 260 259 258 257 256 257 256 256 255 254 255
253 250 254 255 257 257 255 252 250 253 254 255 254 252 253 255 255 259 261 261 261 260 259 259 259 258 258 259 258 259 258 259 259 259 259 259 258 258 259 258 258 259 259 258 258 257 257 257 256 256 256 255 254 253
251 250 250 253 255 255 257 256 256 254 253 254 254 250 249 252 253 258 261 260 260 259 258 257 257 257 257 257 257 258 258 258 258 260 258 257 256 256 256 256 257 257 257 256 256 256 255 255 254 253 253 252 252 251

GFSWCAN_sfc_thetae_096.txt.gz
Theta_e
297 297 297 297 297 297 297 297 297 298 299 299 300 300 300 300 300 300 296 301 293 287 289 290 291 287 289 289 284 289 288 289 288 283 283 283 282 284 283 286 286 285 283 281 282 280 278 296 297 290 295 301 302 302
297 297 297 298 298 298 298 298 299 299 299 299 299 300 300 301 301 301 292 299 300 291 289 295 295 296 295 294 291 291 289 289 290 287 287 288 284 286 285 281 290 284 288 287 288 286 295 298 297 299 300 300 301 301
297 298 298 298 298 298 299 299 299 299 299 300 300 300 300 301 301 300 295 297 294 289 287 290 289 297 300 300 302 289 292 293 292 296 291 289 284 289 283 285 287 291 294 290 290 292 295 296 297 299 300 302 304 306
297 297 297 298 298 298 298 298 299 299 299 300 300 300 301 301 301 301 296 297 295 289 284 288 297 295 300 301 300 300 297 298 297 296 290 288 286 292 287 289 288 292 293 290 290 293 294 296 298 299 300 304 303 303
297 297 298 298 299 299 299 299 299 299 300 300 301 301 301 301 301 300 299 298 297 291 286 288 295 297 298 298 298 298 297 295 294 290 287 286 291 291 292 291 289 294 292 289 288 295 294 294 298 300 300 303 302 302
297 298 299 300 301 301 300 300 300 300 300 301 301 301 301 301 301 297 286 297 299 297 289 285 295 293 297 297 296 295 297 296 294 289 290 291 296 293 288 286 292 295 297 297 295 298 298 299 300 301 302 300 299 300
298 300 301 300 300 301 301 301 301 301 301 301 301 301 301 301 299 291 291 296 299 297 288 285 288 293 296 296 295 295 296 294 292 289 289 290 293 293 289 285 292 295 296 297 298 298 296 298 297 301 300 298 296 295
300 300 300 300 299 299 299 300 300 300 301 301 301 301 301 301 298 294 301 300 299 293 291 284 286 289 295 291 290 296 291 293 291 290 291 290 291 290 286 291 293 295 297 297 298 300 299 300 300 299 299 299 294 291
300 299 299 299 299 300 300 300 300 301 301 301 301 301 299 291 290 293 300 300 301 295 286 285 284 283 295 292 293 293 293 286 293 287 288 290 287 284 288 291 292 295 296 297 299 299 299 299 300 298 296 295 292 287
300 299 299 299 298 298 299 300 300 300 301 301 294 287 284 289 300 299 294 288 289 292 291 287 291 284 290 288 288 288 290 286 282 287 292 286 287 292 293 294 295 296 297 298 296 296 297 298 296 294 294 293 290 284
299 299 299 299 297 298 299 300 300 300 299 291 286 288 295 300 296 289 285 285 286 284 288 289 290 287 293 287 286 290 285 286 281 285 285 285 284 291 295 295 295 293 294 294 295 296 296 296 296 291 289 289 287 283
299 300 300 300 298 299 300 300 299 298 296 293 294 297 296 290 287 285 284 285 284 283 285 284 288 292 288 293 289 287 285 285 281 289 285 283 287 288 290 290 290 289 288 289 290 290 290 291 293 290 287 285 282 279
299 299 299 298 297 299 299 299 299 299 299 298 293 286 288 284 282 280 276 280 281 286 286 287 285 287 288 291 287 285 282 283 290 284 283 284 283 284 284 285 285 285 284 284 284 286 287 287 287 286 281 279 278 276
298 298 298 298 297 296 296 296 296 296 294 286 285 276 281 279 280 281 283 284 285 286 286 287 285 288 288 285 287 281 284 286 281 280 281 279 281 282 283 283 283 281 281 281 281 282 281 281 279 279 278 277 275 274
298 297 298 297 297 296 295 293 292 291 287 281 282 275 276 279 280 280 283 284 283 284 287 287 287 286 284 284 285 283 280 280 282 279 278 281 281 281 281 281 281 279 278 277 277 276 276 276 275 275 275 275 274 273
297 298 296 297 295 295 294 293 292 289 283 278 277 276 278 279 278 279 280 281 282 281 285 288 285 282 281 283 281 278 280 277 276 278 280 281 280 280 279 279 278 278 277 276 275 275 274 273 272 272 272 272 271 271
296 295 295 297 296 293 293 290 287 281 279 276 275 277 277 277 275 277 278 279 282 281 284 285 281 278 283 278 274 277 275 276 278 279 279 279 279 279 278 278 277 277 276 276 275 275 274 274 274 273 271 271 271 271
294 295 295 296 296 293 288 287 282 278 273 276 274 275 276 277 276 277 278 281 282 283 283 278 281 276 274 272 274 277 278 279 279 278 279 279 279 279 279 278 277 277 276 276 275 274 274 273 272 271 271 271 270 269
294 295 294 295 295 291 284 282 282 274 274 276 277 277 277 276 277 277 278 280 281 281 280 276 272 271 272 275 275 278 278 278 277 276 277 278 278 278 278 277 277 276 275 275 275 274 274 273 272 272 271 271 269 268
294 293 293 293 293 287 281 280 284 277 274 275 277 275 275 275 276 276 274 275 276 274 270 269 269 271 271 274 276 278 278 279 278 276 275 277 277 276 276 275 274 275 274 273 273 272 272 271 272 271 270 270 268 267
294 292 292 294 290 288 284 281 278 278 278 276 278 277 275 275 272 271 271 273 270 268 268 270 271 272 274 275 277 278 278 279 277 277 275 274 276 276 275 275 275 274 273 272 271 270 271 270 270 270 269 268 268 268
289 291 292 292 286 285 284 285 281 281 279 278 278 277 273 271 271 270 272 268 266 267 269 269 271 272 272 272 274 276 276 276 276 276 276 276 274 274 274 274 274 272 272 271 271 270 269 270 270 269 269 268 268 267
287 289 285 285 282 283 281 286 281 281 276 276 277 273 272 272 272 274 267 267 268 270 271 271 272 273 272 273 274 274 275 275 274 274 274 274 274 274 273 273 272 271 270 270 270 270 269 269 269 269 269 268 267 266
282 276 275 275 278 275 279 276 280 278 277 276 273 270 271 272 273 269 265 266 268 270 269 270 271 272 272 272 271 271 273 274 273 273 273 272 271 270 271 271 271 271 271 271 270 270 269 269 269 269 268 267 267 266
274 268 272 269 273 272 271 270 270 273 270 271 269 268 269 273 268 266 264 266 268 267 268 270 270 269 269 270 270 270 271 272 271 270 272 271 270 270 269 269 270 270 271 270 269 269 268 268 268 268 267 266 265 264
264 267 267 267 268 268 268 266 266 266 268 266 266 268 270 267 263 262 264 266 267 267 267 268 268 269 267 268 268 268 268 271 271 268 268 270 272 272 270 269 268 267 271 271 269 268 267 267 266 266 265 264 263 264
264 265 267 269 269 268 266 267 267 266 264 263 265 264 265 261 261 264 268 268 268 269 270 270 269 268 268 268 268 269 269 269 268 267 268 268 269 270 271 269 267 268 270 270 270 269 267 266 266 266 264 264 264 264
266 266 262 263 263 265 261 262 262 262 263 265 265 260 260 260 262 267 268 270 270 270 270 270 270 269 268 268 269 270 270 270 270 270 269 268 268 268 268 268 268 268 269 269 269 268 268 267 265 265 264 263 262 264
264 266 265 258 262 262 261 261 262 264 264 266 263 261 262 265 266 268 269 270 271 270 269 269 269 270 269 269 268 267 268 269 269 267 266 266 266 265 268 268 269 269 269 268 267 267 267 267 266 265 265 264 263 263
264 267 263 261 259 260 263 264 263 264 267 267 267 265 265 265 266 269 269 268 268 267 267 267 267 268 267 267 266 265 266 267 267 268 266 265 264 266 267 267 267 268 269 269 267 266 265 264 263 262 262 262 263 262
267 267 264 264 262 264 265 265 267 267 267 266 267 265 263 265 266 267 266 267 267 267 267 265 264 264 264 264 265 265 263 265 264 265 266 266 266 266 266 266 267 267 267 266 265 265 264 264 264 263 263 262 261 262
265 263 263 261 263 266 267 267 267 266 267 267 265 265 264 266 263 264 265 267 266 264 263 264 263 262 263 264 264 263 263 264 264 264 264 264 264 264 265 265 265 266 265 265 264 264 263 263 263 263 262 262 261 260
265 266 265 265 264 264 266 266 265 264 265 264 263 262 262 263 260 264 266 265 264 264 263 263 263 263 262 262 263 263 263 262 261 261 261 260 259 262 264 264 264 264 263 264 263 263 262 261 261 260 259 259 259 258

GFSWCAN_sfc_thetae_099.txt.gz
Theta_e
296 297 297 297 297 297 297 297 298 298 299 299 299 300 300 300 300 300 297 302 294 288 290 292 292 289 289 290 285 289 288 290 289 283 283 283 283 285 285 287 286 285 284 283 284 281 280 296 296 290 296 301 301 302
296 296 296 297 297 297 297 298 298 298 299 299 299 300 300 300 300 301 295 300 301 292 291 297 296 297 295 293 292 291 290 289 290 287 287 288 284 288 286 282 291 284 290 287 288 288 295 297 298 300 301 298 301 301
296 296 296 297 297 298 298 299 299 298 298 299 299 299 300 300 301 301 298 300 298 290 289 291 290 296 300 298 299 289 292 294 292 296 290 288 285 289 284 286 288 292 295 290 291 293 295 297 300 297 299 299 301 304
296 296 296 297 297 298 298 298 299 299 299 299 300 300 300 300 301 301 296 299 298 289 284 288 298 294 298 300 299 298 295 297 296 296 290 289 285 292 288 290 289 292 294 292 291 294 296 296 298 299 299 301 301 304
296 296 297 297 297 298 298 299 298 299 299 300 300 300 300 301 301 300 298 298 298 291 287 288 295 297 299 298 296 298 297 295 293 290 288 287 291 291 292 291 289 294 292 291 289 295 295 296 299 300 299 300 302 302
296 297 297 297 298 299 300 300 300 299 299 299 300 300 300 301 301 297 288 297 298 297 289 284 296 295 298 298 296 296 297 296 294 289 290 292 295 292 287 286 293 295 297 298 294 298 298 299 300 301 300 302 301 302
297 297 298 299 301 301 301 301 301 300 300 300 300 300 301 301 299 289 291 296 299 298 287 286 287 295 297 297 296 295 297 295 293 289 289 291 292 293 289 285 293 295 297 298 299 299 297 299 298 301 302 302 299 299
298 299 301 300 300 300 300 300 301 301 300 300 301 301 301 301 298 293 301 300 299 292 290 285 287 291 297 291 290 295 292 294 292 290 291 289 293 292 285 290 293 296 297 298 298 300 300 301 301 300 301 301 298 295
299 299 300 300 299 300 300 300 300 301 301 301 301 301 299 293 290 294 300 300 301 294 287 287 286 284 296 294 295 293 294 286 294 288 289 291 289 285 289 291 292 295 295 296 299 300 300 300 300 301 300 300 298 292
299 299 300 299 298 298 298 299 300 301 301 301 296 286 285 290 300 299 293 288 290 292 292 286 293 288 294 292 291 291 292 287 284 289 292 287 287 293 294 295 295 296 297 298 296 295 297 300 299 299 298 298 297 291
300 300 300 300 298 298 299 300 300 300 298 291 286 288 294 300 296 290 285 286 288 285 289 290 291 289 295 288 287 292 287 289 282 287 286 286 286 291 295 296 297 296 297 297 297 297 298 298 298 298 296 294 290 286
298 297 298 299 300 300 300 300 300 298 294 293 295 297 296 290 287 285 284 286 286 284 290 288 291 292 292 295 290 289 284 286 281 291 285 283 284 287 289 290 290 292 292 292 292 292 294 294 297 297 294 291 285 281
297 297 298 298 299 300 300 300 300 299 300 299 294 288 289 286 283 282 279 282 284 289 288 289 287 290 292 292 289 286 283 282 292 284 284 283 284 285 286 286 287 287 287 287 286 287 288 290 291 291 286 283 280 278
298 296 296 297 297 299 299 299 298 299 296 288 286 279 284 281 283 284 286 288 288 290 289 289 289 289 291 287 288 281 287 288 281 280 279 281 281 283 285 285 285 284 282 282 282 282 282 281 281 281 280 279 277 275
298 297 297 296 295 295 295 294 294 293 289 284 286 278 278 281 282 283 286 287 286 287 289 288 289 289 286 285 286 287 282 281 283 280 280 281 282 281 282 282 282 281 280 280 280 278 278 277 276 276 277 276 275 274
298 298 295 296 296 295 294 294 293 291 286 281 280 279 282 282 281 282 283 283 284 285 288 288 286 284 283 285 283 281 281 279 277 279 281 281 281 280 280 280 280 279 279 278 278 276 275 273 272 272 273 273 272 272
298 297 295 297 294 295 294 293 289 283 281 279 277 280 281 280 279 280 282 281 285 284 285 287 284 281 286 282 278 280 277 278 279 280 281 280 280 280 279 279 279 279 278 277 276 275 274 274 274 272 271 271 272 272
297 298 295 296 297 293 289 288 285 281 276 280 277 278 279 280 280 280 282 283 284 285 285 281 284 279 278 274 277 279 280 281 281 280 279 279 280 280 280 279 279 278 277 277 276 276 275 274 272 272 271 271 271 271
295 295 295 295 295 291 285 284 285 277 277 279 280 280 280 279 280 280 281 282 283 284 283 280 276 275 275 276 275 278 279 279 278 279 279 279 279 279 278 279 278 277 277 277 277 276 276 275 274 273 273 272 270 270
294 294 294 295 296 289 282 282 287 280 277 278 280 277 277 277 279 278 277 278 278 277 273 271 271 273 273 275 277 278 280 280 280 279 277 278 279 278 278 278 277 277 276 276 275 275 274 273 273 273 272 271 270 269
296 294 295 296 292 290 285 283 281 281 280 278 280 278 277 277 275 274 273 276 271 269 269 271 271 273 275 276 277 279 279 279 278 278 277 277 278 278 277 277 277 277 275 274 273 272 272 271 271 271 270 270 270 269
292 293 296 295 289 287 285 286 282 283 281 279 279 279 276 274 273 272 273 269 268 269 270 271 272 273 274 274 275 277 278 279 279 279 278 278 277 277 276 276 275 274 274 274 273 271 271 271 271 270 269 268 268 268
291 292 289 289 285 284 281 288 282 282 278 278 279 275 274 274 274 275 268 269 270 272 273 273 274 275 274 275 276 276 277 277 276 277 277 277 277 276 276 276 276 274 272 272 273 272 271 271 271 271 271 270 269 268
285 280 278 279 281 277 282 279 281 280 280 277 274 272 272 274 276 271 267 269 271 272 272 273 273 275 275 274 273 272 274 277 276 276 277 275 273 273 274 273 273 273 273 273 273 273 272 271 271 271 271 270 270 269
276 270 276 273 277 276 274 274 274 275 272 274 271 271 272 276 271 269 267 268 270 270 271 272 273 272 272 273 273 273 274 274 273 272 274 274 273 273 272 272 272 273 275 273 272 272 272 272 272 271 270 270 269 268
268 269 271 272 272 272 272 270 270 271 271 270 269 272 274 271 267 265 267 268 270 270 270 270 271 272 271 271 270 270 271 275 274 271 270 272 275 273 272 270 269 270 273 273 272 271 270 270 269 268 268 267 267 267
267 268 270 272 272 272 270 271 272 270 268 267 269 268 269 265 264 266 271 271 270 271 272 272 272 271 271 271 271 271 272 271 270 269 271 271 271 272 273 271 269 270 273 273 273 272 270 269 268 268 267 268 268 268
269 268 264 267 267 269 266 267 266 265 266 268 269 264 263 264 264 269 270 272 273 273 273 273 273 272 271 271 272 272 273 273 272 272 271 271 271 272 271 270 270 271 272 272 272 272 271 270 269 268 267 267 267 268
268 270 267 262 266 266 265 265 265 266 267 269 267 265 264 267 269 270 271 272 273 273 271 271 272 274 273 272 271 271 271 272 272 269 268 268 267 268 271 272 272 271 271 270 270 270 270 269 269 268 267 266 267 268
268 273 267 265 264 264 265 268 267 269 270 269 269 267 267 267 269 272 271 271 270 270 270 269 270 271 270 270 268 268 269 269 269 270 268 266 267 269 270 270 270 271 272 270 269 268 267 267 267 266 266 266 266 265
273 272 268 267 265 267 268 270 271 270 271 270 271 268 267 267 269 270 269 270 270 271 270 268 267 267 267 266 268 268 265 267 267 267 269 269 269 269 269 269 270 270 270 269 269 268 268 268 267 266 266 265 264 265
271 269 267 264 265 269 271 271 270 269 270 269 268 269 268 269 266 267 268 270 269 267 266 267 266 265 266 267 267 267 266 266 266 266 266 267 267 267 268 268 269 269 268 268 267 267 266 266 267 266 265 264 263 263
271 271 270 269 267 268 269 270 269 268 269 268 267 267 267 267 263 266 269 269 268 267 266 266 266 266 265 265 266 266 265 264 262 263 262 262 261 264 267 268 268 268 267 267 267 266 265 264 265 263 263 262 262 261

GFSWCAN_sfc_thetae_102.txt.gz
Theta_e
295 296 297 297 297 296 296 297 297 298 298 298 299 299 299 299 299 299 295 301 296 289 290 291 292 288 289 289 284 289 288 290 287 282 282 282 282 284 284 286 285 283 282 281 283 280 278 296 295 289 295 298 299 300
297 296 296 296 296 297 297 297 298 298 297 298 298 299 299 299 300 300 292 300 301 291 290 296 296 296 294 293 290 290 288 287 287 286 287 287 283 286 285 281 290 283 288 285 287 287 296 298 298 301 300 298 299 299
296 296 296 296 296 297 297 298 298 298 298 298 298 298 299 300 300 299 295 297 295 290 290 291 289 295 298 298 300 288 290 292 291 294 288 288 283 287 283 285 287 291 293 289 289 293 295 297 299 299 299 298 299 300
296 296 296 296 296 297 297 297 298 298 298 299 299 299 299 300 300 300 296 299 296 291 284 286 296 294 298 299 297 298 295 296 295 294 288 287 284 290 286 288 287 290 292 291 291 294 296 297 298 299 299 299 300 301
296 296 296 296 296 296 297 297 298 298 298 299 299 299 300 300 300 301 300 300 299 290 285 286 293 296 297 298 296 296 296 294 293 288 286 286 289 289 291 290 287 292 290 289 288 295 294 295 299 300 299 299 301 301
296 296 296 297 297 297 298 298 298 299 299 299 300 300 300 300 300 298 288 298 301 298 288 282 294 294 297 297 296 295 294 294 294 288 289 291 294 290 285 284 291 294 297 297 294 297 297 298 299 300 299 301 301 300
297 297 297 297 298 298 299 299 300 300 300 299 299 300 300 300 298 290 290 297 299 298 286 284 285 293 296 296 296 295 296 294 292 289 288 289 290 292 288 284 291 294 296 296 298 298 296 298 298 301 301 300 298 294
298 298 298 298 299 300 301 300 301 301 301 300 300 300 300 300 298 292 299 300 299 290 288 284 285 290 297 291 290 295 292 293 291 290 290 289 291 291 285 290 292 294 295 296 298 299 299 300 301 300 302 301 298 291
299 300 300 300 301 300 300 300 301 301 301 300 300 300 298 295 287 293 300 299 299 293 286 284 284 283 296 293 293 293 294 286 294 288 289 290 287 284 289 290 292 294 294 294 296 298 299 297 299 300 300 300 296 289
299 299 300 300 300 300 300 300 300 301 301 300 297 285 284 289 300 299 293 288 288 289 291 286 291 287 293 292 290 291 292 287 284 288 292 288 286 291 293 294 295 296 296 297 295 294 296 295 296 298 299 299 296 288
298 298 299 300 300 299 299 300 300 301 300 289 285 287 294 300 295 288 284 284 286 284 289 290 291 289 295 288 288 292 286 288 281 286 286 285 285 289 292 292 292 292 294 294 295 295 295 295 295 295 297 292 289 285
298 298 298 299 299 299 299 300 300 297 292 294 295 297 296 291 287 285 284 286 285 283 290 289 291 293 293 296 288 288 284 285 279 291 286 282 282 286 287 288 289 289 289 290 291 290 291 293 293 294 291 287 283 280
297 298 300 300 300 299 299 300 299 299 299 298 293 287 288 286 282 280 278 282 284 289 291 291 287 290 292 293 287 286 281 281 291 285 282 281 282 284 285 286 286 288 285 285 286 286 286 284 284 284 281 281 279 277
298 298 298 299 300 299 299 299 299 297 295 289 285 282 284 281 284 284 286 288 290 292 291 292 289 290 291 287 286 281 286 287 281 279 278 279 281 282 283 283 283 282 281 281 281 281 280 279 279 279 279 278 275 274
297 297 297 296 297 298 298 296 295 295 290 285 287 279 280 282 285 285 287 287 287 290 292 290 290 290 287 284 286 285 281 279 281 277 278 280 281 281 280 280 280 280 280 279 279 277 277 276 276 275 276 276 275 273
296 296 293 296 297 295 295 295 294 291 287 282 282 281 284 283 282 283 284 283 285 286 289 290 285 283 283 285 282 281 281 277 276 279 280 280 280 280 280 280 279 279 278 277 276 275 274 273 273 273 273 273 272 272
298 294 294 294 294 294 295 293 289 284 282 280 279 282 283 282 280 281 283 282 285 285 285 286 283 283 287 283 279 279 276 277 279 280 280 280 279 279 280 279 279 279 278 276 275 274 274 274 274 273 271 272 272 272
297 295 297 295 295 293 291 291 286 282 277 280 278 278 280 281 280 280 282 283 284 285 286 281 285 281 277 277 276 278 280 282 281 280 279 279 280 279 280 279 278 278 277 276 276 275 274 273 272 271 271 271 270 270
297 296 296 297 296 290 285 285 287 277 279 280 281 282 280 279 280 281 281 283 284 284 283 281 276 274 273 275 274 276 279 279 278 279 279 278 279 278 278 278 278 277 276 276 276 276 275 274 273 273 273 272 270 270
295 295 295 296 295 288 283 283 288 281 278 279 280 278 278 278 279 278 278 278 279 277 273 271 271 272 272 274 276 276 278 279 280 279 278 279 279 278 278 278 277 277 276 275 275 275 274 274 274 273 272 271 269 268
295 295 295 296 292 289 286 283 281 281 281 279 280 279 276 277 275 274 273 276 272 269 269 271 272 273 276 276 277 277 278 278 277 278 277 277 278 278 277 278 278 277 276 275 273 273 273 271 272 272 271 270 270 269
293 293 296 295 288 287 284 286 283 284 281 280 279 280 277 274 273 272 274 270 268 270 271 272 273 273 274 274 275 276 277 279 279 279 279 278 278 277 276 276 275 274 274 274 272 271 271 270 270 269 268 268 268 268
292 292 289 290 284 283 281 288 282 282 278 278 280 275 275 274 274 275 269 270 270 273 273 274 274 276 275 276 275 275 277 277 276 277 276 277 277 277 276 275 275 273 272 272 272 271 270 271 270 269 269 268 268 267
286 281 280 280 282 278 282 279 282 280 280 277 275 272 273 274 275 271 266 269 271 273 272 273 274 275 276 274 273 273 274 277 275 275 277 275 273 273 274 273 274 274 273 273 273 272 272 271 271 270 270 269 269 268
277 271 277 274 279 278 276 275 276 276 273 274 272 272 273 277 271 269 267 268 270 270 271 273 274 272 271 272 272 272 274 274 272 271 274 275 273 272 272 273 273 274 275 273 272 272 272 272 272 272 271 270 269 268
269 271 272 273 273 274 274 272 272 273 273 271 271 274 275 272 268 265 267 269 270 270 270 271 271 271 270 270 270 270 271 274 274 270 271 272 274 273 272 271 270 271 275 275 274 272 271 271 271 270 269 268 268 268
269 269 272 275 274 274 272 273 274 271 269 269 270 270 271 266 264 267 270 271 271 272 273 273 272 271 270 271 272 272 272 272 271 270 272 271 271 272 272 270 269 272 274 274 273 272 270 269 268 268 267 268 268 268
270 271 267 269 270 272 268 269 267 267 268 270 271 266 265 265 264 269 270 272 274 275 274 273 273 272 271 272 272 273 274 273 272 272 272 272 273 272 271 271 271 272 272 273 273 273 272 270 269 269 268 267 267 269
270 271 269 266 268 267 267 266 266 267 269 270 268 265 265 267 270 270 272 273 274 273 271 271 272 274 273 272 271 271 271 271 272 269 267 267 267 269 272 272 272 271 271 271 271 271 271 270 269 268 268 268 268 268
270 274 268 267 265 264 267 271 269 270 270 270 269 268 267 268 270 273 272 272 271 270 270 270 270 270 269 269 268 267 268 269 269 269 267 266 267 270 271 271 271 272 271 270 268 268 269 268 268 267 267 267 267 265
275 273 269 268 266 268 270 272 273 272 272 271 271 268 266 267 269 270 270 271 271 271 270 268 267 268 267 266 266 266 265 267 267 268 269 269 269 269 269 270 271 271 271 270 269 269 268 268 267 266 266 266 265 265
273 270 268 265 266 270 272 273 272 271 271 270 269 270 270 270 266 267 268 270 269 267 266 267 265 265 267 267 267 266 265 265 264 264 264 266 267 268 269 269 269 269 269 268 268 267 267 267 267 267 265 264 264 264
272 272 270 269 268 269 270 272 270 269 270 269 268 269 268 267 264 267 269 270 268 267 267 267 267 267 266 266 267 266 265 263 262 263 262 262 260 261 266 267 268 268 268 268 267 266 266 266 265 265 264 263 262 263

GFSWCAN_sfc_thetae_105.txt.gz
Theta_e
295 295 297 297 297 297 296 297 297 297 298 298 298 299 299 299 299 295 290 294 291 286 287 289 289 285 286 286 280 287 285 287 286 280 276 279 278 282 282 284 283 281 277 276 278 273 274 294 294 287 292 294 295 296
295 296 297 297 297 297 296 296 296 297 298 298 298 298 298 298 299 299 288 294 296 289 286 293 293 293 291 289 286 288 286 287 287 284 285 284 280 282 283 278 287 281 284 281 280 280 293 296 294 298 296 294 294 294
296 297 297 296 297 296 296 297 297 298 298 298 298 298 297 299 299 298 290 291 292 288 285 286 286 292 295 293 294 284 287 290 287 290 285 285 282 286 279 282 284 287 291 286 287 291 292 296 298 298 295 294 295 297
296 296 296 296 296 296 296 297 297 297 298 298 298 299 298 298 299 299 293 292 290 290 280 284 294 290 295 295 293 293 291 292 291 288 283 283 281 286 282 284 284 288 290 287 288 292 295 296 297 297 297 296 296 301
296 296 296 296 296 297 297 297 297 297 298 298 298 299 299 299 299 297 295 294 294 288 281 284 291 294 296 295 293 292 291 289 288 286 284 284 287 286 287 286 284 291 289 286 286 293 292 294 296 298 296 298 300 300
296 296 296 296 296 296 297 297 297 297 298 298 298 299 299 299 300 295 287 294 296 295 287 279 291 292 295 295 293 292 292 289 289 288 287 288 292 288 281 281 289 292 293 294 291 297 296 296 298 299 299 297 295 293
295 296 296 296 297 297 297 298 298 298 298 299 299 299 300 300 296 290 287 293 298 296 285 281 282 289 292 292 293 292 293 292 289 288 286 287 287 289 284 280 288 291 293 293 295 295 294 296 295 299 296 293 291 288
296 297 297 298 299 298 298 298 299 299 300 300 300 299 300 300 298 292 294 300 299 291 288 281 280 286 294 288 287 293 289 290 290 289 288 287 288 287 282 289 291 293 293 293 293 297 297 297 298 299 297 293 288 285
297 298 299 299 299 299 299 299 300 301 302 301 300 300 298 294 287 291 299 300 298 291 283 283 279 278 293 290 291 290 290 284 289 285 286 286 283 281 287 289 289 292 293 294 296 296 296 296 295 297 297 292 286 283
297 300 300 300 300 300 300 300 300 301 301 300 296 287 282 288 299 298 292 288 286 287 289 283 285 278 289 287 287 285 286 282 276 283 288 281 281 288 289 289 288 289 290 291 289 289 291 291 292 293 293 293 286 282
299 299 299 300 300 300 300 300 301 301 297 291 285 286 292 299 293 287 283 282 284 282 285 286 286 282 290 283 282 284 280 281 277 281 281 280 281 284 288 287 288 286 287 288 288 289 289 288 288 290 288 285 282 280
298 298 298 299 300 300 300 300 299 294 291 292 294 296 295 289 285 283 281 282 281 279 285 284 285 288 287 291 284 283 278 281 275 285 282 278 280 283 284 284 286 283 283 284 285 285 285 284 286 284 282 279 278 277
298 298 299 300 299 300 300 300 298 297 299 297 292 287 286 284 279 277 275 279 276 282 285 284 284 284 286 287 284 282 278 275 283 273 276 278 280 282 282 282 283 283 281 281 281 281 281 281 282 281 279 278 277 275
296 298 300 300 300 299 300 298 299 299 294 287 284 281 282 278 278 280 280 282 285 285 284 285 281 281 281 281 283 278 277 283 278 274 274 277 279 279 281 281 280 279 279 278 278 278 278 277 277 277 276 276 274 273
297 297 300 299 299 299 299 298 296 295 289 283 282 277 278 281 284 284 285 285 285 284 284 283 283 282 280 279 281 279 279 276 276 271 276 278 279 278 279 279 278 278 277 276 274 271 272 274 274 273 274 274 274 273
296 295 295 297 296 296 296 295 293 290 285 281 279 280 282 281 280 282 283 282 284 285 285 283 283 280 273 277 278 276 275 271 271 276 276 276 278 278 277 277 277 275 271 269 268 270 269 269 271 271 272 272 272 271
297 292 294 295 295 296 295 291 287 283 281 278 276 279 281 279 278 279 281 281 284 284 283 283 279 275 280 275 275 277 271 272 273 274 275 275 275 275 278 276 275 276 273 270 268 269 271 272 271 271 269 270 270 270
292 293 295 295 295 293 290 289 284 281 277 279 275 276 276 278 277 278 280 282 282 282 284 279 281 276 270 271 268 274 275 278 275 273 271 271 273 271 274 272 272 272 272 274 273 272 271 271 269 268 269 269 269 268
294 294 296 296 294 289 283 283 283 276 278 278 278 277 275 274 277 278 277 280 282 279 277 275 268 267 268 270 269 271 273 273 274 275 270 268 270 271 271 272 274 272 273 273 273 273 272 271 271 271 271 270 267 267
295 296 296 296 295 286 281 280 284 278 275 275 275 274 274 276 275 273 274 275 276 274 270 269 267 266 268 270 273 273 275 275 276 275 275 273 271 271 271 273 271 273 273 273 272 273 272 271 271 270 269 268 267 266
295 293 295 294 289 288 283 280 279 279 279 277 277 276 273 274 272 270 270 274 269 267 267 268 268 270 272 273 274 275 275 275 275 275 274 275 274 273 273 275 276 275 273 272 271 270 270 269 270 270 268 267 267 267
290 294 292 292 285 284 282 283 280 281 279 278 278 278 273 269 268 269 273 268 267 268 270 270 271 272 274 272 272 273 275 277 276 276 276 275 274 274 273 273 273 272 272 271 270 268 268 268 268 268 267 267 267 267
292 291 287 286 280 278 279 286 280 280 275 275 278 274 272 270 271 274 267 269 269 272 272 273 274 275 274 274 274 273 274 275 273 273 274 273 272 273 273 273 273 271 269 270 270 269 268 268 268 267 267 267 267 266
285 279 278 278 279 275 279 276 280 279 277 275 273 270 272 272 274 269 265 268 269 271 271 272 272 273 273 272 271 271 272 274 273 272 273 272 271 271 272 272 272 272 271 271 271 270 269 268 268 268 267 267 266 266
272 269 273 269 275 273 272 273 275 274 272 273 271 270 272 276 269 267 265 267 268 268 270 271 271 270 269 269 269 270 271 273 271 268 270 272 271 270 270 272 272 273 273 271 270 270 269 269 269 269 268 267 266 265
266 269 269 270 271 270 272 269 269 269 268 266 268 271 272 267 263 262 265 267 267 268 268 269 269 269 268 269 268 268 268 272 271 268 268 270 272 271 270 269 269 270 273 273 271 270 270 269 268 268 267 267 266 265
264 265 271 275 274 274 269 270 271 267 264 265 266 265 266 260 260 265 268 270 269 270 270 271 270 269 268 269 270 270 270 270 269 269 270 270 270 270 269 268 268 270 272 272 271 269 268 267 266 266 266 266 266 265
268 269 262 266 267 270 264 264 263 263 264 267 267 260 258 260 261 267 268 270 272 273 272 271 271 270 269 268 269 269 270 269 269 270 270 271 271 270 270 270 270 272 271 272 271 269 269 268 267 266 266 265 265 265
265 268 267 262 264 265 265 263 264 266 268 268 263 261 261 266 268 268 270 270 271 270 268 268 269 270 269 268 267 267 267 268 269 265 264 264 265 267 271 270 269 269 269 269 271 270 269 268 267 267 266 266 265 265
267 270 264 261 260 261 266 265 262 262 266 265 266 266 265 263 267 270 269 269 267 264 264 265 266 265 264 265 264 264 265 265 264 265 263 264 265 268 268 268 269 267 266 265 265 265 268 265 266 263 264 264 261 261
272 268 264 263 263 264 265 269 270 269 267 264 263 261 260 261 262 265 265 266 265 265 262 260 262 263 263 262 262 262 261 262 262 262 263 266 266 266 266 266 268 268 267 266 264 262 263 263 260 260 261 261 259 258
267 263 260 260 263 268 270 269 266 264 265 262 260 261 263 263 259 260 263 267 261 259 258 258 256 259 260 259 259 260 260 259 260 259 259 259 259 260 265 266 265 264 262 262 260 260 261 261 261 258 257 255 255 258
267 266 264 262 261 262 264 266 263 263 263 260 259 259 258 258 257 260 262 261 261 259 259 259 259 258 257 257 261 257 256 254 255 260 258 258 256 256 256 256 258 261 262 258 257 256 257 257 255 255 256 253 252 251

GFSWCAN_sfc_thetae_108.txt.gz
Theta_e
295 295 295 295 296 297 296 297 297 297 297 298 298 299 299 299 299 293 288 292 291 286 284 287 287 282 282 283 279 285 282 285 284 276 278 277 277 280 280 283 281 280 278 275 278 271 273 293 293 286 290 293 294 293
295 294 295 296 297 297 296 296 297 297 297 297 297 298 298 298 299 298 289 292 293 288 285 290 292 292 290 289 284 285 283 286 286 280 281 280 280 281 282 277 286 280 284 279 278 279 290 294 293 296 295 293 293 292
294 295 296 296 296 296 296 297 297 297 297 297 297 297 298 298 298 297 291 290 289 287 286 285 285 290 293 292 291 282 284 289 288 289 283 281 278 283 278 280 283 286 289 286 285 288 290 294 297 298 297 292 293 295
294 295 296 296 297 297 296 297 297 297 297 297 298 298 298 298 298 298 293 290 289 286 282 280 291 289 293 292 291 291 288 289 288 286 282 281 278 286 281 283 283 286 287 286 287 288 291 294 297 297 296 295 295 297
295 295 296 296 296 296 296 297 297 297 297 297 297 298 298 298 298 297 294 293 291 285 280 281 288 291 292 292 290 290 290 288 285 284 284 281 285 283 284 286 284 291 288 284 283 291 291 292 296 297 295 296 298 294
295 295 296 296 296 296 296 296 297 297 297 297 298 297 298 298 299 294 287 293 293 293 286 278 286 289 292 292 291 290 290 288 287 285 286 287 289 286 282 282 289 291 291 291 289 294 294 295 297 298 294 293 291 290
295 295 295 296 296 296 297 297 297 297 297 298 297 297 297 299 297 290 285 289 297 293 285 279 279 288 292 290 291 289 291 290 288 286 285 285 286 288 282 279 287 290 292 293 295 294 294 295 294 294 292 288 288 286
295 295 295 296 296 297 297 297 297 298 298 298 298 298 298 299 297 291 294 299 297 291 288 279 279 284 292 286 286 291 290 290 288 286 288 286 287 286 281 287 288 289 292 294 294 296 296 296 297 294 293 289 285 282
295 295 295 296 297 297 298 299 299 299 299 299 299 299 297 294 289 291 299 299 297 291 281 280 278 276 291 289 290 290 291 283 290 284 286 287 283 282 284 284 284 285 286 287 292 291 292 292 292 295 292 288 283 281
295 296 296 296 297 297 299 299 299 299 300 301 296 285 282 288 298 297 290 288 285 286 287 281 284 278 287 284 286 285 287 281 281 283 287 283 282 287 286 286 284 283 284 285 285 284 285 285 288 290 287 287 283 280
295 295 296 296 298 300 300 300 300 301 297 291 285 286 291 299 292 288 282 282 280 281 284 284 283 280 287 280 280 286 278 280 276 280 281 280 281 283 285 284 284 282 282 283 283 285 284 284 284 286 282 281 280 279
295 297 299 299 300 300 300 300 299 294 292 292 293 296 294 289 285 281 279 281 281 278 281 281 282 284 283 287 281 282 277 278 273 284 282 279 279 281 282 281 283 281 281 281 282 281 281 281 283 282 281 279 279 278
298 298 299 299 299 300 300 298 298 297 298 296 292 286 286 284 278 276 275 274 276 279 280 280 281 283 285 285 284 282 273 273 280 270 276 276 278 280 280 280 280 281 280 279 278 278 278 279 279 280 278 278 277 275
297 298 299 299 299 300 298 298 299 298 294 286 284 280 279 276 279 277 279 280 282 279 283 282 282 283 280 279 278 271 276 281 277 269 272 275 277 278 278 280 278 277 278 274 274 275 275 275 275 276 275 275 274 274
299 298 299 299 300 299 298 299 296 294 288 283 281 273 273 281 282 283 285 284 284 281 282 281 281 281 282 277 282 277 278 275 274 268 271 275 276 277 277 278 276 275 272 270 268 266 267 269 271 272 273 274 273 272
297 299 298 299 299 299 297 293 292 289 284 279 276 276 282 281 280 281 282 281 283 282 285 282 281 276 273 273 278 277 275 271 268 270 272 274 274 274 276 275 274 271 268 265 263 264 265 266 267 269 271 271 271 271
294 291 296 296 296 295 294 288 287 283 280 276 275 278 279 278 277 278 280 280 283 284 281 283 278 273 277 277 273 275 266 269 272 271 272 271 272 271 272 272 271 272 269 267 265 268 267 268 268 268 266 267 268 268
291 294 296 296 295 292 290 288 283 280 276 277 274 274 275 275 274 276 277 280 281 282 282 278 279 271 265 267 264 268 272 276 274 273 269 269 269 268 271 268 267 268 268 267 268 268 266 266 267 267 267 268 268 267
293 294 296 296 294 287 284 283 283 276 277 277 276 276 274 272 274 273 274 276 279 278 277 271 264 263 263 267 266 267 269 271 272 273 271 267 266 268 269 269 269 267 268 269 270 270 267 267 268 269 269 268 266 266
295 296 295 295 294 283 280 280 284 278 274 275 276 273 272 272 270 269 271 272 273 271 267 265 262 263 264 267 270 270 272 273 274 272 271 268 267 268 268 270 268 268 271 271 270 271 270 269 269 269 268 267 266 265
293 293 295 293 288 285 280 277 277 278 278 273 275 274 269 272 269 267 268 272 268 266 265 266 266 267 269 271 272 274 274 274 274 275 273 274 271 272 271 272 273 270 268 269 268 268 268 268 268 268 267 266 266 266
290 294 290 290 284 283 281 281 277 277 276 275 276 275 267 265 265 266 272 266 265 267 268 268 269 270 271 270 272 272 273 275 274 273 273 273 271 272 271 271 271 269 269 269 268 267 267 267 267 267 266 266 267 267
290 289 284 284 279 277 276 285 278 278 272 272 275 271 268 267 269 274 266 268 268 271 271 272 272 274 272 272 272 271 272 273 272 272 270 271 271 271 270 270 270 269 268 268 269 268 267 268 267 267 267 267 266 266
283 277 277 275 276 271 277 276 279 277 276 272 270 268 269 268 272 267 264 266 268 271 270 271 271 272 271 271 269 269 270 271 270 270 271 270 269 269 270 270 270 270 270 270 269 268 268 267 267 267 266 265 265 265
271 269 270 267 272 270 269 270 272 272 269 272 269 268 272 274 267 265 264 266 266 267 268 270 269 268 267 267 268 268 270 271 269 268 269 271 270 270 270 271 271 271 272 269 268 267 267 267 267 267 266 266 265 264
264 266 265 265 266 267 270 267 267 266 266 264 266 269 268 263 260 260 264 264 263 266 265 267 267 267 267 268 267 267 267 270 269 267 268 269 270 270 269 268 268 269 273 271 270 268 268 268 267 266 265 265 265 264
259 260 269 273 272 272 266 267 268 263 260 261 262 262 261 255 257 263 267 269 268 267 268 269 269 268 267 267 269 269 269 270 269 268 270 270 269 269 268 266 266 269 271 270 269 268 267 266 266 266 265 265 265 264
267 265 259 262 265 267 262 261 259 259 260 266 264 256 254 256 259 265 266 268 271 271 271 269 269 268 267 266 266 266 267 268 268 269 270 270 269 268 268 268 269 271 270 269 268 268 267 266 266 266 265 265 264 265
260 264 263 257 261 262 262 259 261 264 266 265 256 255 259 265 265 267 265 263 265 267 264 263 265 264 266 265 265 264 264 267 266 263 263 263 264 266 268 268 267 267 267 269 271 268 268 267 266 265 265 265 264 264
262 265 260 257 258 260 261 258 257 255 262 262 265 264 263 262 264 265 265 263 262 259 256 257 259 261 261 260 260 261 262 262 261 260 260 260 262 265 266 267 264 262 264 264 264 266 268 265 266 264 262 262 262 262
266 262 260 261 262 261 260 259 261 262 257 257 254 256 256 258 261 263 264 260 260 256 257 256 258 256 257 257 256 257 257 260 259 260 260 261 260 261 263 264 264 264 263 262 262 261 260 260 260 260 259 259 258 258
258 254 256 258 261 262 261 260 257 260 256 255 256 252 256 256 254 257 263 257 256 254 251 250 253 255 253 252 251 252 254 254 254 254 255 255 255 256 258 259 260 260 261 261 260 260 260 259 259 257 255 254 256 255
261 263 255 257 258 259 260 260 257 259 256 253 257 255 254 253 253 258 258 255 256 255 254 253 251 250 253 254 252 250 250 249 252 258 256 255 252 252 249 250 253 254 256 255 253 255 255 255 253 252 251 249 248 247

GFSWCAN_sfc_thetae_111.txt.gz
Theta_e
297 297 296 296 296 295 296 296 296 297 297 297 298 298 299 298 298 294 288 292 289 285 284 285 286 282 282 281 278 281 278 281 279 279 275 276 277 281 280 282 280 279 278 277 277 270 271 290 291 285 290 294 295 295
297 296 296 296 296 296 295 296 297 297 297 297 297 298 298 297 297 296 289 292 293 288 283 289 290 291 289 288 284 283 281 284 283 279 280 280 278 281 279 276 286 278 282 280 279 277 288 292 293 297 297 293 292 291
296 296 295 295 296 296 296 296 297 297 297 297 297 298 297 298 298 296 289 293 292 287 282 282 283 288 292 292 291 283 283 287 286 289 283 281 276 281 276 279 281 285 288 285 283 287 289 292 295 297 298 295 293 295
296 296 295 295 296 296 296 297 297 297 297 297 297 297 297 298 298 298 292 292 291 285 280 280 289 287 291 290 290 290 288 288 288 288 282 280 278 284 281 283 282 285 287 284 287 287 289 292 293 294 295 296 294 292
295 295 295 295 296 296 296 297 297 297 296 296 296 297 297 298 298 296 295 294 293 285 277 280 286 289 290 290 289 288 287 285 283 284 283 280 283 284 283 284 284 289 286 282 282 289 288 290 294 296 294 292 293 291
295 295 295 295 296 296 296 296 296 296 296 297 296 296 297 298 297 294 287 294 294 293 285 278 284 286 289 289 289 287 288 286 285 282 282 286 288 285 282 280 287 289 291 291 289 294 294 296 294 293 290 288 287 286
294 294 295 296 296 296 296 296 296 296 297 297 297 297 297 298 295 288 284 287 295 293 285 279 278 286 291 290 289 288 289 287 287 286 284 283 284 287 282 277 285 286 289 291 292 294 293 294 291 291 289 287 286 284
294 294 295 295 295 296 296 296 296 297 297 298 298 297 297 297 296 291 292 298 296 290 287 278 277 283 290 285 285 290 287 288 288 287 287 285 287 287 281 285 285 285 287 288 289 291 291 292 294 293 291 287 284 281
294 294 295 295 295 296 296 296 297 297 298 298 297 297 296 292 286 290 299 298 295 289 280 280 277 276 289 288 289 290 290 283 289 283 285 286 284 281 283 283 282 282 283 283 286 287 287 286 287 289 290 287 282 279
294 294 295 295 295 296 296 297 297 298 298 299 295 286 283 288 298 297 292 285 285 286 287 280 281 276 287 285 286 285 285 281 280 284 288 283 282 285 285 284 282 282 282 283 281 281 282 282 282 285 284 282 281 279
294 294 295 295 296 296 297 297 297 299 299 286 285 285 291 298 291 287 281 280 282 280 283 284 283 278 286 281 281 285 280 281 276 280 281 280 279 281 283 283 282 281 281 281 282 281 282 281 282 282 281 281 280 280
294 295 295 295 295 296 296 297 298 295 290 291 292 295 294 289 285 280 277 279 280 277 281 281 283 283 280 285 280 283 280 276 273 283 281 278 277 279 280 280 281 280 279 279 279 278 279 279 280 281 280 279 278 277
294 295 295 295 295 296 298 300 298 297 298 296 291 285 285 283 278 273 272 276 277 278 279 281 282 281 286 285 280 282 279 273 279 276 278 275 278 278 278 279 278 279 277 276 275 276 277 277 277 277 277 277 277 275
294 296 297 299 299 300 299 298 298 298 293 286 284 279 279 276 278 277 278 279 280 280 280 280 283 280 280 278 279 276 276 280 276 272 272 274 276 277 278 278 277 276 275 271 272 273 272 273 272 272 272 273 273 273
298 298 299 299 300 299 298 298 299 293 288 282 282 276 277 275 279 284 285 285 284 283 280 281 282 281 281 277 281 276 277 275 273 267 268 275 277 276 276 277 275 274 270 269 267 265 265 266 268 268 271 271 271 270
298 298 297 299 299 299 298 297 292 289 284 279 275 277 281 281 279 281 282 282 283 284 284 284 278 272 277 274 277 276 274 269 265 268 271 273 273 274 273 274 272 268 265 263 262 263 264 264 265 266 267 268 268 269
298 295 299 298 298 296 294 289 287 283 280 274 271 277 278 277 276 277 279 279 283 284 281 280 278 270 276 276 271 271 263 266 272 270 270 270 271 273 268 269 267 268 266 264 263 264 263 263 265 266 264 265 267 267
294 297 296 296 294 291 288 287 283 280 276 276 272 274 274 272 274 274 275 277 280 282 281 276 276 272 265 266 263 264 268 271 273 271 270 268 268 266 269 267 266 266 265 264 264 264 264 264 264 265 265 266 266 266
294 295 296 296 292 287 283 282 283 275 275 275 276 276 274 272 273 272 273 275 277 276 274 269 263 261 261 265 264 266 267 268 269 269 268 265 264 269 266 267 267 264 266 265 266 265 264 266 265 267 267 266 265 265
295 295 295 295 292 284 281 280 283 277 272 273 275 271 272 271 269 268 271 272 273 270 266 264 261 261 263 266 269 269 269 271 271 267 267 268 266 266 266 268 266 266 267 267 267 267 266 267 268 268 267 266 265 264
292 293 294 291 285 283 280 278 277 277 276 272 274 272 269 270 267 267 267 271 267 264 263 264 264 266 268 268 270 272 272 274 272 272 271 269 270 272 267 268 270 269 267 265 266 266 267 266 266 267 265 264 265 266
291 294 289 289 282 281 278 278 277 276 274 273 273 272 264 263 263 264 270 265 264 265 265 266 267 268 268 267 269 271 272 273 272 271 270 271 268 268 267 267 269 266 266 265 268 266 267 267 267 266 265 265 266 266
290 289 284 283 280 277 275 283 275 275 268 270 273 268 265 265 266 272 263 266 265 268 269 268 270 270 270 269 271 270 267 270 269 269 269 268 270 269 267 266 266 266 266 267 269 268 267 267 267 266 267 266 266 265
283 277 276 275 276 272 278 274 279 276 275 271 269 266 266 265 271 266 262 263 266 270 269 269 271 268 268 269 267 267 268 270 269 268 269 268 268 268 267 266 268 269 269 269 268 267 267 266 267 266 266 265 265 265
273 268 270 266 272 268 267 267 269 270 266 269 266 266 268 272 264 263 263 265 266 266 267 268 268 268 266 265 267 267 268 268 266 266 267 269 269 270 269 270 270 270 270 268 266 266 266 266 266 266 266 265 265 264
266 266 266 265 266 268 268 266 266 267 268 267 267 268 267 263 260 259 263 262 262 265 262 263 262 263 265 266 265 265 266 269 268 266 267 268 268 268 267 267 267 269 272 270 268 266 266 266 266 265 264 264 264 262
261 261 269 271 271 270 264 265 267 264 261 261 263 261 259 255 255 262 266 267 265 266 267 268 267 265 265 264 266 268 268 269 267 268 269 269 269 268 267 265 265 267 270 270 269 267 267 266 265 265 264 263 263 263
266 266 261 262 264 266 259 259 257 256 260 266 261 254 252 252 257 263 263 267 266 268 267 266 266 265 265 264 264 265 266 266 267 267 268 268 268 268 268 268 268 270 268 267 267 266 266 265 264 264 264 263 263 263
259 262 263 257 260 261 259 255 257 262 264 261 253 253 257 261 261 262 263 264 265 263 260 260 260 257 260 261 262 262 262 264 263 262 260 259 261 263 266 266 266 266 267 267 270 268 267 266 265 264 264 263 261 261
260 263 260 257 258 257 257 257 256 255 260 260 263 264 261 261 263 261 259 260 259 256 253 254 255 255 254 256 256 259 260 260 260 259 259 259 259 263 264 264 263 263 264 265 264 265 268 265 265 261 261 260 259 259
263 260 259 260 260 258 257 254 258 258 254 254 252 253 256 258 260 261 257 253 251 250 254 252 254 251 254 253 252 253 254 257 258 259 259 259 259 260 261 261 262 261 261 261 260 260 259 259 259 259 259 258 257 257
256 252 255 256 258 259 257 253 253 253 251 252 252 249 252 251 251 254 258 254 252 251 249 248 250 253 249 248 247 247 251 250 251 251 251 251 250 251 254 255 256 257 259 258 257 257 256 256 255 256 254 252 251 251
256 255 252 255 257 256 257 259 257 256 252 252 255 252 252 251 251 255 257 252 253 252 250 250 249 247 249 250 250 248 249 247 249 255 254 253 250 251 248 248 249 252 254 252 251 251 254 252 249 248 247 247 246 247

GFSWCAN_sfc_thetae_114.txt.gz
Theta_e
298 299 298 298 298 297 298 297 297 297 296 297 297 298 298 298 298 294 291 292 288 280 281 284 285 282 281 281 277 280 278 279 277 276 275 276 277 279 279 281 279 278 277 276 277 273 269 289 289 282 289 294 294 294
298 298 298 297 297 297 296 296 296 297 297 297 297 297 298 298 298 297 290 292 293 287 282 287 289 290 288 287 283 282 281 282 279 273 275 278 276 279 279 275 285 277 281 279 280 278 286 289 291 294 295 293 293 292
297 298 297 297 297 297 296 296 296 297 297 297 297 297 298 298 298 297 292 293 291 286 286 282 283 287 290 290 290 280 282 286 284 287 284 281 276 280 276 279 281 284 287 283 283 287 287 289 293 296 294 293 296 295
297 297 297 297 297 296 296 296 297 297 297 297 297 297 297 298 298 297 292 293 291 287 279 279 287 285 289 289 289 289 287 287 287 288 283 281 278 284 280 282 281 285 287 283 284 287 289 292 293 292 294 295 289 289
296 296 296 296 296 296 296 296 297 297 297 297 297 297 297 297 297 296 294 293 294 287 277 279 284 288 289 289 287 288 287 284 282 281 280 280 283 282 283 283 283 287 285 283 281 288 288 290 293 293 290 289 290 287
296 295 295 295 296 296 296 296 296 297 297 296 296 296 296 297 297 293 286 291 293 293 285 277 283 284 286 287 286 286 286 284 285 281 281 283 286 285 280 280 285 286 287 288 287 290 294 292 291 291 288 287 286 286
295 295 295 296 295 295 296 296 296 296 296 296 296 296 297 297 294 288 285 287 295 293 284 278 277 283 288 287 286 285 288 286 285 284 283 282 283 286 281 277 284 285 286 288 287 289 288 289 289 291 288 286 284 283
295 295 295 295 295 295 295 295 296 296 296 296 296 296 297 297 295 290 294 297 295 290 287 277 276 279 288 283 284 288 285 286 287 285 287 285 286 285 280 284 284 283 284 284 284 287 285 287 287 289 290 287 282 280
294 295 295 295 295 295 295 296 296 296 296 296 296 297 294 292 287 290 297 297 296 288 279 279 275 273 287 287 288 289 289 282 288 283 284 286 282 281 282 282 281 281 281 281 282 284 283 283 283 285 284 283 281 279
294 294 294 295 295 295 295 295 296 296 296 297 294 286 282 287 297 298 292 286 285 286 286 280 280 276 284 285 285 285 285 283 280 284 288 283 280 283 283 282 281 280 280 281 279 279 279 279 281 282 282 281 281 280
293 294 294 294 295 295 295 295 296 296 296 290 284 285 290 297 290 286 280 280 281 280 282 282 282 279 285 279 281 284 282 282 277 281 282 281 278 279 281 281 281 279 279 279 279 279 279 279 279 280 281 281 280 279
293 294 294 294 295 295 295 296 296 294 287 289 291 294 293 288 284 279 277 278 278 277 280 281 283 284 282 286 282 283 281 278 276 283 281 277 276 278 279 279 279 279 277 276 276 276 277 278 277 277 278 278 277 277
293 294 295 295 295 295 296 296 297 296 294 295 290 285 284 282 277 272 271 274 277 279 279 282 282 280 283 286 281 282 278 274 280 277 277 275 277 277 278 278 277 277 276 274 274 274 274 275 275 274 274 275 275 274
294 295 295 295 296 296 296 296 296 296 293 285 283 279 276 275 277 277 277 277 280 279 280 280 282 280 282 278 281 276 277 280 276 273 272 274 276 276 277 277 276 275 274 270 270 271 270 270 270 270 269 271 270 270
294 294 294 294 295 296 296 296 298 294 287 284 282 274 277 276 280 280 281 280 283 283 280 280 279 282 278 278 280 276 276 274 272 267 268 275 276 276 276 276 274 273 269 268 266 264 263 265 266 265 267 268 269 268
294 294 294 297 297 297 298 296 292 289 284 279 275 276 278 281 280 281 282 281 283 284 284 282 276 275 277 276 277 274 273 267 265 269 272 273 273 273 273 273 271 268 264 261 260 261 262 262 262 263 263 264 265 265
298 294 298 299 298 298 294 290 287 282 279 273 270 276 277 276 276 276 278 277 281 283 278 278 271 273 277 274 269 269 262 266 271 272 271 270 271 272 269 268 266 267 265 262 261 262 260 261 262 264 262 264 265 266
294 297 299 296 293 290 288 286 283 280 274 274 271 273 272 272 274 273 274 276 278 282 280 275 276 275 271 271 263 264 267 269 271 269 268 268 268 267 269 267 266 265 264 263 262 263 263 261 263 262 262 263 264 265
295 294 296 296 292 286 282 282 282 273 273 273 275 275 273 272 272 272 273 275 276 275 274 270 265 262 259 264 262 264 266 269 267 267 268 264 263 271 266 265 266 263 264 263 264 264 263 263 262 263 264 264 263 263
295 295 294 294 291 283 280 279 281 276 272 273 274 271 271 270 271 267 271 272 272 270 267 265 262 260 260 264 269 270 269 271 271 268 264 265 269 266 264 266 265 264 266 267 267 267 266 264 265 265 266 265 263 263
292 293 293 288 284 284 278 276 277 276 275 271 273 271 267 270 268 267 267 271 266 264 262 263 263 264 265 267 269 271 272 273 269 271 268 265 267 270 269 268 269 268 267 266 265 264 264 264 265 265 263 263 264 265
291 293 287 288 281 280 279 278 276 276 274 273 272 271 263 262 260 263 269 264 263 263 263 265 265 265 267 267 268 269 269 272 270 268 266 268 267 268 267 266 267 265 266 264 266 264 264 266 267 266 265 265 266 266
289 288 284 283 278 275 273 282 274 273 267 270 271 266 262 261 264 270 260 263 263 266 267 267 267 267 268 268 270 269 268 270 266 266 267 267 268 267 267 266 264 263 264 264 265 266 265 266 267 266 266 266 265 265
283 277 276 275 275 270 277 273 277 274 273 267 266 262 263 262 268 262 258 259 263 267 268 269 270 267 268 269 267 267 268 268 267 267 267 267 267 266 267 267 267 267 267 266 266 265 266 265 265 265 264 264 264 264
274 269 271 264 269 267 263 264 266 268 265 265 265 264 265 268 261 260 258 263 265 265 266 268 268 268 266 267 267 267 268 269 267 266 266 268 266 267 267 269 269 269 269 264 264 263 263 263 263 264 264 263 264 263
265 266 265 264 265 266 267 262 262 263 265 263 266 267 266 263 261 260 263 264 264 266 263 262 262 263 264 266 265 265 266 269 268 265 266 268 267 266 264 264 264 266 270 267 265 263 264 264 262 263 263 264 263 262
262 262 269 271 270 269 264 265 267 265 264 263 264 260 259 254 254 261 266 267 265 265 267 266 265 264 262 263 265 267 268 268 267 267 268 268 268 268 266 263 264 267 269 269 266 265 264 263 262 262 262 261 261 262
265 266 261 261 262 265 258 259 258 257 261 265 260 253 252 253 257 262 262 265 263 265 264 264 263 263 262 262 262 263 263 264 266 266 267 267 267 266 266 266 267 270 267 266 265 265 265 263 261 261 261 260 260 261
259 262 263 257 260 260 259 257 258 263 264 260 254 254 256 260 258 260 261 263 264 263 258 257 257 254 257 258 260 261 260 259 258 257 256 256 258 261 264 264 265 265 265 266 270 267 267 265 264 262 261 261 260 260
259 261 258 254 255 256 255 257 255 256 260 259 262 263 261 259 260 260 258 259 258 254 252 252 249 250 250 251 251 254 257 255 254 253 254 254 255 259 261 262 263 263 263 263 264 264 267 264 264 261 261 260 259 257
261 259 258 257 255 257 256 251 252 254 252 253 252 252 254 256 258 258 253 249 248 247 250 250 251 246 250 249 249 250 252 253 252 253 254 254 254 253 255 256 258 259 259 260 260 259 259 258 257 258 259 259 257 257
254 252 256 255 256 255 255 251 250 251 248 251 251 247 249 250 250 253 255 250 249 250 248 246 249 251 247 246 244 244 249 247 248 248 248 248 247 246 248 249 248 250 252 252 254 255 254 254 253 252 251 252 251 250
253 253 252 254 255 254 255 255 254 253 250 251 251 249 248 250 251 254 255 250 251 252 250 248 247 246 247 248 248 247 248 246 246 254 255 253 249 249 246 246 247 248 251 249 248 251 253 250 247 246 246 246 246 246

GFSWCAN_sfc_thetae_120.txt.gz
Theta_e
300 300 300 300 300 300 299 300 299 299 299 299 298 298 298 298 299 297 296 298 293 288 289 289 289 287 287 286 282 287 286 286 286 281 281 280 279 280 279 280 279 279 279 280 281 278 274 291 290 284 291 296 293 291
299 299 299 299 299 299 300 299 300 299 299 299 298 298 298 298 299 298 293 298 298 289 289 293 293 294 292 291 288 288 286 284 287 284 285 283 281 282 279 276 286 279 282 280 283 283 292 293 292 296 296 294 293 292
298 299 299 299 299 299 299 299 299 299 298 298 298 298 298 298 299 298 295 295 292 288 288 289 289 294 296 295 296 286 289 288 288 292 286 285 280 284 277 280 281 284 287 284 283 285 286 287 289 291 293 291 290 291
297 298 299 298 298 298 298 298 298 298 298 298 298 298 298 298 299 298 296 296 293 290 283 286 293 291 295 296 295 295 292 293 292 292 286 284 281 286 282 282 282 285 287 284 284 285 286 288 288 286 288 289 289 290
296 297 298 298 298 298 298 298 298 297 297 298 297 298 298 298 299 299 298 295 295 290 283 285 292 293 294 294 293 294 292 291 289 285 284 283 286 285 286 285 284 287 283 281 281 284 284 286 286 288 287 288 288 289
295 296 297 297 298 298 297 297 297 297 297 297 297 298 298 298 298 295 287 295 297 295 287 282 291 290 292 293 292 291 291 291 289 286 285 287 290 287 282 281 286 287 288 285 283 287 288 288 290 289 289 288 288 288
295 296 297 297 297 297 297 297 297 297 297 297 298 298 298 298 298 292 290 293 296 296 286 282 284 290 291 292 292 291 292 289 289 286 286 286 286 288 285 280 284 286 286 286 286 287 285 285 284 288 288 288 288 287
294 295 296 297 297 297 297 296 297 297 297 297 297 297 297 297 296 292 297 297 297 290 288 279 282 286 292 290 289 292 288 287 288 288 290 286 288 287 282 285 285 284 285 284 285 286 285 286 286 286 287 288 287 286
294 295 296 296 296 296 296 296 296 296 296 296 297 297 296 293 288 292 297 297 297 291 283 281 281 281 292 292 292 290 289 283 291 285 286 288 286 282 282 283 282 282 281 281 284 284 284 283 283 283 284 284 283 283
294 295 295 296 296 296 295 296 296 296 296 296 295 288 284 288 296 297 292 287 285 288 287 282 287 283 289 290 288 286 287 286 282 286 290 285 284 283 283 283 282 282 281 282 280 279 280 281 280 281 281 282 282 281
294 295 295 296 296 296 296 296 296 296 296 291 285 285 294 296 293 289 282 282 283 281 285 285 286 284 291 284 284 290 286 287 282 285 284 284 281 280 283 282 282 282 281 280 280 280 280 280 279 279 280 281 281 280
294 295 295 295 296 296 296 296 296 293 292 291 292 294 293 289 287 282 281 283 281 280 286 282 284 286 289 292 287 287 284 284 280 288 284 281 278 280 281 280 280 280 279 279 279 278 278 278 278 278 278 278 278 278
295 295 295 295 295 295 295 295 295 295 295 293 289 286 284 285 279 278 275 277 280 284 287 286 283 287 289 289 286 285 282 280 288 282 281 278 279 280 281 281 280 279 278 278 277 277 277 276 276 275 274 275 275 276
294 295 295 295 295 295 295 294 295 295 291 286 283 280 280 279 281 282 282 283 287 287 287 287 285 286 288 284 286 281 284 284 279 277 277 279 279 279 280 280 279 277 276 273 274 275 273 273 273 272 271 272 273 273
294 294 295 295 295 295 295 295 295 294 288 283 284 280 281 286 285 286 287 287 288 291 289 286 286 287 285 284 284 282 279 277 280 279 279 279 279 279 279 278 278 277 275 274 273 271 270 270 270 271 270 271 272 272
294 294 293 295 295 295 295 295 293 289 286 283 281 281 284 284 283 285 285 284 288 289 291 291 285 282 283 284 280 279 278 278 278 279 280 281 278 277 277 277 277 276 275 274 273 272 272 269 269 270 270 270 270 271
293 290 294 295 294 294 294 289 288 285 283 280 279 280 280 283 284 282 284 284 286 287 284 286 281 282 284 281 279 281 280 278 278 279 281 279 278 278 277 276 275 275 275 274 273 273 272 271 270 271 270 271 271 272
291 295 295 295 295 292 288 287 285 281 276 279 278 277 277 277 280 279 281 282 283 285 287 283 286 281 280 279 279 277 278 278 279 279 279 278 278 277 278 277 276 275 275 273 272 272 272 271 273 273 272 272 272 272
293 294 295 295 292 289 284 284 285 277 277 278 278 278 277 276 276 278 279 280 280 281 282 281 279 279 276 276 276 276 277 278 277 278 278 276 276 275 276 276 276 276 274 274 274 275 274 271 272 273 273 273 272 272
294 295 295 295 294 287 281 280 285 279 276 277 278 276 276 276 277 277 277 278 278 277 274 274 273 273 274 274 276 276 277 278 278 277 277 278 278 276 276 276 276 276 276 275 275 272 274 273 273 272 272 271 272 271
293 293 294 292 286 285 283 280 279 279 278 276 277 277 275 277 276 275 274 275 274 272 272 273 273 273 274 275 277 277 276 277 276 276 276 276 276 276 276 276 275 275 275 274 273 273 272 271 272 272 272 271 272 272
289 292 289 289 284 282 281 283 279 280 278 277 276 276 275 274 274 273 274 272 270 271 273 274 274 274 273 273 273 275 274 275 274 275 274 274 275 274 274 274 275 273 273 273 273 272 272 272 272 272 272 271 271 271
291 290 286 285 280 279 277 284 278 278 274 274 276 272 272 273 273 274 269 270 271 273 274 274 273 274 273 273 273 273 273 274 274 274 274 274 274 274 274 273 273 272 272 272 273 272 271 269 270 271 271 271 271 270
285 280 278 278 279 276 281 278 280 277 276 274 272 269 269 272 273 271 267 269 271 274 273 272 274 273 273 272 272 272 273 274 273 273 274 274 273 272 273 273 273 273 272 273 273 272 272 271 269 271 271 270 270 270
279 272 275 272 276 275 273 274 274 274 271 271 269 269 270 273 269 266 264 268 270 271 272 273 273 274 272 271 272 271 272 274 273 271 272 273 274 274 273 273 273 273 274 273 272 272 271 271 271 271 270 270 269 269
269 269 271 271 273 273 273 270 270 271 271 269 269 271 273 270 265 264 267 269 270 271 271 271 271 270 269 271 271 271 271 273 273 271 271 272 272 272 272 271 271 272 274 274 273 272 271 271 270 268 269 268 267 268
268 268 271 272 273 273 271 272 273 272 269 268 269 268 268 264 263 266 269 271 270 271 271 272 272 271 270 270 270 271 272 273 272 271 271 271 271 271 271 270 269 270 273 273 273 273 272 271 270 270 269 270 270 270
269 269 266 267 266 268 266 266 266 265 267 268 268 264 264 264 264 268 269 270 270 270 269 269 270 271 271 270 270 271 271 271 271 271 272 271 271 270 270 271 271 271 272 272 273 273 273 272 271 270 269 269 269 270
266 268 268 262 264 263 263 264 265 266 266 268 265 263 263 265 266 268 269 270 271 271 269 268 267 268 268 267 266 267 267 269 269 264 263 267 268 268 268 269 270 270 272 273 272 272 271 271 271 271 269 270 270 270
265 268 263 261 260 261 262 264 264 265 266 266 266 265 264 265 265 267 269 269 269 268 267 267 266 268 267 268 266 265 265 265 265 268 268 266 266 266 266 267 267 269 270 271 271 271 269 270 270 269 269 269 269 269
267 266 263 263 261 263 264 263 264 265 265 264 266 265 263 265 266 266 266 265 265 265 266 265 264 265 266 265 267 265 264 264 261 262 262 264 265 265 265 264 266 267 269 270 269 269 269 269 269 268 267 265 265 266
265 263 262 260 261 264 265 266 266 265 266 266 264 264 263 265 263 265 264 265 265 265 260 264 264 262 261 262 261 262 257 262 262 261 261 262 264 264 264 264 265 267 267 267 268 268 267 266 267 266 266 263 263 263
263 264 264 264 263 263 264 265 264 264 265 265 264 263 264 265 262 265 262 263 266 266 264 264 264 263 261 261 262 262 259 262 257 258 258 258 256 258 263 265 265 265 265 266 266 266 264 263 264 262 262 261 261 261

GFSWCAN_sfc_thetae_123.txt.gz
Theta_e
300 300 300 300 299 299 300 300 300 299 299 300 299 298 299 299 299 297 297 301 295 291 291 292 291 289 290 289 285 289 289 289 288 283 282 282 281 282 280 281 280 280 279 280 281 279 276 290 292 285 290 295 293 293
300 300 300 300 300 300 300 300 300 300 299 298 299 299 299 299 299 298 293 300 300 293 291 296 296 296 294 293 290 291 288 286 289 285 286 285 282 284 281 277 286 279 282 280 282 282 289 289 287 289 291 292 291 290
299 300 299 299 299 300 300 299 299 300 299 298 298 299 299 299 299 298 295 297 298 291 291 292 291 297 299 298 298 288 292 291 291 294 289 286 281 285 279 281 283 285 288 284 283 285 285 287 288 288 288 287 289 291
298 298 299 299 299 299 299 299 299 299 299 299 299 299 299 299 299 299 296 298 297 292 286 289 296 294 297 298 297 297 294 295 293 291 288 286 283 288 283 284 283 287 288 284 285 286 287 289 288 288 289 289 290 292
297 298 298 299 299 299 299 299 299 299 298 298 299 299 298 298 299 300 299 300 300 291 285 288 294 296 297 297 295 296 295 292 289 288 287 284 288 287 288 287 285 288 283 282 282 286 284 287 287 290 288 288 289 289
296 297 297 298 298 299 298 299 299 298 298 298 298 298 298 299 299 295 289 297 299 297 289 283 294 292 294 295 294 293 294 292 289 287 287 288 291 288 283 282 287 288 287 286 285 288 288 289 290 289 288 288 289 288
296 296 297 297 298 298 298 298 298 298 297 298 298 298 299 299 298 293 291 295 297 298 289 283 286 292 294 294 295 293 294 291 289 287 286 287 288 289 285 281 287 287 288 288 288 288 286 287 285 287 288 289 290 289
294 295 296 297 298 298 298 297 297 297 297 297 298 298 298 298 297 293 299 298 298 293 292 281 284 288 295 291 289 293 288 288 287 288 290 288 290 289 284 287 287 287 288 287 287 288 287 288 288 288 288 288 287 286
294 295 296 296 297 298 297 297 297 297 297 297 297 297 296 294 291 294 298 298 300 291 285 282 282 283 294 293 294 292 291 284 291 286 287 289 287 284 285 285 284 285 284 284 287 288 287 286 286 286 286 285 283 283
293 294 295 296 296 297 296 297 297 297 297 297 294 290 285 290 297 297 293 289 288 288 287 284 289 286 291 291 290 287 288 286 283 287 292 287 288 285 286 286 286 285 285 285 283 282 283 283 283 283 284 284 283 281
293 294 295 296 296 296 295 296 296 297 296 291 287 288 295 298 294 290 284 284 285 282 287 287 288 286 293 286 287 291 288 288 282 286 285 285 283 282 284 284 285 285 284 283 283 283 283 282 281 281 282 282 281 280
293 294 295 295 296 296 296 296 296 295 291 293 294 295 294 290 287 283 282 285 283 281 288 286 287 289 291 293 288 289 285 287 280 290 284 283 280 283 284 283 283 283 282 281 281 281 280 280 280 279 279 278 278 278
293 295 295 296 296 295 295 296 296 295 297 296 292 286 285 285 279 278 277 280 282 287 290 289 285 288 290 291 288 286 281 282 290 284 283 281 282 283 284 284 282 281 280 280 279 279 278 278 278 276 275 275 276 276
294 294 295 296 296 296 296 296 296 295 293 287 284 280 281 280 282 284 285 285 289 291 291 290 286 286 289 285 287 281 286 286 281 279 280 282 282 282 283 282 282 280 278 276 277 277 275 274 274 274 273 274 274 274
295 295 296 296 296 296 296 295 295 296 291 284 285 279 282 288 290 290 291 291 292 294 292 289 288 289 286 284 285 285 281 279 282 281 281 282 282 282 281 281 280 279 277 277 277 274 274 272 272 273 273 274 274 273
295 295 294 295 295 296 296 295 290 293 289 285 284 282 286 286 285 286 287 287 292 293 293 291 286 282 283 285 282 281 280 279 281 282 282 282 281 280 280 279 279 278 277 277 277 276 275 273 272 273 275 274 273 273
294 292 295 295 295 295 294 287 290 286 284 283 283 286 284 284 284 284 287 287 290 289 285 287 281 282 287 282 281 286 282 281 281 281 282 281 279 279 279 279 278 278 278 277 277 276 275 275 275 275 274 275 274 274
293 296 295 295 294 291 288 290 288 285 281 283 281 282 283 283 283 283 284 286 287 288 288 284 289 283 282 280 282 281 281 281 281 281 280 279 279 279 279 279 278 278 277 277 275 276 277 275 275 275 275 275 275 275
295 296 295 294 292 291 287 286 288 281 282 282 282 282 282 281 281 282 283 284 285 286 289 287 283 282 281 280 280 279 280 281 280 280 279 278 278 277 277 278 278 278 277 276 276 276 276 275 274 274 274 274 273 275
295 294 294 294 295 289 283 283 289 283 280 281 281 280 281 281 281 282 281 282 283 283 281 280 280 278 279 278 279 279 279 280 280 280 279 279 279 278 277 277 277 277 278 277 277 273 275 276 276 275 274 273 273 273
294 294 294 294 289 288 284 283 283 284 281 280 280 281 279 281 281 280 279 280 280 278 277 277 276 276 278 278 280 280 279 280 278 279 278 278 278 278 278 278 277 277 276 276 275 275 274 274 274 274 274 273 273 274
292 293 290 291 286 284 283 285 282 283 282 280 280 281 280 279 279 278 279 278 276 275 277 277 277 276 276 276 276 277 277 277 277 277 276 277 276 276 275 276 276 275 275 274 274 274 274 274 273 274 274 274 273 273
292 292 289 287 281 281 278 285 280 280 277 277 279 277 277 277 277 278 275 276 274 276 278 277 276 277 275 275 276 276 276 277 276 276 276 276 276 276 276 275 275 275 274 274 275 274 273 271 273 273 274 274 274 273
289 284 282 282 282 278 282 280 281 279 279 277 277 274 274 276 277 276 273 274 274 276 276 275 276 275 275 275 275 275 276 277 276 275 277 277 275 275 275 275 275 275 274 274 274 274 274 274 272 274 273 273 273 273
281 275 279 276 281 279 277 277 277 277 275 276 274 273 274 276 274 272 271 272 273 274 275 276 277 277 277 275 275 274 275 277 275 274 275 276 276 276 276 276 275 275 276 275 274 274 273 273 273 273 273 273 271 270
273 273 275 277 277 277 278 274 275 275 276 274 273 276 276 275 271 270 272 273 274 274 275 275 274 274 274 275 274 273 274 276 276 273 273 274 274 274 274 273 274 274 275 275 275 274 273 273 272 271 272 269 269 271
272 272 275 277 278 278 276 277 278 277 273 272 274 273 273 269 269 270 273 274 273 274 275 276 275 274 273 272 273 274 275 275 275 273 274 274 273 273 273 271 270 272 274 275 275 275 274 273 273 272 272 273 272 272
273 274 270 272 272 275 271 273 272 271 273 275 274 270 270 270 268 272 273 274 274 274 273 274 275 275 274 273 274 274 273 273 273 274 274 274 273 273 272 273 273 272 274 274 274 274 274 274 273 273 272 272 271 272
271 273 271 265 268 268 268 269 270 270 270 273 270 268 267 269 271 271 272 273 274 274 272 271 271 272 272 272 272 272 273 273 271 267 267 271 271 271 271 271 272 272 273 274 273 273 272 273 273 273 271 273 272 273
269 273 268 265 264 265 266 268 267 268 270 271 270 268 268 268 269 272 272 273 272 272 272 272 272 272 271 271 270 269 270 270 269 270 270 270 269 269 270 270 270 271 272 272 272 273 270 272 272 272 272 271 272 271
272 271 267 267 265 267 267 268 269 269 270 270 272 270 268 268 269 271 272 272 271 271 271 270 269 271 270 270 270 269 268 267 265 265 266 268 269 269 269 268 270 270 271 271 271 271 271 271 271 270 268 268 267 268
271 268 266 264 265 267 269 270 270 269 269 269 267 268 267 269 267 268 270 271 270 270 266 270 268 267 267 267 267 265 264 266 266 265 264 266 268 267 268 269 269 270 269 270 270 270 269 268 269 268 268 266 266 266
268 269 269 267 265 266 268 269 269 267 269 269 268 270 271 271 267 270 269 271 272 271 269 269 268 267 265 266 266 265 265 265 261 262 261 260 259 261 265 268 269 268 268 268 269 268 267 265 266 266 265 264 264 264

GFSWCAN_sfc_thetae_126.txt.gz
Theta_e
301 300 300 300 299 299 299 299 299 299 300 300 299 298 298 298 298 298 297 301 295 291 292 291 292 290 290 288 285 289 288 289 287 282 282 281 280 282 281 282 281 279 278 278 279 276 273 286 287 280 283 288 288 289
300 300 300 299 299 299 299 299 299 299 300 300 299 298 299 298 299 298 294 299 299 292 292 297 296 297 295 293 290 290 288 287 289 285 285 284 282 284 281 277 286 278 282 280 281 280 287 287 286 288 288 287 287 289
300 300 300 299 299 299 299 299 299 299 299 298 299 298 299 299 299 298 296 297 297 291 291 292 291 297 298 297 298 288 291 292 291 293 288 286 281 284 279 281 282 286 289 283 282 285 285 286 288 289 289 288 289 291
299 299 299 299 299 299 299 299 299 299 299 299 298 299 299 299 299 299 297 298 295 292 286 290 297 295 298 298 297 296 294 295 293 291 287 285 282 288 283 284 284 286 287 283 284 286 286 288 288 288 289 289 288 289
298 297 299 299 299 299 299 299 299 299 299 299 298 299 299 299 299 299 301 301 300 291 285 288 294 296 297 296 294 295 294 292 289 288 286 284 287 286 287 287 286 288 284 281 281 286 284 286 288 289 288 287 288 287
297 298 299 299 298 299 299 299 299 299 299 299 299 298 299 299 300 295 290 298 299 297 288 283 294 293 295 295 294 293 293 292 290 288 287 288 291 287 283 282 287 288 288 288 285 288 289 289 289 289 287 288 289 287
297 297 297 298 298 299 299 299 299 299 298 298 299 299 299 299 299 292 291 295 298 298 289 283 285 292 294 294 293 292 294 291 290 289 287 287 287 289 285 281 288 288 289 289 289 288 285 287 286 288 288 288 289 287
296 296 296 297 298 298 298 298 298 298 298 298 298 299 299 298 296 293 298 297 298 292 291 282 283 288 294 289 288 293 289 290 289 287 289 287 289 289 283 287 288 288 288 288 287 289 287 288 288 287 288 287 285 283
295 296 297 296 297 298 298 298 298 298 298 298 298 298 296 294 291 294 298 298 300 292 284 284 281 283 294 291 292 291 291 284 290 285 286 288 286 283 286 286 286 286 285 284 286 287 286 285 284 284 285 284 282 281
294 295 296 297 297 297 297 297 298 297 297 297 295 289 285 292 298 297 294 290 288 289 288 283 288 285 290 291 288 288 288 284 283 286 291 286 286 287 286 287 287 285 285 285 282 281 282 281 281 281 282 282 281 279
293 293 295 295 297 297 297 297 297 297 296 292 286 288 295 298 294 290 283 283 285 281 286 286 286 285 292 286 286 291 286 287 281 286 285 284 282 283 286 286 287 285 284 283 283 282 282 281 279 279 279 279 278 278
293 293 294 295 296 297 297 297 297 295 291 293 294 296 294 290 286 281 281 284 283 281 288 286 287 288 291 293 288 289 284 286 279 289 284 281 281 285 286 285 284 283 283 282 282 280 279 279 278 277 277 276 275 277
293 293 294 296 296 296 296 297 296 296 297 297 291 286 285 284 278 277 276 280 281 287 290 290 287 289 291 291 288 286 280 281 290 284 281 281 283 285 285 284 283 282 280 280 279 279 278 276 276 276 274 274 275 275
293 294 295 296 296 295 296 296 296 296 292 285 283 278 279 279 281 283 284 285 291 292 291 290 286 286 288 286 286 280 285 286 280 279 279 282 283 283 283 283 282 280 278 277 277 276 275 274 273 274 272 274 273 273
293 294 295 295 296 295 296 296 296 296 290 284 284 278 281 286 289 290 293 292 293 294 292 289 288 288 286 284 284 284 281 279 281 280 282 283 283 283 282 281 280 279 277 277 278 275 275 272 272 273 274 274 273 274
294 294 294 295 296 296 296 295 294 291 289 286 284 281 286 287 284 284 286 288 293 293 294 291 286 282 282 284 281 280 280 279 281 281 282 282 281 281 280 280 279 278 278 278 278 277 276 273 272 274 275 275 271 274
294 291 296 296 295 296 293 288 288 285 285 283 283 285 284 285 284 285 288 288 291 290 285 286 281 280 287 282 281 285 280 281 282 281 282 281 280 279 279 279 278 278 278 278 277 276 276 276 276 276 274 275 275 275
293 295 296 296 295 292 288 288 287 285 281 284 282 283 283 283 284 284 285 286 287 287 287 284 288 282 281 279 281 281 280 281 282 281 280 280 280 279 279 279 279 278 278 277 277 277 278 275 274 274 275 275 275 275
295 296 295 295 293 290 286 286 289 281 283 284 283 283 283 282 283 284 284 285 286 286 287 287 283 282 281 281 280 280 281 281 280 280 279 279 278 278 278 279 278 279 277 277 276 276 276 276 275 275 274 274 273 274
295 295 294 294 294 288 283 285 291 284 281 283 283 282 283 282 282 283 283 283 284 284 283 282 279 278 279 279 281 280 281 281 281 279 279 279 280 279 278 277 277 278 278 278 278 276 276 276 275 275 274 274 273 272
293 293 293 294 291 289 285 285 285 285 282 281 282 281 280 281 281 281 281 281 282 281 279 279 277 277 279 280 281 281 279 280 279 278 278 278 278 279 278 278 278 278 277 276 276 275 275 273 273 274 274 273 273 274
292 292 290 292 287 285 284 287 284 284 282 281 280 281 280 279 280 280 280 280 279 276 278 279 277 276 276 276 277 278 278 278 278 278 278 278 276 276 276 276 276 276 275 275 275 274 274 273 273 274 273 273 274 272
293 292 289 288 282 282 280 287 281 281 278 278 280 278 278 279 279 280 278 277 275 278 279 278 277 278 276 276 276 276 277 278 277 277 277 277 277 277 276 276 276 275 274 274 275 274 274 273 273 273 274 274 274 274
291 286 284 283 283 279 282 280 283 280 280 278 278 277 276 278 278 277 276 276 276 277 276 276 277 276 276 276 276 276 277 278 276 276 277 277 276 275 276 276 276 275 275 276 275 275 274 274 272 274 274 273 273 273
282 279 281 279 283 279 278 278 278 278 276 278 276 276 275 278 275 275 274 274 275 276 276 277 278 278 277 276 275 275 276 277 276 274 275 276 276 277 276 276 275 275 276 275 274 275 273 274 274 273 273 272 271 272
278 277 277 280 279 279 279 276 277 277 277 276 276 278 278 276 273 273 274 274 275 276 276 276 276 275 275 276 275 274 274 276 276 274 274 275 274 274 273 273 273 272 274 275 274 274 274 273 273 272 272 271 268 270
274 274 277 279 281 281 279 280 281 279 276 275 276 274 274 271 272 272 275 276 275 276 277 277 277 276 274 274 274 275 276 275 274 274 275 274 274 273 273 271 269 271 273 274 274 274 273 273 273 272 272 273 272 272
276 277 271 275 276 278 275 276 276 275 276 278 277 273 273 273 271 273 274 276 276 276 275 276 276 276 275 274 275 274 274 274 274 274 274 274 273 273 273 273 273 273 273 274 273 273 273 273 273 273 272 271 271 272
274 276 273 270 272 272 273 274 275 273 273 275 275 271 268 270 272 272 274 275 275 274 273 272 272 273 273 273 273 273 273 273 272 270 269 271 270 269 272 272 272 272 273 273 273 272 271 271 271 271 271 272 272 272
272 276 270 268 268 269 269 270 270 271 272 272 270 269 269 269 271 275 274 274 274 274 274 273 273 273 271 271 270 269 270 270 270 269 269 268 268 270 270 270 270 271 271 272 272 272 272 272 272 272 271 271 270 270
274 274 271 270 268 269 269 271 271 272 272 273 274 271 268 268 270 272 274 274 273 272 272 271 271 272 271 271 271 269 267 268 266 265 267 269 269 270 269 268 270 270 271 271 271 271 270 270 271 270 269 268 267 267
273 271 269 266 265 268 271 271 271 270 269 269 268 269 269 269 267 269 271 272 271 271 269 272 270 269 269 269 268 267 266 267 266 266 265 266 268 267 268 269 270 270 269 269 270 270 269 268 268 267 267 267 265 265
272 272 270 268 266 267 269 271 270 269 271 270 269 270 272 271 268 269 272 274 273 273 271 271 269 268 267 268 267 266 266 265 262 264 262 261 259 261 265 267 268 269 268 268 268 268 267 267 266 265 266 264 264 264

GFSWCAN_sfc_thetae_129.txt.gz
Theta_e
301 301 301 300 300 300 300 299 299 300 300 300 299 298 299 299 299 296 292 296 291 286 288 291 291 285 285 284 279 284 282 283 280 276 274 276 275 277 276 279 276 275 271 273 274 266 267 286 284 277 282 286 287 287
300 300 300 300 299 299 299 299 299 300 300 299 299 298 299 299 299 298 289 295 296 288 288 293 293 293 291 290 285 285 283 284 281 276 276 276 276 276 276 272 284 272 281 278 280 279 285 287 285 287 287 286 286 287
300 300 300 299 299 299 299 299 299 299 299 299 299 298 298 299 299 298 292 292 291 285 285 286 287 293 295 292 292 282 286 289 286 287 278 278 276 278 271 275 278 284 287 279 281 284 284 286 288 288 289 288 288 288
299 300 300 299 299 299 299 299 299 299 299 299 299 299 299 299 299 298 294 293 291 288 279 286 295 291 296 294 292 291 289 290 289 285 279 277 277 283 278 280 279 284 286 282 281 284 285 286 287 287 287 289 288 288
299 299 299 299 299 299 299 299 298 298 299 298 299 299 299 298 299 296 295 296 295 288 283 281 290 293 294 292 291 291 290 287 283 280 276 276 282 280 281 282 284 285 283 277 278 285 284 285 287 289 286 286 287 286
298 299 299 299 299 299 299 299 299 299 299 299 298 298 299 300 299 292 284 293 296 292 281 277 289 290 292 292 290 289 289 287 284 281 280 283 286 283 278 277 286 286 287 287 284 288 288 287 289 288 287 286 286 285
297 298 298 299 299 299 299 299 299 299 299 299 299 299 299 299 294 288 287 293 296 294 282 278 280 290 292 291 288 287 288 286 285 282 279 281 282 284 279 278 286 287 288 288 288 287 285 286 284 286 286 285 285 284
296 297 298 299 298 299 299 298 299 299 299 299 299 299 299 298 296 292 293 296 296 290 287 275 276 282 291 284 283 288 284 285 284 282 282 281 285 285 280 286 286 286 287 285 285 286 284 285 284 284 284 283 281 280
296 296 295 297 298 298 298 298 299 299 298 298 298 298 293 290 286 290 298 297 294 289 279 275 273 278 289 287 288 288 286 278 284 276 280 283 281 278 285 285 283 284 283 283 285 283 283 281 281 281 281 280 278 277
296 296 295 296 297 298 298 298 298 298 298 297 292 286 282 287 299 296 290 286 285 286 286 279 282 277 286 283 286 279 285 281 277 282 285 281 278 284 285 285 283 283 283 282 279 278 278 277 277 278 278 277 276 276
295 296 296 296 297 297 298 298 297 297 295 289 285 283 291 298 290 284 278 280 279 279 281 281 281 278 287 278 278 284 279 277 276 280 280 279 280 282 286 285 283 282 282 281 280 279 278 277 276 275 275 275 275 275
294 295 296 296 297 297 297 297 297 292 290 290 291 293 291 287 282 279 278 278 279 278 282 279 282 283 283 287 280 280 278 278 275 284 281 278 280 284 285 282 280 279 280 279 279 277 276 276 275 275 274 273 273 274
294 293 295 296 297 297 297 297 296 295 295 293 289 283 281 280 276 272 269 274 275 281 283 282 278 283 283 285 280 276 278 276 284 275 278 278 281 284 283 280 278 277 277 277 277 277 275 274 275 274 273 273 272 272
294 294 294 296 296 297 297 296 296 295 291 282 280 276 277 272 276 278 278 279 282 282 283 283 279 279 280 277 277 278 278 279 272 271 276 279 281 281 279 280 278 276 277 275 275 275 274 273 272 270 267 266 265 267
293 294 294 295 295 297 296 296 297 294 288 279 280 271 274 279 280 280 281 282 284 286 285 282 280 280 277 276 278 280 275 275 275 275 278 280 280 279 278 278 277 277 273 273 275 269 269 267 267 266 266 268 267 264
293 293 292 295 295 297 296 296 293 290 286 283 279 276 280 277 279 283 284 285 286 282 285 286 278 276 273 280 278 275 274 272 277 279 280 280 278 278 277 278 275 274 274 272 269 268 267 266 265 269 270 270 265 265
293 288 294 295 295 296 295 288 288 284 283 278 275 279 277 281 282 283 285 285 285 281 282 283 279 276 279 275 275 278 274 278 279 278 279 279 278 276 278 278 273 275 275 272 268 267 269 271 266 267 266 267 267 271
289 293 295 296 294 292 288 288 285 282 279 278 276 280 277 279 281 283 283 283 283 281 283 282 284 278 273 273 275 278 279 279 279 279 277 277 278 277 279 278 276 273 274 269 268 269 269 267 269 266 267 266 269 269
293 293 296 294 292 288 284 285 287 278 277 278 278 279 281 277 280 281 282 282 283 284 283 283 279 274 274 278 278 278 279 279 277 275 272 273 275 273 274 274 275 275 270 269 269 270 268 273 269 267 266 267 266 265
295 293 292 294 295 287 282 283 287 280 276 277 280 280 281 280 277 277 281 281 281 282 281 279 272 274 276 276 276 277 277 276 279 275 274 274 272 275 270 271 269 270 275 274 274 271 270 269 268 268 267 265 266 265
292 293 294 293 289 287 282 281 281 281 278 279 279 277 279 277 278 277 279 278 278 276 273 272 274 274 276 276 277 275 274 277 273 274 275 271 271 274 272 269 275 273 272 269 269 267 267 265 265 269 266 264 266 266
290 291 289 290 285 284 282 283 280 280 278 276 277 280 277 276 277 277 279 275 273 271 273 274 275 275 274 273 273 273 273 275 275 275 276 275 271 270 268 268 271 271 267 265 268 267 266 266 266 268 266 266 268 265
291 290 287 285 279 278 278 283 276 278 272 274 279 276 273 273 272 278 272 272 271 272 275 273 273 276 274 274 274 273 273 277 273 273 272 271 271 273 270 269 268 266 266 267 270 269 267 267 265 263 266 268 268 269
290 284 278 277 278 274 278 275 280 280 279 275 273 272 274 273 276 271 272 272 269 272 271 269 273 273 274 274 274 273 273 274 273 273 273 275 272 268 269 269 268 268 269 274 271 269 266 266 267 267 267 269 265 265
276 274 277 271 278 272 272 274 275 276 271 275 275 271 269 274 270 271 272 270 268 271 270 271 274 274 273 272 271 270 272 275 273 270 267 268 270 274 272 272 271 269 270 266 266 270 266 262 266 262 264 260 263 265
272 272 273 274 273 274 275 274 274 274 275 273 273 275 272 271 271 268 271 270 270 272 268 269 270 271 273 273 271 270 268 271 273 269 266 269 268 266 268 270 268 265 268 265 264 265 271 266 263 264 267 264 261 262
270 271 276 279 279 280 277 277 279 276 272 271 273 270 269 266 268 268 272 273 272 273 272 273 274 273 270 270 270 268 268 269 269 269 270 270 270 269 265 261 261 263 266 268 263 266 266 269 266 263 265 267 263 261
274 275 268 274 274 277 273 273 271 270 271 275 274 269 268 266 266 270 269 273 274 274 273 273 273 272 271 268 267 267 265 264 265 267 269 269 267 264 264 264 264 269 266 267 262 261 260 262 263 267 261 262 260 263
271 275 274 269 269 270 269 269 270 269 270 270 271 266 263 267 269 271 272 272 271 271 269 268 265 265 267 267 267 266 267 267 265 265 260 265 262 262 261 261 263 262 261 265 271 265 262 261 260 259 260 261 263 263
269 274 269 266 264 264 264 266 267 268 268 268 268 268 267 268 270 272 270 269 268 266 265 266 264 264 262 263 261 261 262 260 259 259 261 260 261 260 259 258 259 259 259 259 260 264 267 261 267 268 264 259 257 256
274 272 268 267 265 266 268 268 268 269 270 270 270 268 266 266 267 268 272 272 271 268 266 263 267 266 268 266 261 259 257 257 257 257 258 258 258 259 257 257 258 259 260 258 259 259 257 259 262 261 258 257 256 256
272 272 267 264 264 267 268 267 267 266 267 267 266 266 264 263 259 261 265 266 263 263 264 264 265 262 262 261 258 260 261 260 256 255 255 256 256 255 257 261 260 258 257 261 260 258 256 256 256 254 253 253 253 253
271 271 268 266 265 265 267 269 268 266 268 266 263 263 263 265 261 265 266 266 266 267 266 266 265 262 261 260 259 259 257 256 256 260 257 256 254 254 253 253 254 257 256 256 256 255 255 255 253 253 252 251 250 249

GFSWCAN_sfc_thetae_132.txt.gz
Theta_e
301 300 301 300 300 300 300 300 300 300 299 298 298 299 299 300 300 293 289 292 289 282 286 289 290 284 284 282 279 282 281 280 278 274 272 275 274 276 274 277 273 274 271 267 272 264 266 285 284 277 282 286 286 286
300 300 300 300 299 299 299 299 299 299 299 299 298 299 299 300 301 295 287 292 293 286 285 290 292 292 290 288 284 283 281 281 278 274 272 273 275 274 275 271 280 271 277 272 278 278 285 287 285 287 287 285 286 286
300 300 300 300 299 299 299 299 299 299 299 299 299 299 299 300 300 296 289 289 288 282 283 285 285 291 293 291 290 283 284 287 284 284 277 276 274 276 269 273 275 281 286 278 278 282 284 285 287 287 288 287 288 287
300 300 300 299 299 299 299 299 299 299 299 299 299 299 300 300 300 297 291 292 289 285 278 284 294 290 293 292 290 289 288 288 287 283 277 275 276 281 277 278 276 279 286 280 278 283 285 287 286 287 287 288 287 286
299 299 299 299 299 298 299 299 299 299 299 299 299 299 299 299 299 294 292 293 292 286 278 281 288 291 293 291 290 289 288 285 281 278 274 275 280 279 279 280 279 284 282 274 273 283 283 284 286 289 285 285 284 283
299 299 299 299 298 299 299 299 298 299 299 299 299 299 299 299 296 289 284 292 293 290 280 277 286 288 289 290 289 288 287 284 282 280 278 281 284 280 273 275 283 285 286 285 282 287 287 287 286 286 284 284 283 282
299 299 299 299 299 298 298 298 298 299 299 299 299 299 299 298 291 286 284 290 295 290 280 275 279 286 290 289 286 285 286 284 284 280 277 280 281 283 275 276 284 286 287 287 288 286 284 282 281 283 283 282 282 281
298 299 299 299 299 298 298 298 299 299 299 299 299 299 299 298 295 289 291 296 294 287 284 271 275 281 288 282 282 285 282 283 282 281 280 280 281 280 277 284 284 285 284 284 283 283 282 282 281 281 281 280 278 277
297 298 298 299 299 299 298 298 299 299 299 298 299 297 291 289 284 289 298 297 292 286 277 273 273 272 287 285 287 286 284 276 282 275 278 280 279 280 282 283 281 282 282 282 281 281 280 278 278 278 277 276 275 275
296 296 298 298 298 298 298 298 298 298 298 297 290 283 277 285 297 294 288 284 281 284 282 275 280 276 286 281 285 283 283 282 278 280 282 278 277 283 283 283 282 281 281 281 278 276 277 276 276 276 275 275 274 274
296 295 297 298 298 298 298 298 298 298 294 286 283 284 289 297 288 282 277 275 276 274 280 280 280 277 284 278 276 281 277 279 273 278 280 280 279 282 282 281 281 280 279 278 277 277 276 276 274 274 274 274 273 273
296 295 296 297 298 298 298 297 297 290 287 288 290 292 290 285 282 274 273 277 278 277 280 277 279 280 280 284 278 277 276 275 273 285 281 279 280 283 280 279 278 278 277 277 276 275 275 275 275 274 273 272 272 273
296 296 296 297 296 298 297 297 295 295 295 291 286 280 278 278 269 268 268 274 274 279 279 279 277 280 281 282 279 273 271 276 281 275 276 277 280 283 280 278 277 278 277 276 276 275 274 274 274 274 273 273 270 269
295 295 296 296 297 297 297 296 297 295 288 279 275 274 275 274 275 277 277 278 280 279 281 281 279 278 277 277 274 269 275 278 269 268 275 276 278 277 278 278 277 276 276 273 275 275 274 273 271 269 265 267 263 266
294 295 295 296 297 297 296 296 296 291 284 276 278 269 273 277 278 281 280 279 283 282 283 281 279 278 273 271 276 276 273 275 273 272 274 276 279 277 277 277 276 276 272 271 270 268 267 265 265 265 265 265 267 262
293 294 292 295 297 297 296 295 292 290 283 279 277 274 277 275 276 282 283 284 283 283 283 282 275 271 271 277 276 274 272 270 273 276 278 278 277 277 277 277 275 273 272 269 267 267 265 263 263 264 263 264 264 261
292 285 294 295 294 296 294 288 288 283 278 275 278 275 274 281 281 282 283 283 282 280 282 282 275 275 278 271 273 278 274 277 277 278 279 278 277 276 276 275 272 273 272 269 266 265 266 265 263 266 265 263 263 265
285 290 295 295 295 292 287 288 284 281 276 276 276 279 271 271 281 277 281 283 283 282 280 280 284 279 271 272 269 274 276 278 279 278 275 276 277 276 277 276 273 272 272 268 267 266 267 267 266 264 263 263 265 264
289 292 295 291 290 287 284 284 283 276 279 276 279 273 273 270 272 277 281 282 282 280 282 281 280 275 271 271 271 272 276 277 275 273 271 271 272 273 274 274 274 273 271 270 269 267 267 266 265 264 264 264 263 260
294 294 292 293 294 285 282 283 286 279 274 274 274 271 272 271 270 269 274 275 277 275 276 274 271 267 269 275 271 273 274 272 274 269 267 268 269 270 269 270 268 269 272 272 271 268 267 266 266 265 264 262 262 261
292 292 294 292 288 284 280 277 278 277 277 273 274 274 270 274 272 272 272 275 275 270 273 268 267 269 269 269 269 274 275 275 271 273 272 269 269 273 269 267 272 269 267 265 265 263 262 263 263 264 260 259 259 259
286 290 287 289 282 282 279 281 278 277 277 272 276 276 272 272 275 276 276 268 265 266 269 269 268 269 269 270 270 272 272 275 276 276 276 274 270 269 268 266 271 264 263 262 265 262 262 264 264 262 261 263 266 261
291 289 285 284 278 274 276 278 273 276 269 272 275 273 273 273 273 277 265 266 266 266 266 268 268 270 271 268 271 273 275 276 274 273 273 272 272 271 270 267 266 264 263 263 265 264 263 264 262 261 260 260 260 264
288 280 276 274 274 272 274 271 277 278 277 271 270 268 272 271 273 266 265 264 264 268 267 267 273 272 271 273 273 273 273 274 273 272 272 273 271 266 267 266 265 265 268 272 269 264 263 260 260 260 259 261 258 259
273 271 271 271 274 268 265 271 271 272 267 270 272 269 269 271 263 263 265 266 269 264 266 270 270 271 269 270 269 269 270 274 271 269 267 269 268 270 270 269 267 266 266 264 262 260 264 261 258 257 259 256 261 262
267 267 269 267 268 271 271 267 268 268 270 269 269 272 270 264 265 265 269 264 263 265 264 269 272 270 271 271 269 269 269 271 270 266 263 265 265 267 267 262 261 262 265 260 259 259 264 265 258 259 259 260 259 260
264 266 273 278 278 278 271 272 276 273 273 271 271 268 267 264 264 266 270 269 268 266 268 273 272 271 270 269 267 263 264 267 266 267 268 268 268 266 264 261 260 262 264 261 258 258 259 262 262 258 259 263 258 256
269 269 266 267 270 275 270 270 271 270 270 273 271 265 266 265 265 268 266 269 270 271 271 271 272 271 269 267 265 265 263 264 266 267 268 266 264 261 260 259 260 266 261 261 257 256 256 257 261 260 259 259 257 256
266 270 270 265 269 271 268 268 268 269 270 271 269 264 261 265 265 267 268 269 271 271 269 268 265 266 266 265 263 262 261 262 263 260 257 255 256 260 256 256 256 256 257 259 264 263 260 258 258 258 258 260 262 257
268 269 266 264 267 266 263 265 264 266 267 266 266 267 266 265 267 270 271 271 269 267 266 267 263 265 262 262 257 257 255 253 254 259 259 257 257 257 253 254 254 254 253 254 255 257 262 260 265 261 258 256 253 253
270 266 262 261 259 261 263 263 263 263 262 263 264 263 263 264 267 268 268 266 268 267 265 263 257 258 261 258 255 255 254 254 253 254 257 258 255 252 252 252 252 253 252 255 254 252 253 254 252 252 252 251 250 249
267 264 261 257 258 262 262 261 261 261 263 261 262 260 260 262 263 263 265 267 269 268 261 263 263 260 258 256 254 254 257 257 253 254 256 254 250 250 252 254 252 251 254 255 254 251 251 251 249 249 248 248 247 247
269 265 264 265 261 261 262 265 265 263 261 260 259 262 263 263 262 262 262 263 268 268 265 262 261 261 259 259 259 256 255 253 252 259 255 254 251 253 249 248 249 250 253 251 250 250 250 250 248 247 246 246 245 245

GFSWCAN_sfc_thetae_135.txt.gz
Theta_e
300 300 300 300 300 300 300 300 300 299 299 299 299 300 301 301 299 293 289 291 289 283 285 288 288 283 282 282 279 281 280 280 277 273 272 275 274 276 274 277 270 273 271 267 270 262 264 284 284 276 281 286 286 286
300 300 300 300 299 299 300 300 299 299 299 300 300 300 301 301 299 294 288 292 292 286 285 289 290 290 288 287 283 282 280 280 278 273 271 272 275 273 274 270 278 269 272 271 274 273 282 286 283 287 287 285 286 285
299 300 299 299 299 299 299 299 299 299 299 300 300 301 301 301 299 295 289 289 287 283 284 283 283 289 292 290 290 282 283 286 282 282 275 275 274 276 268 273 274 278 286 280 275 280 283 283 287 286 286 286 287 286
299 299 299 299 299 299 299 299 299 299 299 299 300 300 301 301 300 296 289 289 288 284 278 283 292 288 291 291 289 288 287 286 284 282 276 274 275 280 276 277 275 276 284 279 275 283 284 286 285 286 286 286 284 284
299 299 299 299 299 299 299 299 299 299 299 299 300 300 300 300 298 294 291 290 290 285 279 281 287 290 291 290 289 288 287 283 281 277 273 274 279 278 279 279 273 282 280 274 272 281 281 284 285 287 284 282 282 281
299 299 299 299 298 299 299 298 299 299 299 299 300 300 299 298 295 289 283 290 292 288 282 277 285 287 289 289 288 286 285 282 281 279 277 280 283 279 272 274 282 284 285 284 281 286 286 285 284 283 282 281 280 279
299 299 298 298 298 298 298 298 299 299 299 299 299 299 298 296 291 286 283 289 293 289 280 276 279 285 289 287 284 284 284 282 282 279 277 279 280 281 275 275 282 285 286 285 285 287 280 280 278 281 280 280 280 279
299 298 298 298 298 298 298 298 299 299 299 299 299 299 298 298 295 288 291 296 293 286 282 273 277 281 286 282 281 283 281 282 281 280 280 279 280 278 274 281 282 283 283 281 281 281 280 280 279 278 278 277 276 275
298 298 298 298 298 298 298 298 299 299 299 299 298 295 291 288 285 287 297 294 290 286 276 273 275 273 286 284 286 284 281 275 281 275 277 279 277 277 281 281 281 281 282 280 280 279 279 277 277 276 275 275 274 273
298 298 298 298 298 298 298 298 298 298 299 296 290 283 277 285 296 293 287 280 280 280 280 276 280 276 283 282 283 280 280 281 278 279 281 276 277 280 283 282 280 280 282 281 278 277 277 276 275 275 274 274 273 273
298 298 298 298 298 298 298 298 298 298 294 286 282 284 288 295 287 281 274 275 275 274 278 280 280 279 283 278 279 279 274 279 273 278 278 278 278 279 280 279 280 279 278 277 277 276 275 275 274 274 273 273 273 272
297 298 298 298 298 298 298 298 297 290 287 287 290 291 289 284 278 274 269 276 278 277 279 277 279 280 280 282 278 278 275 277 275 283 280 275 279 279 278 278 278 277 277 276 276 275 275 275 274 274 273 273 272 271
296 298 298 298 297 298 298 297 295 295 294 289 285 279 278 277 269 268 269 273 273 279 277 278 275 279 279 281 277 271 269 272 280 278 276 276 281 279 277 277 276 277 276 276 275 275 274 274 274 273 272 272 270 268
296 298 298 298 298 297 296 297 297 294 287 279 274 272 271 271 273 276 277 278 279 279 279 280 277 278 276 276 273 268 273 277 272 269 274 273 278 277 277 277 276 275 275 273 275 274 273 272 271 269 264 263 263 265
295 296 297 297 297 296 297 297 295 290 283 276 276 267 272 275 279 281 281 281 284 279 281 280 278 277 272 271 275 274 271 275 276 270 273 273 277 277 277 277 276 276 270 270 268 266 266 265 265 265 264 263 265 263
295 293 292 297 297 296 296 293 290 287 281 278 277 275 275 276 280 281 283 283 284 283 282 282 274 269 269 272 273 269 273 269 269 271 275 278 278 278 277 277 276 274 269 267 265 265 264 262 263 264 261 262 260 259
291 287 295 297 296 296 294 289 287 281 277 275 278 278 274 276 280 278 283 281 282 281 279 277 270 272 276 272 274 276 271 270 272 276 278 279 278 276 275 274 272 273 272 269 266 265 264 263 263 265 264 262 262 262
286 291 293 297 294 291 287 287 281 279 276 278 272 272 276 275 281 279 279 281 282 283 283 280 284 278 269 271 271 269 269 273 274 276 277 277 276 274 276 274 272 273 273 269 269 267 267 267 266 264 262 262 263 262
290 292 293 293 292 287 284 284 282 275 277 280 276 274 273 272 276 280 282 283 283 283 282 281 278 272 270 269 267 271 267 270 271 270 269 268 270 272 270 271 272 271 269 269 269 267 266 265 264 263 263 262 262 259
295 294 292 293 293 285 282 282 285 279 275 274 273 270 271 269 268 269 270 272 279 279 276 277 276 267 267 272 271 273 273 271 273 273 271 264 265 268 269 271 270 269 270 271 271 267 267 265 264 264 262 261 261 260
291 292 293 290 286 285 281 279 278 278 278 273 273 273 268 271 268 268 269 273 275 275 271 267 262 272 275 268 267 270 271 274 270 273 271 268 268 273 270 268 270 270 268 265 266 262 261 262 262 264 258 258 257 257
288 289 286 289 283 282 280 279 277 277 275 277 277 274 273 270 267 272 274 269 266 267 265 264 264 270 267 266 266 270 273 276 275 274 274 273 271 271 270 267 269 263 262 261 263 261 261 263 262 260 258 258 263 260
289 289 285 283 278 276 276 279 274 275 269 275 277 275 276 276 274 278 265 266 265 264 263 263 263 264 268 266 271 273 273 276 274 274 273 272 271 270 269 267 266 264 262 262 263 262 261 261 260 258 257 257 256 258
289 282 278 277 276 273 273 270 277 276 272 274 274 265 269 266 271 266 264 263 263 266 266 269 271 270 271 273 271 271 272 274 273 272 272 273 270 264 265 264 264 263 266 268 264 262 261 258 257 258 255 255 255 258
278 275 273 271 271 270 267 274 269 270 263 264 267 265 268 269 262 262 265 263 271 265 265 266 268 269 267 266 268 269 271 273 271 269 268 269 268 269 267 265 265 264 264 261 259 257 257 256 254 255 256 253 259 260
271 270 269 266 266 268 268 267 263 263 264 265 266 268 266 262 263 266 268 265 264 265 264 269 267 267 267 267 268 269 270 271 269 265 263 265 268 267 263 262 261 262 263 259 257 257 259 259 256 257 255 258 257 255
265 265 272 277 276 275 268 268 274 269 266 266 268 269 269 265 261 266 269 268 267 265 267 270 271 270 269 267 266 263 264 266 266 266 266 266 266 267 266 263 261 262 263 259 256 256 257 257 259 257 256 257 254 254
267 268 267 267 269 273 267 267 268 269 269 272 272 268 266 264 265 269 266 266 268 269 270 270 270 271 270 268 265 265 265 266 266 266 267 265 263 260 259 258 258 263 257 256 255 253 255 258 260 258 257 257 255 252
266 269 270 264 265 265 264 267 268 267 269 271 269 267 263 266 266 265 268 268 266 269 268 267 266 266 264 262 260 260 265 266 262 257 254 254 254 258 254 253 254 254 253 256 261 259 257 255 255 255 254 254 255 251
265 267 264 262 266 267 265 268 268 268 268 266 267 267 266 264 267 267 269 269 267 267 268 268 267 266 264 264 259 259 258 253 256 259 257 255 258 255 251 252 253 252 250 252 253 255 260 260 261 256 253 251 250 249
267 264 262 261 261 261 264 263 265 268 267 263 261 261 261 260 263 264 266 265 266 266 265 263 258 259 262 261 260 258 256 254 250 252 255 257 256 252 251 251 250 249 250 251 251 250 250 249 248 248 249 248 247 247
268 264 263 260 260 264 261 259 257 257 257 257 257 255 257 257 258 259 265 268 266 265 265 265 264 262 259 257 255 253 257 258 255 257 257 256 253 249 250 250 248 250 252 251 249 249 248 248 247 246 246 246 245 245
266 265 264 263 261 261 262 263 261 258 256 256 256 257 258 260 261 262 261 267 270 268 265 266 262 262 261 260 258 254 255 254 253 259 255 255 252 251 247 247 248 251 253 250 247 247 248 248 246 245 244 244 244 243

GFSWCAN_sfc_thetae_138.txt.gz
Theta_e
299 299 299 300 300 300 300 299 299 299 300 300 300 301 302 302 299 293 289 291 289 283 284 288 287 283 283 282 279 281 279 279 277 273 272 274 274 276 273 276 270 267 269 265 269 262 264 283 282 277 279 284 286 285
299 298 298 299 299 299 299 299 299 299 300 300 301 301 301 300 298 294 289 291 291 286 285 289 289 289 288 287 282 281 280 279 277 272 271 273 274 273 274 269 278 270 271 269 272 271 280 286 283 284 286 284 286 285
298 299 299 299 299 299 299 299 299 299 300 301 301 301 301 300 298 295 288 288 288 285 286 285 285 289 290 289 289 282 282 284 281 281 274 275 274 276 268 272 274 276 285 280 276 279 281 282 285 285 285 284 285 285
298 299 299 299 299 299 299 299 299 299 300 300 301 301 300 300 299 295 288 289 288 284 279 283 291 287 290 290 288 287 285 285 283 281 276 274 275 279 276 276 275 274 283 281 276 281 282 285 286 284 285 284 283 283
298 299 299 299 299 299 298 299 299 299 300 300 300 300 299 299 297 293 290 289 289 285 279 281 286 289 290 289 287 287 285 282 280 278 273 274 279 278 278 279 271 280 279 275 273 278 276 280 283 285 282 280 281 280
298 298 299 298 298 298 298 299 299 299 299 300 300 299 298 297 294 288 282 289 290 287 282 277 284 285 287 288 286 285 284 282 280 278 276 280 282 278 272 274 281 283 283 282 281 284 284 282 281 282 280 280 279 278
298 298 298 298 298 298 298 298 299 299 299 299 299 298 298 297 292 285 282 287 292 288 281 276 279 283 287 286 283 283 283 282 281 278 276 279 280 280 274 275 281 283 284 283 284 282 280 279 278 279 278 278 278 277
298 298 298 298 298 298 298 298 299 299 299 299 299 298 298 297 293 288 291 294 290 283 282 273 277 281 285 281 281 282 281 281 280 279 279 279 280 278 274 280 281 281 281 280 280 281 279 279 278 276 276 276 275 274
298 298 298 298 298 298 298 298 299 299 299 298 297 296 290 287 283 287 295 292 289 284 275 274 275 273 285 284 285 284 281 274 281 274 277 278 277 275 279 281 280 280 280 279 279 279 278 277 276 275 274 274 273 272
298 297 297 297 298 298 298 298 298 299 296 295 289 282 279 286 295 291 285 279 278 279 280 277 279 275 282 283 282 278 278 278 274 279 280 275 276 281 281 283 281 280 280 280 277 276 276 275 275 274 273 273 272 272
298 298 297 298 298 298 298 298 298 296 293 286 281 284 288 294 285 280 273 273 274 273 279 279 280 278 282 277 281 278 276 278 272 277 276 275 276 278 279 280 280 279 278 277 276 276 275 275 274 274 273 273 272 271
298 298 298 298 298 298 298 298 296 289 286 288 289 290 288 282 277 274 268 275 277 276 279 277 279 280 279 282 279 280 276 278 275 282 275 273 275 277 277 277 277 277 276 275 276 275 275 275 274 274 273 273 272 271
298 298 298 297 298 298 298 296 295 295 294 289 284 279 279 276 268 265 266 271 272 278 278 278 274 278 279 280 277 271 268 270 280 277 275 275 279 279 278 277 276 276 276 275 274 274 274 274 274 273 272 272 269 268
298 297 298 298 298 297 296 297 297 292 286 279 274 271 271 269 271 274 276 277 278 279 279 279 277 277 276 275 272 268 272 276 270 267 273 274 279 278 277 277 276 275 274 272 274 274 273 272 270 267 263 263 262 265
298 298 298 297 297 297 297 296 294 290 283 276 277 269 270 274 279 280 281 283 283 279 281 279 277 276 271 271 274 273 268 268 272 269 271 274 278 277 277 277 276 275 272 270 267 266 264 263 264 263 262 262 265 260
298 297 294 297 296 297 295 292 289 285 281 279 277 275 278 280 280 282 283 282 284 282 280 279 272 268 268 272 271 269 270 267 269 271 277 275 277 278 278 278 276 273 271 266 265 264 262 261 262 262 259 259 258 258
291 287 296 296 296 296 295 287 283 280 277 276 275 278 276 275 278 281 278 281 283 278 273 273 268 270 275 272 271 274 268 270 270 277 272 275 277 276 275 274 272 272 271 268 266 266 265 263 262 265 264 261 260 259
288 295 296 295 293 291 288 285 280 279 276 277 273 274 279 278 280 279 279 280 280 282 283 279 280 274 268 270 267 269 269 277 269 271 271 272 275 274 275 273 271 271 270 268 267 267 266 266 266 264 263 262 262 261
289 294 295 295 291 287 283 282 282 276 277 277 278 275 276 278 278 280 282 282 283 282 282 281 276 275 270 270 268 267 265 270 273 272 268 265 268 271 270 270 269 269 268 266 266 266 265 264 263 262 262 262 261 258
291 295 294 294 292 282 280 281 284 279 274 274 275 272 275 272 276 278 274 276 281 279 278 277 277 270 269 267 272 271 267 270 274 273 269 264 264 268 270 272 270 270 269 270 268 266 266 264 263 262 261 260 260 259
289 287 290 289 286 282 279 279 277 277 277 274 274 274 273 273 269 267 269 273 275 275 275 270 262 272 276 273 274 277 274 273 269 271 270 268 266 270 269 270 271 270 268 266 267 261 260 261 261 262 257 257 256 256
288 290 285 287 283 281 278 278 277 277 275 276 273 273 266 264 265 270 276 274 272 268 265 263 269 274 273 266 265 266 267 272 271 272 273 273 271 271 269 270 270 266 265 260 262 260 260 261 261 259 257 256 257 258
290 288 285 282 278 277 276 276 273 275 271 275 277 271 272 274 275 278 272 268 266 262 263 261 261 265 266 265 268 268 267 273 271 271 272 272 271 270 269 265 264 262 261 261 262 261 260 259 259 257 255 256 254 256
288 282 279 275 276 272 273 271 276 274 275 274 273 265 270 269 271 267 266 263 262 267 271 268 270 270 271 272 268 267 267 271 271 272 271 271 268 263 264 263 262 262 264 264 262 260 259 257 255 256 253 253 253 254
278 276 273 270 269 271 272 272 273 269 263 268 265 263 266 268 262 261 266 264 269 271 270 268 268 268 266 263 265 267 266 270 271 269 268 267 266 266 265 264 263 263 263 259 258 256 255 256 254 253 255 252 258 255
270 272 268 265 264 267 270 269 266 261 262 268 266 266 264 261 263 266 266 263 265 269 269 269 266 264 264 265 267 268 267 268 269 265 264 267 267 266 262 261 260 261 262 258 257 256 257 256 255 256 254 257 256 253
269 267 273 276 275 273 265 267 271 266 262 263 266 263 264 263 260 266 267 265 265 264 266 268 269 268 267 264 264 263 265 267 267 265 265 265 266 267 266 263 261 261 261 259 255 255 256 254 258 255 254 253 252 251
266 266 269 268 267 269 263 264 265 264 264 270 269 266 268 265 266 266 267 266 267 266 268 267 266 268 269 267 266 265 264 265 265 265 266 265 263 260 259 258 258 263 257 254 254 252 253 255 255 253 254 255 254 250
264 266 268 261 262 262 262 265 267 267 268 271 269 267 265 266 264 262 264 266 266 267 266 265 262 263 263 263 261 261 264 265 262 257 254 254 254 259 253 252 253 252 251 255 261 257 256 253 253 252 251 252 250 247
264 265 262 258 262 264 261 262 263 263 265 265 266 266 266 264 265 266 265 268 268 265 262 265 265 266 265 264 260 258 254 252 256 261 259 255 259 256 252 252 253 250 249 251 252 254 261 256 258 253 250 249 247 247
264 261 260 258 259 257 260 261 262 265 263 263 260 262 261 258 261 260 264 261 261 263 264 263 258 261 264 262 263 260 258 254 251 254 256 255 257 256 252 250 249 247 248 250 250 249 248 247 246 247 248 248 246 245
263 261 262 260 260 261 260 256 254 255 255 256 257 252 256 257 258 259 264 266 266 265 263 265 265 262 260 259 256 255 259 261 257 256 258 257 255 251 250 249 247 249 250 249 248 248 247 247 246 245 246 246 244 243
264 265 265 263 260 260 260 261 260 258 254 254 254 254 255 258 261 262 262 267 269 268 266 268 265 264 261 261 260 255 257 257 257 261 258 257 253 251 247 246 249 251 253 249 246 246 247 247 245 245 244 243 243 242

GFSWCAN_sfc_thetae_141.txt.gz
Theta_e
296 297 298 300 300 300 300 300 300 300 299 299 299 299 300 301 299 294 289 292 291 285 286 289 289 285 285 285 282 284 283 283 281 278 277 278 278 279 278 278 275 276 274 274 273 270 271 284 283 279 282 285 286 286
298 297 298 299 299 299 299 299 299 299 299 300 300 301 302 301 299 295 290 292 293 288 287 290 289 289 291 289 285 284 283 281 282 278 277 279 279 279 278 274 279 276 279 278 278 279 282 286 283 285 286 284 285 284
298 298 298 298 298 298 299 299 299 300 301 301 301 301 301 300 299 295 290 290 292 288 288 287 286 291 292 291 293 285 285 286 284 284 280 281 279 280 276 277 279 280 284 280 280 282 284 284 286 286 286 286 286 284
298 297 297 297 298 298 299 300 300 300 301 300 301 301 300 300 298 295 290 290 290 287 282 284 292 289 292 292 290 290 287 286 286 285 282 280 279 282 279 280 280 281 284 281 280 282 284 284 286 287 287 285 283 283
297 298 298 298 298 299 299 300 300 300 300 300 300 300 299 299 297 293 291 290 291 288 282 283 288 290 290 290 288 289 288 286 285 284 281 279 282 282 281 282 279 284 282 280 280 282 283 283 285 286 284 282 281 280
297 298 298 298 298 299 299 299 300 299 299 299 299 299 298 297 293 290 286 291 291 291 284 280 286 287 288 289 288 287 286 285 284 283 282 283 284 283 279 278 283 284 286 285 285 286 285 284 283 283 281 281 280 278
298 298 298 298 298 299 299 299 299 299 299 299 299 299 298 297 293 285 285 289 293 290 284 280 281 285 288 287 286 286 286 285 285 283 283 283 283 284 281 278 283 286 286 286 288 285 281 282 280 280 279 279 279 277
297 298 298 298 298 298 299 298 299 299 298 298 298 298 298 297 294 288 291 294 290 285 285 276 279 283 288 284 283 285 284 285 284 283 284 283 284 282 278 282 284 284 283 282 282 283 282 280 279 277 277 277 275 275
297 298 298 298 298 298 298 298 299 298 299 298 297 295 291 288 285 288 295 291 289 286 278 278 277 276 287 285 286 285 283 280 283 281 282 283 280 278 281 283 283 282 283 280 280 280 280 278 277 276 275 275 273 273
298 297 297 297 298 298 298 298 298 296 296 294 288 283 279 288 295 291 284 280 279 280 282 279 282 279 285 284 283 283 283 280 278 281 283 280 280 282 282 285 284 283 282 282 279 277 277 276 276 275 274 274 273 273
298 297 297 298 298 298 298 298 296 295 293 286 283 285 288 294 285 280 274 275 276 275 281 281 282 281 285 280 281 281 280 280 275 279 279 278 278 280 281 281 281 281 280 279 279 278 277 277 275 274 274 274 273 273
298 298 298 298 298 298 298 296 294 289 287 288 289 289 287 282 276 273 271 276 278 276 280 281 281 283 283 285 281 282 279 279 275 282 278 276 279 279 279 278 278 278 278 277 277 276 276 275 275 275 274 273 273 272
297 297 298 298 298 298 296 296 296 296 292 288 283 277 278 275 269 267 268 273 275 279 280 281 279 283 283 283 279 277 275 275 283 278 277 279 280 279 279 278 277 277 277 276 275 276 275 275 275 274 273 272 271 271
297 298 298 298 298 296 297 297 295 291 286 278 272 268 270 267 273 275 277 278 279 280 281 282 280 282 280 278 275 274 276 279 274 272 276 279 281 280 279 278 277 276 276 275 275 274 273 273 272 269 267 267 268 269
297 297 298 297 297 297 297 295 294 289 284 277 276 267 270 276 280 281 283 283 282 282 283 281 280 280 276 275 277 276 274 272 274 274 277 279 281 279 278 278 277 276 274 274 273 271 269 268 269 269 267 267 268 266
297 296 294 297 297 296 294 292 288 285 282 280 276 277 280 280 281 282 282 281 284 282 282 281 276 274 274 275 274 273 273 271 276 278 280 279 278 278 278 278 278 276 274 272 270 270 269 267 269 269 266 266 264 265
293 289 297 296 296 294 293 285 283 278 278 277 278 278 278 281 280 280 282 282 284 282 278 277 272 273 277 274 274 276 274 277 277 278 278 279 278 278 278 276 274 274 273 271 269 270 270 268 267 270 269 269 268 267
291 294 296 296 292 290 287 282 281 280 276 277 277 277 280 280 280 280 282 282 282 284 283 280 279 276 272 273 274 276 275 277 275 277 277 278 277 276 277 275 273 274 273 271 271 270 269 269 270 271 269 269 269 268
293 294 295 295 291 285 280 281 282 276 278 279 278 278 279 279 280 282 282 283 284 282 283 280 275 277 276 275 276 273 276 278 277 277 274 272 274 274 274 274 273 273 271 271 272 272 271 270 271 271 270 270 270 269
295 295 294 293 291 283 280 280 284 279 275 276 276 276 277 277 277 279 278 280 281 281 279 277 276 276 276 275 274 276 275 275 276 274 273 272 272 273 274 275 274 273 272 272 271 269 271 270 270 270 270 270 270 270
288 290 291 289 283 282 281 279 278 278 277 275 275 275 274 274 273 273 274 277 277 276 275 277 273 270 271 276 277 279 274 277 276 277 275 272 272 274 273 274 274 274 272 272 271 268 268 270 270 269 269 269 268 268
286 290 287 287 281 280 279 280 278 278 277 277 275 275 270 269 270 273 277 275 274 273 273 270 272 276 276 275 274 274 273 274 274 274 273 274 273 273 273 273 273 271 271 270 271 270 270 270 269 268 269 268 265 268
289 288 284 282 277 275 275 278 274 275 272 276 275 272 269 269 271 278 274 275 272 267 267 267 270 274 273 271 272 271 272 275 273 274 274 274 274 274 273 272 272 270 270 269 269 270 270 264 265 268 267 267 267 268
287 282 278 276 274 272 274 274 276 274 276 275 270 269 271 273 274 270 271 268 268 268 272 269 272 273 274 274 273 272 272 273 272 272 273 273 271 269 270 269 269 269 271 270 270 269 268 268 262 267 266 267 266 266
279 275 276 270 273 270 273 273 271 269 268 270 267 265 267 271 265 265 267 269 269 272 273 272 272 272 271 269 269 271 269 274 273 271 270 271 269 268 268 268 268 268 268 270 269 268 266 265 265 266 265 266 267 266
273 272 268 268 268 267 271 268 269 264 267 269 268 267 267 265 265 267 269 268 267 271 271 272 271 270 269 270 270 271 272 273 272 270 268 270 271 270 268 267 268 268 268 268 267 267 266 264 265 266 265 263 258 264
271 267 273 275 274 272 267 270 271 267 267 268 271 264 264 262 264 268 270 269 270 269 269 271 272 272 271 268 267 268 269 270 270 270 269 269 270 271 270 268 267 269 267 266 266 267 267 265 265 264 264 263 262 261
271 269 269 273 269 270 269 270 271 265 267 270 269 264 265 267 270 272 273 270 269 268 269 270 271 271 271 269 268 267 266 266 266 267 267 266 265 264 265 266 266 265 265 264 265 263 265 265 265 264 264 265 262 258
265 266 269 266 263 264 263 267 268 268 269 271 268 265 268 269 267 269 268 268 269 270 268 267 264 265 265 265 265 267 267 268 266 263 263 263 264 265 261 263 264 263 264 265 263 263 263 263 263 263 262 262 259 257
264 265 263 259 263 265 261 262 261 261 265 266 266 267 267 265 265 266 268 269 268 268 269 268 265 267 266 266 264 264 261 262 265 266 264 263 264 265 262 263 263 261 261 264 264 264 264 262 262 260 260 259 259 260
263 261 260 259 260 257 259 260 260 261 260 260 258 263 264 262 263 265 268 269 266 265 265 264 263 266 266 265 266 265 264 262 258 261 263 263 262 263 262 261 261 260 261 262 262 261 260 259 259 259 259 258 255 255
260 258 260 260 259 259 257 257 255 256 257 259 260 257 260 262 264 266 265 266 267 267 264 266 266 265 267 268 265 267 265 266 261 260 261 262 263 261 260 259 257 259 260 260 260 259 258 259 258 258 257 256 254 253
260 259 258 257 258 259 260 260 260 259 257 256 258 256 258 261 265 266 265 267 270 269 266 268 269 268 266 266 265 261 260 261 260 263 261 261 258 258 257 257 258 260 259 259 258 258 258 257 256 255 254 253 252 251